[[{"header":{"parameterUnit":"m.s-1","parameterCategory":1,"la1":31.0,"la2":29.5877,"lo1":-88.7671,"lo2":-86.6584,"dy":0.0162,"dx":0.0185,"nx":115,"ny":88,"refTime":"2023-08-13T12:00:00:Z","depth":0,"parameterNumber":2,"parameterNumberName":"U-component_of_WINDS"},"data":[0.0,0.0,0.0,0.0,0.0,0.0,0.0,0.0,0.0,0.0,0.0,0.0,0.0,0.0,0.0,0.0,0.0,0.0,0.0,0.0,0.0,0.0,0.0,0.0,0.0,0.0,0.0,0.0,0.0,0.0,0.0,0.0,0.0,0.0,0.0,0.0,0.0,0.0,0.0,0.0,0.0,0.0,0.0,0.0,0.0,0.0,0.0,0.0,0.0,0.0,0.0,0.0,0.0,0.0,0.0,0.0,0.0,0.0,0.0,0.0,0.0,0.0,0.0,0.0,0.0,0.0,0.0,0.0,0.0,0.0,0.0,0.0,0.0,0.0,0.0,0.0,0.0,0.0,0.0,0.0,0.0,0.0,0.0,0.0,0.0,0.0,0.0,0.0,0.0,0.0,0.0,0.0,0.0,0.0,0.0,0.0,0.0,0.0,0.0,0.0,0.0,0.0,0.0,0.0,0.0,0.0,0.0,0.0,0.0,0.0,0.0,0.0,0.0,0.0,0.0,0.0,0.0,0.0,0.0,0.0,0.0,0.0,0.0,0.0,0.0,0.0,0.0,0.0,0.0,0.0,0.0,0.0,0.0,0.0,0.0,0.0,0.0,0.0,0.0,0.0,0.0,0.0,0.0,0.0,0.0,0.0,0.0,0.0,0.0,0.0,0.0,0.0,0.0,0.0,0.0,0.0,0.0,0.0,0.0,0.0,0.0,0.0,0.0,0.0,0.0,0.0,0.0,0.0,0.0,0.0,0.0,0.0,0.0,0.0,0.0,0.0,0.0,0.0,0.0,0.0,0.0,0.0,0.0,0.0,0.0,0.0,0.0,0.0,0.0,0.0,0.0,0.0,0.0,0.0,0.0,0.0,0.0,0.0,0.0,0.0,0.0,0.0,0.0,0.0,0.0,0.0,0.0,0.0,0.0,0.0,0.0,0.0,0.0,0.0,0.0,0.0,0.0,0.0,0.0,0.0,0.0,0.0,0.0,0.0,0.0,0.0,0.0,0.0,0.0,0.0,0.0,0.0,0.0,0.0,0.0,0.0,0.0,0.0,0.0,0.0,0.0,0.0,0.0,0.0,0.0,0.0,0.0,0.0,0.0,0.0,0.0,0.0,0.0,0.0,0.0,0.0,0.0,0.0,0.0,0.0,0.0,0.0,0.0,0.0,0.0,0.0,0.0,0.0,0.0,0.0,0.0,0.0,0.0,0.0,0.0,0.0,0.0,0.0,0.0,0.0,0.0,0.0,0.0,0.0,0.0,0.0,0.0,0.0,0.0,0.0,0.0,0.0,0.0,0.0,0.0,0.0,0.0,0.0,0.0,0.0,0.0,0.0,0.0,0.0,0.0,0.0,0.0,0.0,0.0,0.0,0.0,0.0,0.0,0.0,0.0,0.0,0.0,0.0,0.0,0.0,0.0,0.0,0.0,0.0,0.0,0.0,0.0,0.0,0.0,0.0,0.0,0.0,0.0,0.0,0.0,0.0,0.0,0.0,0.0,0.0,0.0,0.0,0.0,0.0,0.0,0.0,0.0,0.0,0.0,0.0,0.0,0.0,0.0,0.0,0.0,0.0,0.0,0.0,0.0,0.0,0.0,0.0,0.0,0.0,0.0,0.0,0.0,0.0,0.0,0.0,0.0,0.0,0.0,0.0,0.0,0.0,0.0,0.0,0.0,0.0,0.0,0.0,0.0,0.0,0.0,0.0,0.0,0.0,0.0,0.0,0.0,0.0,0.0,0.0,0.0,0.0,0.0,0.0,0.0,0.0,0.0,0.0,0.0,0.0,0.0,0.0,0.0,0.0,0.0,0.0,0.0,0.0,0.0,0.0,0.0,0.0,0.0,0.0,0.0,0.0,0.0,0.0,0.0,0.0,0.0,0.0,0.0,0.0,0.0,0.0,0.0,0.0,0.0,0.0,0.0,0.0,0.0,0.0,0.0,0.0,0.0,0.0,0.0,0.0,0.0,0.0,0.0,0.0,0.0,0.0,0.0,0.0,0.0,0.0,0.0,0.0,0.0,0.0,0.0,0.0,0.0,0.0,0.0,0.0,0.0,0.0,0.0,0.0,0.0,0.0,0.0,0.0,0.0,0.0,0.0,0.0,0.0,0.0,0.0,0.0,0.0,0.0,0.0,0.0,0.0,0.0,0.0,0.0,0.0,0.0,0.0,0.0,0.0,0.0,0.0,0.0,0.0,0.0,0.0,0.0,0.0,0.0,0.0,0.0,0.0,0.0,0.0,0.0,0.0,0.0,0.0,0.0,0.0,0.0,0.0,0.0,0.0,0.0,0.0,0.0,0.0,0.0,0.0,0.0,0.0,0.0,0.0,0.0,0.0,0.0,0.0,0.0,0.0,0.0,0.0,0.0,0.0,0.0,0.0,0.0,0.0,0.0,0.0,0.0,0.0,0.0,0.0,0.0,0.0,0.0,0.0,0.0,0.0,0.0,0.0,0.0,0.0,0.0,0.0,0.0,0.0,0.0,0.0,0.0,0.0,0.0,0.0,0.0,0.0,0.0,0.0,0.0,0.0,0.0,0.0,0.0,0.0,0.0,0.0,0.0,0.0,0.0,0.0,0.0,0.0,0.0,0.0,0.0,0.0,0.0,0.0,0.0,0.0,0.0,0.0,0.0,0.0,0.0,0.0,0.0,0.0,0.0,0.0,0.0,0.0,0.0,0.0,0.0,0.0,0.0,0.0,0.0,0.0,0.0,0.0,0.0,0.0,0.0,0.0,0.0,0.0,0.0,0.0,0.0,0.0,0.0,0.0,0.0,0.0,0.0,0.0,0.0,0.0,0.0,0.0,0.0,0.0,0.0,0.0,0.0,0.0,0.0,0.0,0.0,0.0,0.0,0.0,0.0,0.0,0.0,0.0,0.0,0.0,0.0,0.0,0.0,0.0,0.0,0.0,0.0,0.0,0.0,0.0,0.0,0.0,0.0,0.0,0.0,0.0,0.0,0.0,0.0,0.0,0.0,0.0,0.0,0.0,0.0,0.0,0.0,0.0,0.0,0.0,0.0,0.0,0.0,0.0,0.0,0.0,0.0,0.0,0.0,0.0,0.0,0.0,0.0,0.0,0.0,0.0,0.0,0.0,0.0,0.0,0.0,0.0,0.0,0.0,0.0,0.0,0.0,0.0,0.0,0.0,0.0,0.0,0.0,0.0,0.0,0.0,0.0,0.0,0.0,0.0,0.0,0.0,0.0,0.0,0.0,0.0,0.0,0.0,0.0,0.0,0.0,0.0,0.0,0.0,0.0,0.0,0.0,0.0,0.0,0.0,0.0,0.0,0.0,0.0,0.0,0.0,0.0,0.0,0.0,0.0,0.0,0.0,0.0,0.0,0.0,0.0,0.0,0.0,0.0,0.0,0.0,0.0,0.0,0.0,0.0,0.0,0.0,0.0,0.0,0.0,0.0,0.0,0.0,0.0,0.0,0.0,0.0,0.0,0.0,0.0,0.0,0.0,0.0,0.0,0.0,0.0,0.0,0.0,0.0,0.0,0.0,0.0,0.0,0.0,0.0,0.0,0.0,0.0,0.0,0.0,0.0,0.0,0.0,0.0,0.0,0.0,0.0,0.0,0.0,0.0,0.0,0.0,0.0,0.0,0.0,0.0,0.0,0.0,0.0,0.0,0.0,0.0,0.0,0.0,0.0,0.0,0.0,0.0,0.0,0.0,0.0,0.0,0.0,0.0,0.0,0.0,0.0,0.0,0.0,0.0,0.0,0.0,0.0,0.0,0.0,0.0,0.0,0.0,0.0,0.0,0.0,0.0,0.0,0.0,0.0,0.0,0.0,0.0,0.0,0.0,0.0,0.0,0.0,0.0,0.0,0.0,0.0,0.0,0.0,0.0,0.0,0.0,0.0,0.0,0.0,0.0,0.0,0.0,0.0,0.0,0.0,0.0,0.0,0.0,0.0,0.0,0.0,0.0,0.0,0.0,0.0,0.0,0.0,0.0,0.0,0.0,0.0,0.0,0.0,0.0,0.0,0.0,0.0,0.0,0.0,0.0,0.0,0.0,0.0,0.0,0.0,0.0,0.0,0.0,0.0,0.0,0.0,0.0,0.0,0.0,0.0,0.0,0.0,0.0,0.0,0.0,0.0,0.0,0.0,0.0,0.0,0.0,0.0,0.0,0.0,0.0,0.0,0.0,0.0,0.0,0.0,0.0,0.0,0.0,0.0,0.0,0.0,0.0,0.0,0.0,0.0,0.0,0.0,0.0,0.0,0.0,0.0,0.0,0.0,0.0,0.0,0.0,0.0,0.1133,0.0,0.0,0.0,0.0,0.0,0.0,0.0,0.0,0.0,0.0,0.0,0.0,0.0,0.0,0.0,0.0,0.0,0.0,0.0,0.0,0.0,0.0,0.0,0.0,0.0,0.0,0.0,0.0,0.0,0.0,0.0,0.0,0.0,0.0,0.0,0.0,0.0,0.0,0.0,0.0,0.0,0.0,0.0,0.0,0.0,0.0,0.0,0.0,0.0,0.0,0.0,0.0,0.0,0.0,0.0,0.0,0.0,0.0,0.0,0.0,0.0,0.0,0.0,0.0,0.0,0.0,0.0,0.0,0.0,0.0,0.0,0.0,0.0,0.0,0.0,0.0,0.0,0.0,0.0,0.0,0.0,0.0,0.0,0.0,0.0,0.0,0.0,0.0,0.0,0.0,0.0,0.0,0.0,0.0,0.0,0.0,0.0,0.0,0.0,0.0,0.0,0.0,0.0,0.0,0.0,0.0,0.0,0.0,0.0,0.0,0.1681,0.1614,0.1344,0.1144,0.1077,0.0,0.0,0.0,0.0,0.0,0.0,0.0,0.0,0.0,0.0,0.0,0.0,0.0,0.0,0.0,0.0,0.0,0.0,0.0,0.0,0.0,0.0,0.0,0.0,0.0,0.0,0.0,0.0,0.0,0.0,0.0,0.0,0.0,0.0,0.0,0.0,0.0,0.0,0.0,0.0,0.0,0.0,0.0,0.0,0.0,0.0,0.0,0.0,0.0,0.0,0.0,0.0,0.0,0.0,0.0,0.0,0.0,0.0,0.0,0.0,0.0,0.0,0.0,0.0,0.0,0.0,0.0,0.0,0.0,0.0,0.0,0.0,0.0,0.0,0.0,0.0,0.0,0.0,0.0,0.0,0.0,0.0,0.0,0.0,0.0,0.0,0.0,0.0,0.0,0.0,0.0,0.0,0.0,0.0,0.0,0.0,0.0,0.0,0.0,0.0,0.0,0.0,0.0,0.0,0.0,0.0,0.0,0.0,0.0,0.0,0.0,0.0,0.1234,0.1093,0.1086,0.0,0.0,0.0,0.0,0.0,0.0,0.0,0.0,0.0,0.0,0.0,0.0,0.0,0.0,0.0,0.0,0.0,0.0,0.0,0.0,0.0,0.0,0.0,0.0,0.0,0.0,0.0,0.0,0.0,0.0,0.0,0.0,0.0,0.0,0.0,0.0,0.0,0.0,0.0,0.0,0.0,0.0,0.0,0.0,0.0,0.0,0.0,0.0,0.0,0.0,0.0,0.0,0.0,0.0,0.0,0.0,0.0,0.0,0.0,0.0,0.0,0.0,0.0,0.0,0.0,0.0,0.0,0.0,0.0,0.0,0.0,0.0,0.0,0.0,0.0,0.0,0.0,0.0,0.0,0.0,0.0,0.0,0.0,0.0,0.0,0.0,0.0,0.0,0.0,0.0,0.0,0.0,0.0,0.0,0.0,0.0,0.0,0.0,0.0,0.0,0.0,0.0,0.0,0.0,0.0,0.0,0.0,0.0,0.0,0.0,0.1303,0.1158,0.1157,0.0,0.1118,0.0,0.0,0.0,0.0,0.0,0.0,0.0,0.0,0.0,0.0,0.0,0.0,0.0,0.0,0.0,0.0,0.0,0.0,0.0,0.0,0.0,0.0,0.0,0.0,0.0,0.0,0.0,0.0,0.0,0.0,0.0,0.0,0.0,0.0,0.0,0.0,0.0,0.0,0.0,0.0,0.0,0.0,0.0,0.0,0.0,0.0,0.0,0.0,0.0,0.0,0.0,0.0,0.0,0.0,0.0,0.0,0.0,0.0,0.0,0.0,0.0,0.0,0.0,0.0,0.0,0.0,0.0,0.0,0.0,0.0,0.0,0.0,0.0,0.0,0.0,0.0,0.0,0.0,0.0,0.0,0.0,0.0,0.0,0.0,0.0,0.0,0.0,0.0,0.0,0.0,0.0,0.0,0.0,0.0,0.0,0.0,0.0,0.0,0.0,0.0,0.0,0.0,0.0,0.0,0.0,0.0,0.0,0.0,0.0,0.0,0.122,0.1166,0.1221,0.1134,0.0,0.0,0.0,0.0,0.0,0.0,0.0,0.0,0.0,0.0,0.0,0.0,0.0,0.0,0.0,0.0,0.0,0.0,0.0,0.0,0.0,0.0,0.0,0.0,0.0,0.0,0.0,0.0,0.0,0.0,0.0,0.0,0.0,0.0,0.0,0.0,0.0,0.0,0.0,0.0,0.0,0.0,0.0,0.0,0.0,0.0,0.0,0.0,0.0,0.0,0.0,0.0,0.0,0.0,0.0,0.0,0.0,0.0,0.0,0.0,0.0,0.0,0.0,0.0,0.0,0.0,0.0,0.0,0.0,0.0,0.0,0.0,0.0,0.0,0.0,0.0,0.0,0.0,0.0,0.0,0.0,0.0,0.0,0.0,0.0,0.0,0.0,0.0,0.0,0.0,0.0,0.0,0.0,0.0,0.0,0.0,0.0,0.0,0.0,0.0,0.0,0.0,0.0,0.0,0.0,0.0,0.0,0.0,0.0,0.0,0.1341,0.1287,0.1309,0.1279,0.1261,0.1191,0.0,0.0,0.0,0.0,0.0,0.0,0.0,0.0,0.0,0.0,0.0,0.0,0.0,0.0,0.0,0.0,0.0,0.0,0.0,0.0,0.0,0.0,0.0,0.0,0.0,0.0,0.0,0.0,0.0,0.0,0.0,0.0,0.0,0.0,0.0,0.0,0.0,0.0,0.0,0.0,0.0,0.0,0.0,0.0,0.0,0.0,0.0,0.0,0.0,0.0,0.0,0.0,0.0,0.0,0.0,0.0,0.0,0.0,0.0,0.0,0.0,0.0,0.0,0.0,0.0,0.0,0.0,0.0,0.0,0.0,0.0,0.0,0.0,0.0,0.0,0.0,0.0,0.0,0.0,0.0,0.0,0.0,0.0,0.0,0.0,0.0,0.0,0.0,0.0,0.0,0.0,0.0,0.0,0.0,0.0,0.0,0.0,0.0,0.0,0.0,0.0,0.0,0.0,0.0,0.0,0.0,0.0,0.0,0.1684,0.1653,0.1674,0.1677,0.1492,0.1401,0.0,0.0,0.0,0.0,0.0,0.0,0.0,0.0,0.0,0.0,0.0,0.0,0.0,0.0,0.0,0.0,0.0,0.0,0.0,0.0,0.0,0.0,0.0,0.0,0.0,0.0,0.0,0.0,0.0,0.0,0.0,0.0,0.0,0.0,0.0,0.0,0.0,0.0,0.0,0.0,0.0,0.0,0.0,0.0,0.0,0.0,0.0,0.0,0.0,0.0,0.0,0.0,0.0,0.0,0.0,0.0,0.0,0.0,0.0,0.0,0.0,0.0,0.0,0.0,0.0,0.0,0.0,0.0,0.0,0.0,0.0,0.0,0.0,0.0,0.0,0.0,0.0,0.0,0.0,0.0,0.0,0.0,0.0,0.0,0.0,0.0,0.0,0.0,0.0,0.0,0.0,0.0,0.0,0.0,0.0,0.0,0.0,0.0,0.0,0.0,0.0,0.0,0.0,0.0,0.0,0.0,0.0,0.0,0.0,0.1683,0.1798,0.1823,0.1676,0.1635,0.1542,0.0,0.0,0.0,0.0,0.0,0.0,0.0,0.0,0.0,0.0,0.0,0.0,0.0,0.0,0.0,0.0,0.0,0.0,0.0,0.0,0.0,0.0,0.0,0.0,0.0,0.0,0.0,0.0,0.0,0.0,0.0,0.0,0.0,0.0,0.0,0.0,0.0,0.0,0.0,0.0,0.0,0.0,0.0,0.0,0.0,0.0,0.0,0.0,0.0,0.0,0.0,0.0,0.0,0.0,0.0,0.0,0.0,0.0,0.0,0.0,0.0,0.0,0.0,0.0,0.0,0.0,0.0,0.0,0.0,0.0,0.0,0.0,0.0,0.0,0.0,0.0,0.0,0.0,0.0,0.0,0.0,0.0,0.0,0.0,0.0,0.0,0.0,0.0,0.0,0.0,0.0,0.0,0.0,0.0,0.0,0.0,0.0,0.0,0.0,0.0,0.0,0.0,0.0,0.0,0.0,0.0,0.0,0.0,0.0,0.1867,0.0,0.1992,0.1847,0.1817,0.1729,0.0,0.0,0.0,0.0,0.0,0.0,0.0,0.0,0.0,0.0,0.0,0.0,0.0,0.0,0.0,0.0,0.0,0.0,0.0,0.0,0.0,0.0,0.0,0.0,0.0,0.0,0.0,0.0,0.0,0.0,0.0,0.0,0.0,0.0,0.0,0.0,0.0,0.0,0.0,0.0,0.0,0.0,0.0,0.0,0.0,0.0,0.0,0.0,0.0,0.0,0.0,0.0,0.0,0.0,0.0,0.0,0.0,0.0,0.0,0.0,0.0,0.0,0.0,0.0,0.0,0.0,0.0,0.0,0.0,0.0,0.0,0.0,0.0,0.0,0.0,0.0,0.0,0.0,0.0,0.0,0.0,0.0,0.0,0.0,0.0,0.0,0.0,0.0,0.0,0.0,0.0,0.0,0.0,0.0,0.0,0.0,0.0,0.0,0.0,0.0,0.0,0.0,0.0,0.0,0.0,0.0,0.0,0.0,0.2221,0.2221,0.2291,0.2297,0.2223,0.2022,0.1818,0.0,0.0,0.0,0.0,0.0,0.0,0.0,0.0,0.0,0.0,0.0,0.0,0.0,0.0,0.0,0.0,0.0,0.0,0.0,0.0,0.0,0.0,0.0,0.0,0.0,0.0,0.0,0.0,0.0,0.0,0.0,0.0,0.0,0.0,0.0,0.0,0.0,0.0,0.0,0.0,0.0,0.0,0.0,0.0,0.0,0.0,0.0,0.0,0.0,0.0,0.0,0.0,0.0,0.0,0.0,0.0,0.0,0.0,0.0,0.0,0.0,0.0,0.0,0.0,0.0,0.0,0.0,0.0,0.0,0.0,0.0,0.0,0.0,0.0,0.0,0.0,0.0,0.0,0.0,0.0,0.0,0.0,0.0,0.0,0.0,0.0,0.0,0.0,0.0,0.0,0.0,0.0,0.0,0.0,0.0,0.0,0.0,0.0,0.0,0.0,0.0,0.0,0.0,0.0,0.0,0.0,0.0,0.0,0.0,0.2221,0.2221,0.2221,0.2221,0.2018,0.1816,0.0,0.0,0.0,0.0,0.0,0.0,0.0,0.0,0.0,0.0,0.0,0.0,0.0,0.0,0.0,0.0,0.0,0.0,0.0,0.0,0.0,0.0,0.0,0.0,0.0,0.0,0.0,0.0,0.0,0.0,0.0,0.0,0.0,0.0,0.0,0.0,0.0,0.0,0.0,0.0,0.0,0.0,0.0,0.0,0.0,0.0,0.0,0.0,0.0,0.0,0.0,0.0,0.0,0.0,0.0,0.0,0.0,0.0,0.0,0.0,0.0,0.0,0.0,0.0,0.0,0.0,0.0,0.0,0.0,0.0,0.0,0.0,0.0,0.0,0.0,0.0,0.0,0.0,0.0,0.0,0.0,0.0,0.0,0.0,0.0,0.0,0.0,0.0,0.0,0.0,0.0,0.0,0.0,0.0,0.0,0.0,0.0,0.0,0.0,0.0,0.0,0.0,0.0,0.0,0.0,0.0,0.0,0.0,0.0,0.2117,0.2165,0.2153,0.2085,0.1951,0.1816,0.1614,0.0,0.0,0.0,0.0,0.0,0.0,0.0,0.0,0.0,0.0,0.0,0.0,0.0,0.0,0.0,0.0,0.0,0.0,0.0,0.0,0.0,0.0,0.0,0.0,0.0,0.0,0.0,0.0,0.0,0.0,0.0,0.0,0.0,0.0,0.0,0.0,0.0,0.0,0.0,0.0,0.0,0.0,0.0,0.0,0.0,0.0,0.0,0.0,0.0,0.0,0.0,0.0,0.0,0.0,0.0,0.0,0.0,0.0,0.0,0.0,0.0,0.0,0.0,0.0,0.0,0.0,0.0,0.0,0.0,0.0,0.0,0.0,0.0,0.0,0.0,0.0,0.0,0.0,0.0,0.0,0.0,0.0,0.0,0.0,0.0,0.0,0.0,0.0,0.0,0.0,0.0,0.0,0.0,0.0,0.0,0.0,0.0,0.0,0.0,0.0,0.0,0.0,0.0,0.0,0.0,0.0,0.0,0.0,0.1893,0.2054,0.203,0.1895,0.1827,0.1622,0.0,0.0,0.0,0.0,0.0,0.0,0.0,0.0,0.0,0.0,0.0,0.0,0.0,0.0,0.0,0.0,0.0,0.0,0.0,0.0,0.0,0.0,0.0,0.0,0.0,0.0,0.0,0.0,0.0,0.0,0.0,0.0,0.0,0.0,0.0,0.0,0.0,0.0,0.0,0.0,0.0,0.0,0.0,0.0,0.0,0.0,0.0,0.0,0.0,0.0,0.0,0.0,0.0,0.0,0.0,0.0,0.0,0.0,0.0,0.0,0.0,0.0,0.0,0.0,0.0,0.0,0.0,0.0,0.0,0.0,0.0,0.0,0.0,0.0,0.0,0.0,0.0,0.0,0.0,0.0,0.0,0.0,0.0,0.0,0.0,0.0,0.0,0.0,0.0,0.0,0.0,0.0,0.0,0.0,0.0,0.0,0.0,0.0,0.0,0.0,0.0,0.0,0.0,0.0,0.0,0.0,0.0,0.0,0.0,0.2104,0.149,0.1429,0.1859,0.1714,0.1357,0.0,0.0,0.0,0.0,0.0,0.0,0.0,0.0,0.0,0.0,0.0,0.0,0.0,0.0,0.0,0.0,0.0,0.0,0.0,0.0,0.0,0.0,0.0,0.0,0.0,0.0,0.0,0.0,0.0,0.0,0.0,0.0,0.0,0.0,0.0,0.0,0.0,0.0,0.0,0.0,0.0,0.0,0.0,0.0,0.0,0.0,0.0,0.0,0.0,0.0,0.0,0.0,0.0,0.0,0.0,0.0,0.0,0.0,0.0,0.0,0.0,0.0,0.0,0.0,0.0,0.0,0.0,0.0,0.0,0.0,0.0,0.0,0.0,0.0,0.0,0.0,0.0,0.0,0.0,0.0,0.0,0.0,0.0,0.0,0.0,0.0,0.0,0.0,0.0,0.0,0.0,0.0,0.0,0.0,0.0,0.0,0.0,0.0,0.0,0.0,0.0,0.0,0.0,0.0,0.0,0.0,0.0,0.0,0.1792,0.1594,0.0955,0.0744,0.0903,0.0884,0.0656,0.0,0.0,0.0,0.0,0.0,0.0,0.0,0.0,0.0,0.0,0.0,0.0,0.0,0.0,0.0,0.0,0.0,0.0,0.0,0.0,0.0,0.0,0.0,0.0,0.0,0.0,0.0,0.0,0.0,0.0,0.0,0.0,0.0,0.0,0.0,0.0,0.0,0.0,0.0,0.0,0.0,0.0,0.0,0.0,0.0,0.0,0.0,0.0,0.0,0.0,0.0,0.0,0.0,0.0,0.0,0.0,0.0,0.0,0.0,0.0,0.0,0.0,0.0,0.0,0.0,0.0,0.0,0.0,0.0,0.0,0.0,0.0,0.0,0.0,0.0,0.0,0.0,0.0,0.0,0.0,0.0,0.0,0.0,0.0,0.0,0.0,0.0,0.0,0.0,0.0,0.0,0.0,0.0,0.0,0.0,0.0,0.0,0.0,0.0,0.0,0.0,0.0,0.0,0.0,0.0,0.0,0.0,0.0,0.1407,0.0681,0.0381,-0.0,-0.047,-0.0301,-0.022,0.0,0.0,0.0,0.0,0.0,0.0,0.0,0.0,0.0,0.0,0.0,0.0,0.0,0.0,0.0,0.0,0.0,0.0,0.0,0.0,0.0,0.0,0.0,0.0,0.0,0.0,0.0,0.0,0.0,0.0,0.0,0.0,0.0,0.0,0.0,0.0,0.0,0.0,0.0,0.0,0.0,0.0,0.0,0.0,0.0,0.0,0.0,0.0,0.0,0.0,0.0,0.0,0.0,0.0,0.0,0.0,0.0,0.0,0.0,0.0,0.0,0.0,0.0,0.0,0.0,0.0,0.0,0.0,0.0,0.0,0.0,0.0,0.0,0.0,0.0,0.0,0.0,0.0,0.0,0.0,0.0,0.0,0.0,0.0,0.0,0.0,0.0,0.0,0.0,0.0,0.0,0.0,0.0,0.0,0.0,0.0,0.0,0.0,0.0,0.0,0.0,0.0,0.0,0.0,0.0,0.0,0.0,0.0,0.0904,0.0454,-0.0157,-0.0717,-0.11,-0.1089,-0.1083,0.0,0.0,0.0,0.0,0.0,0.0,0.0,0.0,0.0,0.0,0.0,0.0,0.0,0.0,0.0,0.0,0.0,0.0,0.0,0.0,0.0,0.0,0.0,0.0,0.0,0.0,0.0,0.0,0.0,0.0,0.0,0.0,0.0,0.0,0.0,0.0,0.0,0.0,0.0,0.0,0.0,0.0,0.0,0.0,0.0,0.0,0.0,0.0,-0.8633,0.0,0.0,0.0,0.0,0.0,0.0,0.0,0.0,0.0,0.0,0.0,0.0,0.0,0.0,0.0,0.0,0.0,0.0,0.0,0.0,0.0,0.0,0.0,0.0,0.0,0.0,0.0,0.0,0.0,0.0,0.0,0.0,0.0,0.0,0.0,0.0,0.0,0.0,0.0,0.0,0.0,0.0,0.0,0.0,0.0,0.0,0.0,0.0,0.0,0.0,0.0,0.0,0.0,0.0,0.0,0.0,0.0,0.0,0.0,0.0154,-0.0386,-0.079,-0.1114,-0.1258,-0.1336,-0.1336,0.0,0.0,0.0,0.0,0.0,0.0,0.0,0.0,0.0,0.0,0.0,0.0,0.0,0.0,0.0,0.0,0.0,0.0,0.0,0.0,0.0,0.0,0.0,0.0,0.0,0.0,0.0,0.0,0.0,0.0,0.0,0.0,0.0,0.0,0.0,0.0,0.0,0.0,0.0,0.0,0.0,0.0,0.0,0.0,0.0,0.0,0.0,0.0,0.0,0.0,0.0,0.0,0.0,0.0,0.0,0.0,0.0,0.0,0.0,0.0,0.0,0.0,0.0,0.0,0.0,0.0,0.0,0.0,0.0,0.0,0.0,0.0,0.0,0.0,0.0,0.0,0.0,0.0,0.0,0.0,0.0,0.0,0.0,0.0,0.0,0.0,0.0,0.0,0.0,0.0,0.0,0.0,0.0,0.0,0.0,0.0,0.0,0.0,0.0,0.0,0.0,0.0,0.0,0.0,0.0,0.0,0.0,0.0155,-0.0471,-0.1258,-0.1341,-0.1341,-0.1336,-0.1341,-0.1341,-0.1335,0.0,0.0,0.0,0.0,0.0,0.0,0.0,0.0,0.0,0.0,0.0,0.0,0.0,0.0,0.0,0.0,0.0,0.0,0.0,0.0,0.0,0.0,0.0,0.0,0.0,0.0,0.0,0.0,0.0,0.0,0.0,0.0,0.0,0.0,0.0,0.0,0.0,0.0,-0.7792,-0.8188,0.0,0.0,0.0,0.0,0.0,0.0,0.0,0.0,-0.8703,0.0,0.0,0.0,0.0,0.0,0.0,0.0,0.0,0.0,0.0,0.0,0.0,0.0,0.0,0.0,0.0,0.0,0.0,0.0,0.0,0.0,0.0,0.0,0.0,0.0,0.0,0.0,0.0,0.0,0.0,0.0,0.0,0.0,0.0,0.0,0.0,0.0,0.0,0.0,0.0,0.0,0.0,0.0,0.0,0.0,0.0,0.0,0.0,0.0,0.0,0.0,0.0,0.0,0.0,0.0,0.0,0.0624,-0.0157,-0.0786,-0.1258,-0.1282,-0.1283,-0.1338,-0.1282,-0.1284,-0.1335,0.0,0.0,0.0,0.0,0.0,0.0,0.0,0.0,0.0,0.0,0.0,0.0,0.0,0.0,0.0,0.0,0.0,0.0,0.0,0.0,0.0,0.0,0.0,0.0,0.0,0.0,0.0,0.0,0.0,0.0,0.0,0.0,0.0,0.0,0.0,0.0,0.0,0.0,0.0,-0.8392,-0.8661,0.0,0.0,0.0,0.0,0.0,0.0,0.0,0.0,-0.8703,0.0,0.0,0.0,0.0,0.0,0.0,0.0,0.0,0.0,0.0,0.0,0.0,0.0,0.0,0.0,0.0,0.0,0.0,0.0,0.0,0.0,0.0,0.0,0.0,0.0,0.0,0.0,0.0,0.0,0.0,0.0,0.0,0.0,0.0,0.0,0.0,0.0,0.0,0.0,0.0,0.0,0.0,0.0,0.0,0.0,0.0,0.0,0.0,0.0,0.0,0.0,0.0,0.0,0.0,0.0,0.0078,-0.0629,-0.11,-0.1336,-0.1351,-0.1351,-0.1336,-0.1351,-0.1352,0.0,0.0,0.0,0.0,0.0,0.0,0.0,0.0,0.0,0.0,0.0,0.0,0.0,0.0,0.0,0.0,0.0,0.0,0.0,0.0,0.0,0.0,0.0,0.0,0.0,0.0,0.0,0.0,0.0,0.0,0.0,0.0,0.0,0.0,0.0,0.0,0.0,0.0,0.0,0.0,-0.851,-0.8703,-0.8703,0.0,0.0,0.0,0.0,0.0,0.0,-0.8627,-0.8551,0.0,0.0,0.0,0.0,0.0,0.0,0.0,0.0,0.0,0.0,0.0,0.0,0.0,0.0,0.0,0.0,0.0,0.0,0.0,0.0,0.0,0.0,0.0,0.0,0.0,0.0,0.0,0.0,0.0,0.0,0.0,0.0,0.0,0.0,0.0,0.0,0.0,0.0,0.0,0.0,0.0,0.0,0.0,0.0,0.0,0.0,0.0,0.0,0.0,0.0,0.0,0.0,0.0,0.0,0.0,-0.055,-0.1022,-0.1336,-0.1336,-0.1336,-0.1336,-0.1336,-0.1336,-0.1336,0.0,0.0,0.0,0.0,0.0,0.0,0.0,0.0,0.0,0.0,0.0,0.0,0.0,0.0,0.0,0.0,0.0,0.0,0.0,0.0,0.0,0.0,0.0,0.0,0.0,0.0,0.0,0.0,0.0,0.0,0.0,0.0,0.0,0.0,0.0,0.0,0.0,0.0,0.0,0.0,0.0,-0.8627,-0.8627,-0.8627,0.0,0.0,0.0,0.0,-0.8551,-0.8479,0.0,0.0,0.0,0.0,0.0,0.0,0.0,0.0,0.0,0.0,0.0,0.0,0.0,0.0,0.0,0.0,0.0,0.0,0.0,0.0,0.0,0.0,0.0,0.0,0.0,0.0,0.0,0.0,0.0,0.0,0.0,0.0,0.0,0.0,0.0,0.0,0.0,0.0,0.0,0.0,0.0,0.0,0.0,0.0,0.0,0.0,0.0,0.0,0.0,0.0,0.0,0.0,0.0,0.0,0.0,0.0,-0.1179,-0.1258,-0.1336,-0.1336,-0.1336,-0.1336,-0.1336,-0.1336,-0.1336,0.0,0.0,0.0,0.0,0.0,0.0,0.0,0.0,0.0,0.0,0.0,0.0,0.0,0.0,0.0,0.0,0.0,0.0,0.0,0.0,0.0,0.0,0.0,0.0,0.0,0.0,0.0,0.0,0.0,0.0,0.0,0.0,0.0,0.0,0.0,0.0,0.0,0.0,0.0,0.0,0.0,-0.8255,-0.8322,-0.825,-0.8178,0.0,0.0,-0.8178,-0.8178,-0.8178,0.0,0.0,0.0,0.0,0.0,0.0,0.0,0.0,0.0,0.0,0.0,0.0,0.0,0.0,0.0,0.0,0.0,0.0,0.0,0.0,0.0,0.0,0.0,0.0,0.0,0.0,0.0,0.0,0.0,0.0,0.0,0.0,0.0,0.0,0.0,0.0,0.0,0.0,0.0,0.0,0.0,0.0,0.0,0.0,0.0,0.0,0.0,0.0,0.0,0.0,0.0,0.0,0.0,0.0,0.0,-0.055,-0.1258,-0.1336,-0.1336,-0.1336,-0.1336,-0.1336,-0.1336,-0.1336,-0.1336,0.0,0.0,0.0,0.0,0.0,0.0,0.0,0.0,0.0,0.0,0.0,0.0,0.0,0.0,0.0,0.0,0.0,0.0,0.0,0.0,0.0,0.0,0.0,0.0,0.0,0.0,0.0,0.0,0.0,0.0,0.0,0.0,0.0,0.0,0.0,0.0,0.0,0.0,0.0,0.0,0.0,0.0,-0.8093,-0.8102,0.0,0.0,0.0,-0.8102,-0.8102,0.0,0.0,0.0,0.0,0.0,0.0,0.0,0.0,0.0,0.0,0.0,0.0,0.0,0.0,0.0,0.0,0.0,0.0,0.0,0.0,0.0,0.0,0.0,0.0,0.0,0.0,0.0,0.0,0.0,0.0,0.0,0.0,0.0,0.0,0.0,0.0,0.0,0.0,0.0,0.0,0.0,0.0,0.0,0.0,0.0,0.0,0.0,0.0,0.0,0.0,0.0,0.0,0.0,0.0,0.0,0.0,0.0,-0.1258,-0.1336,-0.1336,-0.1336,-0.1336,-0.1336,-0.1336,-0.1336,0.0,0.0,0.0,0.0,0.0,0.0,0.0,0.0,0.0,0.0,0.0,0.0,0.0,0.0,0.0,0.0,0.0,0.0,0.0,0.0,0.0,0.0,0.0,0.0,0.0,0.0,0.0,-0.2882,0.0,0.0,0.0,0.0,0.0,0.0,0.0,0.0,0.0,0.0,0.0,0.0,0.0,0.0,-0.7949,-0.7787,-0.7868,-0.7966,0.0,0.0,-0.8022,-0.8022,-0.7871,-0.7781,0.0,0.0,0.0,0.0,0.0,0.0,0.0,0.0,0.0,0.0,0.0,0.0,0.0,0.0,0.0,0.0,0.0,0.0,0.0,0.0,0.0,0.0,0.0,0.0,0.0,0.0,0.0,0.0,0.0,0.0,0.0,0.0,0.0,0.0,0.0,0.0,0.0,0.0,0.0,0.0,0.0,0.0,0.0,0.0,0.0,0.0,0.0,0.0,0.0,0.0,0.0,0.0,0.0,0.0,-0.1258,-0.1336,-0.1336,-0.1336,-0.1336,-0.1336,-0.1336,-0.1336,-0.1336,-0.1336,0.0,0.0,0.0,0.0,0.0,0.0,0.0,0.0,0.0,0.0,0.0,0.0,0.0,0.0,0.0,0.0,0.0,0.0,0.0,0.0,0.0,0.0,0.0,0.0,0.0,0.0,0.0,0.0,0.0,0.0,0.0,0.0,0.0,0.0,0.0,0.0,0.0,0.0,0.0,0.0,0.0,-0.7561,-0.7557,-0.7557,-0.7622,0.0,-0.7819,-0.7819,-0.7823,-0.7819,-0.7762,-0.7512,0.0,0.0,0.0,0.0,0.0,0.0,0.0,0.0,0.0,0.0,0.0,0.0,0.0,0.0,0.0,0.0,0.0,0.0,0.0,0.0,0.0,0.0,0.0,0.0,0.0,0.0,0.0,0.0,0.0,0.0,0.0,0.0,0.0,0.0,0.0,0.0,0.0,0.0,0.0,0.0,0.0,0.0,0.0,0.0,0.0,0.0,0.0,0.0,0.0,0.0,0.0,0.0,0.0,-0.1336,-0.1336,-0.1336,-0.1336,-0.1336,-0.1336,-0.1336,-0.1336,-0.1336,-0.1336,0.0,0.0,0.0,0.0,0.0,0.0,0.0,0.0,0.0,0.0,0.0,0.0,0.0,0.0,0.0,0.0,0.0,0.0,0.0,0.0,0.0,0.0,0.0,0.0,0.0,0.0,0.0,0.0,-0.3292,-0.3682,-0.4229,0.0,0.0,0.0,0.0,0.0,0.0,0.0,0.0,0.0,0.0,-0.7655,-0.7655,-0.7744,0.0,0.0,-0.7918,-0.7882,-0.7776,-0.784,-0.7695,-0.7512,-0.748,0.0,0.0,0.0,0.0,0.0,0.0,0.0,0.0,0.0,0.0,0.0,0.0,0.0,0.0,0.0,0.0,0.0,0.0,0.0,0.0,0.0,0.0,0.0,0.0,0.0,0.0,0.0,0.0,0.0,0.0,0.0,0.0,0.0,0.0,0.0,0.0,0.0,0.0,0.0,0.0,0.0,0.0,0.0,0.0,0.0,0.0,0.0,0.0,0.0,0.0,0.0,0.0,-0.1351,-0.1351,-0.1341,-0.1336,-0.1336,-0.1336,-0.1336,-0.1336,-0.1336,-0.1336,0.0,0.0,0.0,0.0,0.0,0.0,0.0,0.0,0.0,0.0,0.0,0.0,0.0,0.0,0.0,0.0,0.0,0.0,0.0,0.0,0.0,0.0,0.0,0.0,0.0,0.0,0.0,0.0,-0.3387,-0.3759,-0.4307,0.0,0.0,0.0,0.0,0.0,0.0,0.0,0.0,0.0,0.0,-0.786,-0.7914,-0.7939,-0.8028,-0.8089,-0.8097,-0.8057,-0.7935,-0.7918,-0.7837,-0.7602,0.0,0.0,0.0,0.0,0.0,0.0,0.0,0.0,0.0,0.0,0.0,0.0,0.0,0.0,0.0,0.0,0.0,0.0,0.0,0.0,0.0,0.0,0.0,0.0,0.0,0.0,0.0,0.5355,0.0,0.0,0.536,0.0,0.0,0.0,0.0,0.0,0.0,0.0,0.0,0.0,0.0,0.0,0.0,0.0,0.0,0.0,0.0,0.0,0.0,0.0,0.0,0.0,0.0,-0.1302,-0.1302,-0.1274,-0.1337,-0.1337,-0.1336,-0.1336,-0.1336,-0.1336,-0.1336,-0.1336,0.0,0.0,0.0,0.0,0.0,0.0,0.0,0.0,0.0,0.0,0.0,0.0,0.0,0.0,0.0,0.0,0.0,0.0,0.0,0.0,0.0,0.0,0.0,0.0,0.0,0.0,-0.3165,-0.374,-0.4155,0.0,0.0,0.0,0.0,0.0,0.0,0.0,0.0,0.0,-0.7478,-0.7676,-0.7905,-0.8156,-0.8102,-0.8097,-0.8264,-0.8288,-0.8284,-0.8276,-0.8272,-0.8162,0.0,0.0,0.0,0.0,0.0,0.0,0.0,0.0,0.0,0.0,0.0,0.0,0.0,0.0,0.0,0.0,0.0,0.0,0.0,0.0,0.0,0.0,0.0,0.0,0.0,0.0,0.0,0.5725,0.5494,0.0,0.0,0.0,0.0,0.0,0.0,0.0,0.0,0.0,0.0,0.0,0.3142,0.2333,0.0,0.0,0.0,0.0,0.0,0.0,0.0,0.0,0.0,0.0,0.0,0.0,-0.1333,-0.1331,-0.1303,-0.1288,-0.1287,-0.1346,-0.1336,-0.1336,-0.1336,-0.1336,-0.1336,0.0,0.0,0.0,0.0,0.0,0.0,0.0,0.0,0.0,0.0,0.0,0.0,0.0,0.0,0.0,0.0,0.0,0.0,0.0,0.0,0.0,0.0,0.0,0.0,0.0,-0.2828,0.0,0.0,0.0,0.0,0.0,0.0,0.0,0.0,0.0,0.0,-0.759,-0.7687,-0.7501,-0.7877,-0.8134,-0.8191,-0.8402,-0.8572,0.0,0.0,0.0,0.0,0.0,0.0,0.0,0.0,0.0,0.0,0.0,0.0,0.0,0.0,-0.8093,-0.8024,-0.8012,-0.7996,-0.7939,0.0,0.0,0.0,0.0,0.0,0.0,0.0,0.0,0.0,0.0,0.0,0.0,0.0,0.0,0.5974,0.5565,0.556,0.0,0.0,0.0,0.0,0.0,0.0,0.0,0.0,0.3136,0.2781,0.2334,0.1705,0.1436,0.1347,0.0898,0.1167,0.0,0.0,0.0,0.0,0.0,0.0,0.0,0.0,-0.1363,-0.1361,-0.1333,-0.1318,-0.1318,-0.1299,-0.1289,-0.1289,-0.1279,-0.1347,-0.1336,-0.1346,-0.1273,0.0,0.0,0.0,0.0,0.0,0.0,0.0,0.0,0.0,0.0,0.0,0.0,0.0,0.0,0.0,0.0,0.0,0.0,0.0,0.0,0.0,0.0,0.0,-0.2968,0.0,0.0,0.0,0.0,0.0,0.0,0.0,0.0,0.0,-0.7586,-0.7683,-0.7801,-0.7675,-0.8058,-0.8312,-0.8373,0.0,0.0,0.0,0.0,0.0,0.0,0.0,-0.8414,-0.8235,-0.8256,-0.8316,-0.8377,-0.8574,-0.8702,-0.864,0.0,0.0,-0.8251,-0.8203,-0.8187,-0.7955,-0.7943,-0.7927,-0.7781,-0.7604,-0.7525,0.0,0.0,0.0,0.0,0.5907,0.0,0.0,0.0,0.6289,0.61,0.0,0.5711,0.0,0.0,0.0,0.0,0.4312,0.3952,0.0,0.0,0.2521,0.2069,0.1439,0.135,0.135,0.1351,0.0902,0.0902,0.1352,0.135,0.0,0.0,0.0,0.0,0.0,0.0,-0.1393,-0.1391,-0.1364,-0.1349,-0.1349,-0.1348,-0.1348,-0.1346,-0.1319,-0.129,-0.1343,-0.1289,-0.1304,-0.1305,-0.1333,0.0,0.0,0.0,0.0,0.0,0.0,0.0,0.0,0.0,0.0,0.0,0.0,0.0,0.0,0.0,0.0,0.0,0.0,0.0,0.0,-0.3255,0.0,0.0,0.0,0.0,0.0,0.0,0.0,0.0,0.0,-0.771,-0.7805,-0.7784,-0.7898,-0.7974,0.0,0.0,0.0,0.0,-0.884,-0.8844,-0.8991,-0.9043,-0.8869,-0.8832,-0.8767,-0.8609,0.0,0.0,-0.906,-0.9088,-0.9072,-0.9092,-0.9068,-0.8986,-0.8645,-0.858,-0.8444,-0.8025,-0.7912,-0.7754,-0.7446,-0.7552,-0.7621,0.6246,0.0,0.0,0.0,0.0,0.6029,0.6085,0.6123,0.5912,0.5801,0.5825,0.5637,0.0,0.0,0.0,0.0,0.0,0.0,0.2997,0.2626,0.2345,0.197,0.1406,0.075,0.0375,0.0375,0.0281,0.0281,0.0375,0.0375,-0.0185,-0.1346,0.0,0.0,0.0,0.0,-0.1423,-0.1421,-0.1393,-0.1378,-0.1378,-0.1358,-0.1348,-0.1348,-0.1339,-0.1331,-0.1322,-0.1331,-0.1335,-0.1335,-0.1363,0.0,0.0,0.0,0.0,0.0,0.0,0.0,0.0,0.0,0.0,0.0,0.0,0.0,0.0,0.0,0.0,0.0,0.0,0.0,-0.2813,-0.3053,-0.327,0.0,0.0,0.0,0.0,0.0,0.0,0.0,0.0,0.0,-0.8126,-0.8138,-0.809,0.0,0.0,-0.869,-0.8926,-0.9107,-0.9202,-0.9202,-0.925,0.0,-0.9214,-0.9096,-0.9003,-0.8954,-0.8986,-0.9039,-0.9088,-0.9291,-0.9389,-0.9194,-0.8995,-0.8773,-0.8686,-0.8658,-0.8547,-0.8322,-0.8219,-0.8117,-0.8072,-0.797,-0.7753,0.6567,0.6361,0.6268,0.6255,0.6304,0.6171,0.6132,0.6284,0.5838,0.5498,0.5202,0.5209,0.4937,0.433,0.4014,0.0,0.0,0.0,0.2671,0.2386,0.2004,0.1717,0.1335,0.0477,-0.0,-0.0,-0.0,-0.0,-0.0,-0.0477,-0.0754,-0.1196,0.0,-0.1472,-0.1471,-0.1472,-0.1472,-0.147,-0.1453,-0.1438,-0.1425,-0.1398,-0.1377,-0.1365,-0.1365,-0.1359,-0.1348,-0.1358,-0.1365,-0.1365,-0.1393,-0.1408,0.0,0.0,0.0,0.0,0.0,0.0,0.0,0.0,0.0,0.0,0.0,-0.2875,-0.2875,0.0,0.0,0.0,-0.2875,-0.286,-0.2823,-0.308,0.0,0.0,0.0,0.0,0.0,0.0,0.0,-0.7384,-0.7804,-0.8183,-0.8385,-0.8402,-0.8336,-0.8222,-0.8593,-0.8943,-0.9209,0.0,-0.9356,-0.9356,-0.9413,-0.9437,-0.9364,-0.9271,-0.9202,-0.9202,-0.9267,-0.9303,-0.9307,-0.9507,-0.9507,-0.9216,-0.9017,-0.8821,-0.8622,-0.853,-0.8482,-0.8179,-0.8153,-0.8153,-0.8063,-0.7875,-0.7754,0.6831,0.6812,0.6597,0.6556,0.6632,0.6318,0.6279,0.6381,0.6061,0.516,0.4148,0.4669,0.438,0.3448,0.309,0.0,0.2873,0.2588,0.2398,0.2109,0.1629,0.1341,0.1246,0.0383,-0.0,-0.0,-0.0,-0.0096,-0.0,-0.115,-0.1341,-0.0862,-0.1246,-0.1531,-0.1526,-0.1525,-0.1526,-0.1526,-0.1525,-0.1513,-0.1485,-0.1455,-0.1425,-0.1398,-0.1395,-0.1382,-0.1272,-0.138,-0.1393,-0.1395,-0.1421,-0.1436,-0.1436,0.0,0.0,0.0,0.0,0.0,0.0,0.0,0.0,0.0,0.0,0.0,0.0,0.0,0.0,0.0,-0.2875,0.0,-0.2875,-0.332,0.0,0.0,0.0,-0.4837,-0.5371,-0.5988,-0.6694,-0.7401,0.0,0.0,-0.8568,-0.8568,-0.8545,-0.8627,-0.8746,-0.9005,-0.9486,-0.9465,-0.938,-0.9388,-0.9518,-0.9567,-0.9421,-0.938,-0.9376,-0.938,-0.9518,-0.9604,-0.9505,-0.9509,-0.9422,-0.9213,-0.9133,-0.9027,-0.8531,-0.8407,-0.8245,-0.7974,-0.7925,-0.7827,-0.7746,-0.7658,-0.7655,0.707,0.7065,0.701,0.6899,0.676,0.6653,0.6566,0.6275,0.5739,0.509,0.4439,0.465,0.4283,0.3275,0.2812,0.249,0.2393,0.2294,0.2094,0.1695,0.1596,0.1097,0.0299,0.01,-0.0,-0.0,-0.0,-0.0399,-0.1196,-0.1495,-0.1595,-0.1396,-0.1495,-0.1572,-0.1528,-0.1526,-0.1526,-0.1526,-0.1526,-0.1523,-0.1515,-0.1392,-0.1467,-0.1459,-0.1437,-0.1422,-0.1415,-0.1421,-0.1425,-0.1425,-0.1431,-0.1436,-0.1436,-0.1436,0.0,0.0,0.0,0.0,0.0,0.0,0.0,0.0,0.0,-0.2694,-0.2875,0.0,-0.2875,0.0,-0.2875,-0.2875,-0.2875,-0.3141,0.0,0.0,-0.4123,-0.4659,-0.5371,-0.5988,-0.6605,-0.7139,-0.7672,-0.8028,-0.8032,-0.8204,-0.8407,-0.8598,-0.8838,-0.9189,-0.9564,-0.955,-0.9563,-0.9563,-0.9596,-0.9612,-0.9567,-0.9563,-0.9559,-0.9563,-0.9608,-0.9541,-0.9335,-0.913,-0.8924,-0.8924,-0.873,-0.8531,-0.8432,-0.8237,-0.8117,-0.7946,-0.7933,-0.7933,-0.7933,-0.7929,-0.7896,0.7317,0.7317,0.7315,0.7241,0.7114,0.7008,0.6745,0.6426,0.566,0.4984,0.4303,0.3953,0.3494,0.2939,0.2389,0.2069,0.1966,0.1656,0.1346,0.0932,0.0932,0.0518,-0.0,-0.0,-0.0,-0.0,-0.0,-0.0505,-0.1516,-0.1617,-0.1617,-0.1617,-0.1617,-0.16,-0.1568,-0.1566,-0.1566,-0.1566,-0.1553,-0.1547,-0.1545,-0.1517,-0.1494,-0.1481,-0.1464,-0.1449,-0.1436,-0.1436,-0.1436,-0.1436,-0.1436,-0.1436,-0.1436,-0.1436,-0.1436,0.0,0.0,0.0,0.0,0.0,0.0,0.0,0.0,0.0,0.0,0.0,-0.2785,-0.2875,-0.2875,-0.2875,-0.2875,-0.3051,-0.3315,-0.3585,-0.3944,-0.4391,-0.5015,-0.5636,-0.6169,-0.6612,-0.7143,-0.7584,-0.7672,-0.8004,-0.8234,-0.8586,-0.8785,-0.9088,-0.9546,-0.9567,-0.9624,-0.9624,-0.9624,-0.9525,-0.943,-0.9327,-0.9225,-0.9229,-0.9438,-0.9446,-0.9133,-0.8722,-0.8517,-0.8627,-0.8528,-0.8333,-0.8233,-0.8137,-0.8038,-0.8038,-0.8038,-0.8038,-0.8038,-0.8038,-0.8011,0.7519,0.7519,0.7519,0.7519,0.7502,0.729,0.6982,0.6539,0.5732,0.4895,0.4054,0.3124,0.2674,0.2672,0.2026,0.1704,0.1704,0.1173,0.0533,-0.0,-0.0,-0.0,-0.0,-0.0,-0.0,-0.0,-0.0,-0.0508,-0.1522,-0.1623,-0.1621,-0.1617,-0.1617,-0.1617,-0.1617,-0.1617,-0.1617,-0.1616,-0.1591,-0.1577,-0.1577,-0.1548,-0.1612,-0.1488,-0.1483,-0.1466,-0.1437,-0.1436,-0.1436,-0.1436,-0.1436,-0.1436,-0.1436,-0.1439,-0.1441,0.0,-0.147,0.0,0.0,0.0,0.0,0.0,0.0,0.0,0.0,-0.2373,-0.2612,-0.2875,-0.2875,-0.2875,-0.2875,-0.305,-0.3227,-0.3496,-0.3676,-0.4036,-0.4572,-0.5015,-0.5549,-0.5994,-0.6627,-0.7078,-0.7354,-0.7757,-0.8103,-0.8363,-0.8592,-0.8829,-0.9288,-0.9422,-0.9426,-0.9525,-0.9529,-0.9327,-0.9133,-0.8931,-0.8825,-0.8829,-0.9133,-0.9244,-0.8829,-0.8319,-0.8117,-0.8329,-0.8333,-0.8233,-0.8038,-0.8038,-0.8038,-0.7942,-0.7939,-0.7939,-0.7939,-0.8038,-0.8038,0.7519,0.7519,0.7519,0.7519,0.7516,0.7467,0.7104,0.6517,0.5737,0.5087,0.4344,0.3615,0.3156,0.2937,0.236,0.1918,0.1704,0.1598,0.0959,-0.0,-0.0,-0.0,-0.0,-0.0,-0.0,-0.0,-0.0,-0.0314,-0.093,-0.1344,-0.1539,-0.1618,-0.1617,-0.1617,-0.1617,0.0,0.0,0.0,-0.1611,-0.1608,-0.1607,-0.1579,-0.1548,-0.1518,-0.1493,0.0,-0.1438,-0.1436,-0.1436,-0.1436,-0.1436,0.0,0.0,0.0,0.0,0.0,0.0,0.0,0.0,0.0,0.0,0.0,-0.1625,-0.1794,-0.218,-0.2422,-0.2651,-0.288,-0.2875,-0.2875,-0.2875,-0.2963,-0.3051,-0.3227,-0.3317,-0.3585,-0.43,-0.4661,-0.5104,-0.5725,-0.6172,-0.6512,-0.6788,-0.7273,-0.7701,-0.7928,-0.8283,-0.8653,-0.87,-0.8924,-0.8924,-0.8924,-0.9023,-0.8928,-0.8928,-0.8829,-0.8726,-0.8825,-0.8733,-0.8737,-0.8531,-0.8233,-0.8031,-0.8137,-0.8041,-0.8038,-0.8038,-0.8038,-0.7939,-0.7743,-0.7646,-0.7746,-0.7939,-0.8038,-0.8038,0.7693,0.769,0.769,0.769,0.0,0.7693,0.7454,0.6963,0.5977,0.5289,0.4763,0.3936,0.3458,0.3321,0.2744,0.2296,0.1968,0.1859,0.1422,0.0875,0.0219,-0.0,-0.0,-0.0,-0.0,-0.0,-0.0,-0.0319,-0.0842,-0.1369,-0.1669,-0.1639,-0.164,-0.1632,-0.1618,-0.1617,-0.1617,-0.1617,-0.1617,-0.1617,-0.1616,-0.1602,-0.1579,-0.1549,-0.1519,0.0,0.0,0.0,0.0,0.0,0.0,0.0,0.0,-0.1472,0.0,-0.1503,-0.1532,-0.1549,-0.1549,-0.1562,-0.1577,-0.1592,-0.158,-0.1753,-0.2198,-0.2364,-0.261,-0.2922,-0.2916,-0.2903,-0.2877,-0.2875,-0.2976,-0.3181,-0.3278,-0.3472,-0.3966,-0.4344,-0.471,-0.5078,-0.5583,-0.6084,-0.6273,-0.6759,-0.7149,-0.7424,-0.7784,-0.815,-0.8117,-0.8531,-0.8825,-0.8825,-0.8726,-0.863,-0.8627,-0.8432,-0.8428,-0.8432,-0.8336,-0.8237,-0.8237,-0.8038,-0.8038,-0.7939,-0.7942,-0.7842,-0.7743,-0.7739,-0.7537,-0.7441,-0.7441,-0.7441,-0.7537,-0.7637,-0.7637,0.7872,0.7872,0.7872,0.7872,0.7872,0.7872,0.775,0.7373,0.6448,0.0,0.0,0.4269,0.3889,0.3717,0.3155,0.2701,0.2356,0.2019,0.1907,0.1795,0.0785,0.0224,-0.0,-0.0,-0.0,-0.0,-0.0,-0.0322,-0.0857,-0.1394,-0.1699,-0.1672,-0.1665,-0.1647,-0.1619,-0.1617,-0.1617,-0.1617,-0.1617,-0.1617,-0.1617,-0.1617,-0.1602,-0.1573,-0.1547,-0.1519,-0.149,-0.146,-0.1443,-0.1443,-0.1443,-0.1455,-0.1479,-0.1491,-0.1508,-0.1532,-0.1562,-0.1579,-0.158,-0.1603,-0.1617,-0.1617,-0.1617,-0.1793,-0.2212,-0.2206,-0.2376,-0.2885,-0.2974,-0.2955,-0.2909,-0.2906,-0.3015,-0.325,-0.3254,-0.337,-0.3706,-0.4096,-0.4371,-0.4571,-0.5052,-0.5541,-0.5834,-0.6313,-0.6683,-0.6997,-0.7368,-0.7543,-0.754,-0.8134,-0.863,-0.8627,-0.8432,-0.8333,-0.8333,-0.8137,-0.8038,-0.8038,-0.8038,-0.8038,-0.8038,-0.7942,-0.7942,-0.7939,-0.7743,-0.7543,-0.7543,-0.7338,-0.7235,-0.7138,-0.7138,-0.7138,-0.7039,-0.7036,-0.7135,0.7872,0.7872,0.7872,0.7872,0.7872,0.7872,0.7875,0.775,0.6647,0.5827,0.5163,0.5046,0.4652,0.4125,0.3781,0.3409,0.2915,0.2355,0.2019,0.1795,0.1683,0.1009,-0.0,-0.0,-0.0,-0.0,-0.0,-0.0332,-0.0873,-0.1525,-0.1728,-0.1699,-0.1674,-0.1647,-0.162,-0.1617,-0.1617,-0.1617,-0.1617,-0.1617,-0.1617,-0.1617,-0.1603,-0.1573,-0.1568,-0.1551,-0.1521,-0.1491,-0.1474,-0.1474,-0.1474,-0.1476,-0.1482,-0.153,-0.1561,-0.1566,-0.1594,-0.1611,-0.161,-0.1615,-0.1617,-0.1617,-0.1617,-0.1702,-0.1961,-0.1957,-0.2134,-0.2568,-0.2655,-0.2749,-0.3025,-0.3021,-0.3021,-0.313,-0.3132,-0.3232,-0.3437,-0.3534,-0.3822,-0.4395,-0.464,-0.5079,-0.5472,-0.6041,-0.6401,-0.6509,-0.6921,-0.7238,-0.7338,-0.7739,-0.8038,-0.8137,-0.8038,-0.8038,-0.8038,-0.8038,-0.8031,-0.8038,-0.7939,-0.7939,-0.7939,-0.7842,-0.7646,-0.7643,-0.7441,-0.7238,-0.7238,-0.7235,-0.7039,-0.6842,-0.6842,-0.6742,-0.6539,-0.6537,-0.6634,0.7932,0.7875,0.7872,0.7872,0.7872,0.7872,0.7875,0.7877,0.721,0.6524,0.5841,0.5362,0.5081,0.4662,0.4191,0.3807,0.3408,0.2954,0.2489,0.202,0.1907,0.1458,0.1009,0.0336,-0.0,-0.0,-0.0,-0.0335,-0.0887,-0.1552,-0.1759,-0.1728,-0.1685,-0.1655,-0.1641,-0.1625,-0.1617,-0.1617,-0.1617,-0.1617,-0.1617,-0.1617,-0.161,-0.1596,-0.1581,-0.1565,-0.1551,-0.1521,-0.1505,-0.1506,-0.1506,-0.1513,-0.153,-0.1556,-0.1579,-0.1595,-0.1609,-0.1617,-0.1617,-0.1617,-0.1617,-0.1617,-0.1617,-0.1611,-0.1698,-0.1896,-0.2077,-0.2424,-0.2419,-0.2505,-0.2578,-0.2574,-0.2679,-0.2901,-0.2904,-0.3015,-0.324,-0.3443,-0.364,-0.3937,-0.416,-0.4579,-0.5075,-0.5309,-0.5634,-0.5934,-0.6437,-0.6836,-0.7138,-0.7341,-0.764,-0.7736,-0.7779,-0.7766,-0.7915,-0.7963,-0.7858,-0.7826,-0.7743,-0.7743,-0.764,-0.7441,-0.7441,-0.7341,-0.7138,-0.6939,-0.6839,-0.6639,-0.6439,-0.6237,-0.6137,-0.6037,-0.6037,-0.5937,-0.6237,0.8024,0.7913,0.7913,0.7896,0.7872,0.7872,0.7877,0.788,0.751,0.7094,0.6538,0.5806,0.5401,0.521,0.4731,0.4339,0.3936,0.3466,0.3093,0.2484,0.203,0.1802,0.1683,0.0785,0.0224,-0.0,-0.0,-0.0336,-0.1121,-0.157,-0.178,-0.1748,-0.1704,-0.1675,-0.1662,-0.1639,-0.1624,-0.1618,-0.1617,-0.1617,-0.1617,-0.1617,-0.1617,-0.1615,-0.1594,-0.1582,-0.158,-0.1552,-0.1536,-0.1536,-0.1536,-0.1547,-0.157,-0.1578,-0.1592,-0.1614,-0.1617,-0.1617,-0.1617,-0.1617,-0.1617,-0.1617,-0.1617,-0.1617,-0.1617,-0.1819,-0.2009,-0.2179,-0.2271,-0.2258,-0.2331,-0.2226,-0.2334,-0.2562,-0.2665,-0.2778,-0.3019,-0.3332,-0.3433,-0.3635,-0.3835,-0.4131,-0.4535,-0.4734,-0.5033,-0.5536,-0.5934,-0.6437,-0.6736,-0.6839,-0.7036,-0.7186,-0.7302,-0.7456,-0.773,-0.7647,-0.754,-0.7473,-0.7489,-0.74,-0.7316,-0.7138,-0.7039,-0.7039,-0.6742,-0.6539,-0.6237,-0.6037,-0.5839,-0.5737,-0.5737,-0.5634,-0.5634,-0.5636,-0.5737,0.8147,0.8046,0.8038,0.7973,0.788,0.7872,0.7872,0.7872,0.7508,0.7383,0.7243,0.6634,0.5968,0.5292,0.5165,0.5004,0.4581,0.3995,0.3611,0.3444,0.2294,0.1821,0.1798,0.1683,0.1009,-0.0,-0.0,-0.0561,-0.1458,-0.1795,-0.178,-0.1752,-0.1744,-0.1714,-0.1669,-0.166,-0.1645,-0.1618,-0.1617,-0.1617,-0.1617,-0.1617,-0.1617,-0.1617,-0.1614,-0.1613,-0.161,-0.1583,-0.1568,-0.1568,-0.1567,-0.1568,-0.1574,-0.1598,-0.1613,-0.1617,-0.1617,-0.1617,-0.1617,-0.1617,-0.1617,-0.1617,-0.1617,-0.1617,-0.1617,-0.1617,-0.1718,-0.1913,-0.2015,-0.2109,-0.2309,-0.2305,-0.2303,-0.2406,-0.241,-0.2518,-0.2823,-0.2826,-0.3029,-0.3536,-0.3534,-0.3736,-0.4034,-0.4433,-0.4935,-0.5436,-0.5634,-0.5737,-0.5934,-0.6037,-0.6203,-0.6516,-0.6748,-0.6988,-0.7025,-0.6972,-0.7013,-0.7121,-0.7152,-0.7098,-0.6973,-0.6924,-0.6742,-0.6537,-0.6239,-0.6039,-0.5837,-0.5636,-0.5636,-0.5411,-0.5413,-0.5522,-0.5532,-0.5518,-0.5511,0.8272,0.8163,0.816,0.8089,0.7851,0.7902,0.7872,0.7872,0.775,0.763,0.7385,0.7141,0.6625,0.5979,0.5492,0.5205,0.5011,0.4535,0.4025,0.3732,0.3118,0.2634,0.2163,0.1916,0.1458,0.1009,0.0336,-0.0224,-0.0785,-0.1458,-0.1789,-0.1776,-0.1759,-0.1737,-0.1712,-0.168,-0.1656,-0.1644,-0.1626,-0.1617,-0.1617,-0.1617,-0.1617,-0.1617,-0.1617,-0.1617,-0.1615,-0.1605,-0.1598,-0.1598,-0.1598,-0.1598,-0.1598,-0.161,-0.1617,-0.1617,-0.1617,-0.1617,-0.1617,-0.1617,-0.1617,-0.1617,-0.1617,-0.1617,-0.1617,-0.1617,-0.1617,-0.1718,-0.1718,-0.1819,-0.1919,-0.1919,-0.202,-0.2121,-0.2121,-0.2222,-0.2522,-0.2522,-0.2725,-0.3029,-0.313,-0.3331,-0.3734,-0.4033,-0.4535,-0.5035,-0.5135,-0.5236,-0.5536,-0.5737,-0.5795,-0.5801,-0.5919,-0.6334,-0.6652,-0.6861,-0.6792,-0.6685,-0.6631,-0.6489,-0.6396,-0.6238,-0.596,-0.5917,-0.5819,-0.5625,-0.5438,-0.5229,-0.5125,-0.498,-0.4704,-0.4582,-0.4582,-0.4582,-0.4582,0.8394,0.8285,0.8214,0.8136,0.7916,0.7921,0.7872,0.7872,0.7872,0.775,0.7508,0.7508,0.7141,0.6648,0.6035,0.5632,0.5456,0.509,0.4569,0.403,0.3864,0.3254,0.2543,0.2163,0.1921,0.1693,0.0787,0.0224,-0.0,-0.0785,-0.1346,-0.1567,-0.1551,-0.1647,-0.1746,-0.1705,-0.1678,-0.1661,-0.1639,-0.1626,-0.1618,-0.1617,-0.1617,-0.1617,-0.1617,-0.1617,-0.1617,-0.1617,-0.1617,-0.1617,-0.1617,-0.1617,-0.1617,-0.1617,-0.1617,-0.1617,-0.1617,-0.1617,-0.1617,-0.1617,-0.1617,-0.1617,-0.1617,-0.1617,-0.1617,-0.1617,-0.1617,-0.1617,-0.1617,-0.1617,-0.1617,-0.1617,-0.1718,-0.1819,-0.192,-0.2021,-0.2221,-0.2322,-0.2423,-0.2624,-0.2826,-0.3029,-0.3534,-0.3835,-0.4133,-0.4533,-0.4634,-0.4636,-0.5035,-0.5233,-0.5205,-0.5308,-0.5207,-0.5511,-0.6225,-0.6207,-0.6196,-0.6174,-0.5943,-0.5887,-0.58,-0.5632,-0.5352,-0.5391,-0.534,-0.5152,-0.4828,-0.4642,-0.4552,-0.4294,-0.4043,-0.391,-0.4026,-0.3915,-0.3915,0.8516,0.8383,0.816,0.8068,0.7918,0.7924,0.7872,0.7872,0.7872,0.7872,0.7872,0.7505,0.7385,0.7266,0.6648,0.6158,0.5908,0.5782,0.5371,0.4697,0.4202,0.3694,0.3175,0.2548,0.2183,0.1832,0.1357,0.0786,0.0112,-0.0112,-0.0336,-0.0897,-0.0895,-0.1222,-0.1646,-0.1744,-0.1717,-0.1568,-0.1557,-0.1543,-0.152,-0.1618,-0.1516,-0.1516,-0.1617,-0.1617,-0.1617,-0.1617,-0.1617,-0.1617,-0.1617,-0.1617,-0.1617,-0.1617,-0.1617,-0.1617,-0.1617,-0.1617,-0.1617,-0.1617,-0.1617,-0.1617,-0.1617,-0.1617,-0.1617,-0.1617,-0.1617,-0.1617,-0.1617,-0.1617,-0.1617,-0.1617,-0.1617,-0.1617,-0.1617,-0.1718,-0.2021,-0.2021,-0.2122,-0.2423,-0.2624,-0.2928,-0.3433,-0.3636,-0.3734,-0.3934,-0.4033,-0.4131,-0.4234,-0.4336,-0.4505,-0.473,-0.4831,-0.5011,-0.5104,-0.5383,-0.5365,-0.5322,-0.5368,-0.5305,-0.5376,-0.5339,-0.5061,-0.4882,-0.4714,-0.4526,-0.412,-0.3924,-0.3927,-0.3811,-0.3801,-0.3784,-0.3665,-0.3798,-0.3791,0.8565,0.8505,0.8269,0.8168,0.802,0.7956,0.7872,0.7872,0.7872,0.7872,0.7869,0.775,0.7627,0.7385,0.7141,0.6773,0.6283,0.6039,0.5653,0.5129,0.4598,0.4083,0.37,0.3176,0.2554,0.184,0.16,0.1247,0.0561,0.0224,-0.0112,-0.0224,-0.0336,-0.0447,-0.0666,-0.0989,-0.1195,-0.118,-0.1052,-0.1139,-0.1028,-0.1118,-0.1111,-0.1111,-0.1415,-0.1617,-0.1617,-0.1617,-0.1617,-0.1617,-0.1617,-0.1617,-0.1617,-0.1617,-0.1617,-0.1617,-0.1617,-0.1617,-0.1617,-0.1617,-0.1617,-0.1617,-0.1617,-0.1617,-0.1617,-0.1617,-0.1617,-0.1617,-0.1617,-0.1617,-0.1617,-0.1617,-0.1617,-0.1617,-0.1617,-0.1617,-0.1718,-0.1718,-0.1819,-0.2121,-0.2423,-0.2725,-0.3029,-0.313,-0.3331,-0.3736,-0.3836,-0.3734,-0.3831,-0.4034,-0.4123,-0.4191,-0.4224,-0.4238,-0.4254,-0.4754,-0.5032,-0.4959,-0.4899,-0.4765,-0.473,-0.4574,-0.4212,-0.4256,-0.4167,-0.4071,-0.3782,-0.3568,-0.3561,-0.3364,-0.3354,-0.3336,-0.3212,-0.3333,-0.3327,0.8565,0.8503,0.832,0.8212,0.8155,0.7959,0.7872,0.7872,0.7872,0.7872,0.7872,0.7872,0.775,0.7508,0.7508,0.7141,0.6528,0.616,0.5667,0.5418,0.4999,0.449,0.4115,0.3704,0.3067,0.2334,0.1963,0.16,0.1244,0.0787,0.0561,0.0561,0.0561,0.0448,0.0224,-0.0111,-0.033,-0.0327,-0.032,-0.0315,-0.0312,-0.0308,-0.0508,-0.0809,-0.101,-0.1313,-0.1516,-0.1617,-0.1617,-0.1617,-0.1617,-0.1617,-0.1617,-0.1617,-0.1617,-0.1617,-0.1617,-0.1617,-0.1617,-0.1617,-0.1617,-0.1617,-0.1617,-0.1617,-0.1617,-0.1617,-0.1617,-0.1617,-0.1617,-0.1617,-0.1617,-0.1617,-0.1617,-0.1617,-0.1617,-0.1617,-0.1617,-0.1617,-0.1718,-0.2021,-0.2122,-0.2423,-0.2623,-0.2624,-0.2927,-0.3433,-0.3433,-0.3432,-0.3531,-0.3632,-0.3833,-0.3828,-0.3866,-0.3905,-0.3933,-0.4285,-0.4426,-0.4328,-0.4318,-0.4258,-0.4097,-0.3844,-0.3684,-0.3728,-0.3652,-0.3555,-0.3446,-0.3233,-0.3035,-0.2842,-0.2739,-0.2727,-0.2712,-0.2703,-0.2804,0.8522,0.8413,0.8282,0.8163,0.8185,0.7929,0.7872,0.7872,0.7872,0.7872,0.7872,0.7872,0.7872,0.7872,0.763,0.7266,0.6778,0.628,0.5788,0.5419,0.5291,0.492,0.4426,0.4003,0.3729,0.3236,0.2334,0.1841,0.1836,0.1698,0.1573,0.1683,0.1683,0.1346,0.0897,0.0783,0.0889,0.0878,0.0872,0.0858,0.0835,0.0726,0.0308,-0.0506,-0.0202,-0.0404,-0.1414,-0.1516,-0.1516,-0.1516,-0.1516,-0.1617,-0.1617,-0.1617,-0.1617,-0.1617,-0.1617,-0.1617,-0.1617,-0.1617,-0.1617,-0.1617,-0.1617,-0.1617,-0.1617,-0.1617,-0.1617,-0.1617,-0.1617,-0.1617,-0.1617,-0.1617,-0.1617,-0.1617,-0.1617,-0.1617,-0.1617,-0.1617,-0.1718,-0.192,-0.2021,-0.2121,-0.2322,-0.2422,-0.2523,-0.2725,-0.2826,-0.2927,-0.3128,-0.3128,-0.3332,-0.3525,-0.3491,-0.3449,-0.3584,-0.3801,-0.3699,-0.3617,-0.3688,-0.369,-0.3695,-0.3529,-0.3351,-0.3381,-0.32,-0.3108,-0.2928,-0.2726,-0.2629,-0.2439,-0.2335,-0.2334,-0.2424,-0.2424,-0.2424,0.8451,0.8394,0.8195,0.8092,0.8163,0.7924,0.7872,0.7872,0.7872,0.7872,0.7872,0.7872,0.7872,0.7872,0.775,0.7385,0.69,0.6653,0.6285,0.5794,0.5546,0.5177,0.4803,0.4416,0.4017,0.3371,0.2835,0.2556,0.2416,0.2057,0.1814,0.1799,0.1795,0.1683,0.157,0.157,0.1565,0.1557,0.154,0.1514,0.1376,0.1359,0.1133,0.0912,0.101,0.0909,0.0606,-0.0505,-0.101,-0.101,-0.101,-0.1212,-0.1516,-0.1617,-0.1617,-0.1617,-0.1617,-0.1617,-0.1617,-0.1617,-0.1617,-0.1617,-0.1617,-0.1617,-0.1617,-0.1617,-0.1617,-0.1617,-0.1617,-0.1617,-0.1617,-0.1617,-0.1617,-0.1617,-0.1617,-0.1617,-0.1617,-0.1617,-0.1617,-0.1718,-0.1718,-0.1819,-0.202,-0.2121,-0.2221,-0.2321,-0.2522,-0.2522,-0.2522,-0.2624,-0.2725,-0.2923,-0.3001,-0.3082,-0.3236,-0.3286,-0.3218,-0.3224,-0.3272,-0.3326,-0.3413,-0.323,-0.3141,-0.2962,-0.2871,-0.2691,-0.2424,-0.2244,-0.2244,-0.2155,-0.2155,-0.2155,-0.2155,-0.2155,-0.2064,0.8364,0.8266,0.8119,0.8027,0.7981,0.7899,0.7872,0.7872,0.7872,0.7872,0.7872,0.7872,0.7872,0.7872,0.7872,0.763,0.7143,0.6898,0.6653,0.6039,0.5794,0.5423,0.5056,0.4562,0.4053,0.3523,0.3232,0.2955,0.2807,0.2426,0.2171,0.2152,0.2138,0.2132,0.2132,0.2132,0.2132,0.2128,0.2109,0.2081,0.2047,0.2011,0.1871,0.1636,0.1622,0.1617,0.1516,0.0606,-0.0101,-0.0404,-0.0505,-0.0707,-0.1212,-0.1313,-0.1414,-0.1516,-0.1617,-0.1617,-0.1617,-0.1617,-0.1617,-0.1617,-0.1617,-0.1617,-0.1617,-0.1617,-0.1617,-0.1617,-0.1617,-0.1617,-0.1617,-0.1617,-0.1617,-0.1617,-0.1617,-0.1617,-0.1617,-0.1617,-0.1617,-0.1617,-0.1617,-0.1718,-0.1819,-0.1819,-0.1919,-0.212,-0.2221,-0.2321,-0.222,-0.2321,-0.2522,-0.2623,-0.2618,-0.2702,-0.2783,-0.2845,-0.2804,-0.2831,-0.2856,-0.2998,-0.3061,-0.2785,-0.2603,-0.2603,-0.2512,-0.2333,-0.2155,-0.2064,-0.1974,-0.1974,-0.1974,-0.1885,-0.1795,-0.1795,-0.1795,0.8261,0.8062,0.8046,0.7975,0.7886,0.7872,0.7872,0.7872,0.7872,0.7872,0.7872,0.7872,0.7872,0.7872,0.7872,0.7752,0.7385,0.7023,0.6778,0.6405,0.6037,0.5671,0.5298,0.4684,0.4189,0.3687,0.3523,0.3255,0.2994,0.2929,0.2761,0.275,0.2718,0.2695,0.2582,0.2693,0.2581,0.258,0.2578,0.2556,0.2513,0.2585,0.2324,0.1762,0.1737,0.1722,0.1717,0.1415,0.101,0.0202,-0.0,-0.0202,-0.0606,-0.0707,-0.0909,-0.1313,-0.1516,-0.1516,-0.1516,-0.1617,-0.1617,-0.1617,-0.1617,-0.1617,-0.1617,-0.1617,-0.1617,-0.1617,-0.1617,-0.1617,-0.1617,-0.1617,-0.1617,-0.1617,-0.1617,-0.1617,-0.1617,-0.1617,-0.1617,-0.1617,-0.1617,-0.1617,-0.1617,-0.1617,-0.1718,-0.192,-0.1921,-0.202,-0.212,-0.222,-0.2321,-0.2321,-0.2322,-0.2517,-0.26,-0.2588,-0.2551,-0.2501,-0.2532,-0.2573,-0.2711,-0.2427,-0.2244,-0.2155,-0.2155,-0.2064,-0.1885,-0.1795,-0.1705,-0.1615,-0.1525,-0.1436,-0.1436,-0.1525,-0.1615,0.8114,0.8046,0.7956,0.7899,0.7872,0.7872,0.7872,0.7872,0.7872,0.7872,0.7872,0.7872,0.7872,0.7872,0.7872,0.775,0.7385,0.7023,0.6778,0.6405,0.6039,0.5671,0.53,0.4684,0.4316,0.4066,0.3928,0.3782,0.3619,0.3582,0.3408,0.3102,0.3204,0.3063,0.2811,0.2693,0.2693,0.2693,0.2693,0.2672,0.2633,0.2615,0.2461,0.2286,0.2271,0.225,0.2124,0.1818,0.1313,0.0707,0.0606,0.0303,-0.0101,-0.0202,-0.0303,-0.0505,-0.0808,-0.1212,-0.1516,-0.1516,-0.1617,-0.1617,-0.1617,-0.1617,-0.1617,-0.1617,-0.1617,-0.1617,-0.1617,-0.1617,-0.1617,-0.1617,-0.1617,-0.1617,-0.1617,-0.1617,-0.1617,-0.1617,-0.1617,-0.1617,-0.1617,-0.1617,-0.1617,-0.1617,-0.1617,-0.1718,-0.1718,-0.1718,-0.1919,-0.1918,-0.1918,-0.202,-0.2122,-0.2222,-0.2318,-0.241,-0.2387,-0.2346,-0.2195,-0.2139,-0.2098,-0.1975,-0.1885,-0.1795,-0.1885,-0.1795,-0.1615,-0.1525,-0.1436,-0.1436,-0.1436,-0.1436,-0.1436,-0.1436,-0.1436,0.8024,0.7973,0.7899,0.7872,0.7872,0.7872,0.7872,0.7872,0.7872,0.7872,0.7872,0.7872,0.7872,0.7872,0.7872,0.775,0.7508,0.7143,0.6778,0.653,0.6162,0.5671,0.5421,0.493,0.4685,0.4438,0.4195,0.4053,0.3898,0.3873,0.3687,0.3495,0.3574,0.342,0.3143,0.3029,0.3029,0.303,0.3029,0.3011,0.2986,0.2963,0.2926,0.286,0.2724,0.257,0.2429,0.2119,0.1717,0.1313,0.1111,0.101,0.0707,0.0404,0.0303,-0.0,-0.0303,-0.0606,-0.0909,-0.1111,-0.1414,-0.1516,-0.1617,-0.1617,-0.1617,-0.1617,-0.1617,-0.1617,-0.1617,-0.1617,-0.1617,-0.1617,-0.1617,-0.1617,-0.1617,-0.1617,-0.1617,-0.1617,-0.1617,-0.1617,-0.1617,-0.1617,-0.1617,-0.1617,-0.1617,-0.1617,-0.1617,-0.1617,-0.1617,-0.1617,-0.1617,-0.1819,-0.1819,-0.1919,-0.202,-0.2015,-0.2091,-0.2057,-0.1917,-0.1871,-0.1738,-0.1615,-0.1615,-0.1615,-0.1615,-0.1615,-0.1525,-0.1436,-0.1436,-0.1436,-0.1436,-0.1436,-0.1436,-0.1436,-0.1436,0.797,0.7872,0.7872,0.7872,0.7872,0.7872,0.7872,0.7872,0.7872,0.7872,0.7872,0.7872,0.7872,0.7872,0.7872,0.7872,0.7869,0.7143,0.69,0.653,0.6162,0.5794,0.5546,0.5298,0.5053,0.4684,0.4438,0.4192,0.4053,0.4014,0.3842,0.3779,0.3605,0.3545,0.3502,0.3594,0.3587,0.3475,0.3475,0.3473,0.346,0.3428,0.3394,0.3358,0.3053,0.2778,0.2636,0.2422,0.222,0.1718,0.1718,0.1617,0.1516,0.1111,0.0707,0.0303,0.0202,-0.0,-0.0101,-0.0505,-0.0909,-0.1212,-0.1414,-0.1516,-0.1617,-0.1617,-0.1617,-0.1617,-0.1617,-0.1617,-0.1617,-0.1617,-0.1617,-0.1617,-0.1617,-0.1617,-0.1617,-0.1617,-0.1617,-0.1617,-0.1617,-0.1617,-0.1617,-0.1617,-0.1617,-0.1617,-0.1617,-0.1617,-0.1617,-0.1617,-0.1617,-0.1617,-0.1617,-0.1617,-0.1617,-0.1616,-0.1691,-0.1663,-0.1624,-0.1586,-0.1548,-0.1436,-0.1436,-0.1436,-0.1525,-0.1525,-0.1436,-0.1436,-0.1436,-0.1436,-0.1436,-0.1436,-0.1436,-0.1436,-0.1436,0.7894,0.7872,0.7872,0.7872,0.7872,0.7872,0.7872,0.7872,0.7872,0.7872,0.7872,0.7872,0.7872,0.7872,0.7872,0.7872,0.7872,0.7143,0.6653,0.6164,0.6041,0.5919,0.5671,0.5546,0.5298,0.5051,0.4561,0.4316,0.4309,0.4052,0.3899,0.3837,0.377,0.3602,0.3659,0.3606,0.3587,0.3587,0.3587,0.3587,0.3587,0.3572,0.3541,0.3602,0.328,0.3091,0.3041,0.2826,0.2624,0.2423,0.2122,0.192,0.1617,0.1515,0.1313,0.1111,0.0808,0.0404,0.0101,-0.0101,-0.0202,-0.0404,-0.0808,-0.1111,-0.1516,-0.1617,-0.1617,-0.1617,-0.1617,-0.1617,-0.1617,-0.1617,-0.1617,-0.1617,-0.1617,-0.1617,-0.1617,-0.1617,-0.1617,-0.1617,-0.1617,-0.1617,-0.1617,-0.1617,-0.1617,-0.1617,-0.1617,-0.1617,-0.1617,-0.1617,-0.1617,-0.1617,-0.1617,-0.1617,-0.1617,-0.1612,-0.1589,-0.1563,-0.1528,-0.1395,-0.1453,-0.1436,-0.1436,-0.1436,-0.1436,-0.1436,-0.1436,-0.1436,-0.1436,-0.1436,-0.1436,-0.1436,-0.1436,-0.1436,-0.1436,0.7872,0.7872,0.7872,0.7872,0.7872,0.7872,0.7872,0.7872,0.7872,0.7872,0.7872,0.7872,0.7872,0.7872,0.7872,0.7872,0.775,0.7266,0.6532,0.6041,0.5919,0.5919,0.5919,0.5671,0.5546,0.5421,0.5053,0.4807,0.4438,0.4064,0.3914,0.386,0.3801,0.3734,0.3679,0.362,0.359,0.3587,0.3587,0.3587,0.3587,0.3586,0.3559,0.3497,0.3304,0.3231,0.3178,0.304,0.3031,0.2927,0.2625,0.2222,0.202,0.1918,0.1817,0.1616,0.1414,0.1111,0.0808,0.0505,0.0303,-0.0,-0.0303,-0.0505,-0.0909,-0.1212,-0.1617,-0.1617,-0.1617,-0.1617,-0.1617,-0.1617,-0.1617,-0.1617,-0.1617,-0.1617,-0.1617,-0.1617,-0.1617,-0.1617,-0.1617,-0.1617,-0.1617,-0.1617,-0.1617,-0.1617,-0.1617,-0.1617,-0.1617,-0.1617,-0.1617,-0.1617,-0.1617,-0.1617,-0.1617,-0.1607,-0.1586,-0.156,-0.1529,-0.1488,-0.1448,-0.144,-0.1436,-0.1436,-0.1436,-0.1436,-0.1436,-0.1436,-0.1436,-0.1436,-0.1436,-0.1436,-0.1436,-0.1436,-0.1436,0.7872,0.7872,0.7872,0.7872,0.7872,0.7872,0.7872,0.7872,0.7872,0.7872,0.7872,0.7872,0.7872,0.7872,0.7872,0.7869,0.7627,0.7263,0.6532,0.5919,0.5919,0.5919,0.5919,0.5794,0.5794,0.5546,0.5298,0.5053,0.4561,0.4189,0.3924,0.3991,0.3815,0.3762,0.3696,0.3635,0.36,0.3591,0.3587,0.3587,0.3587,0.3586,0.3555,0.3497,0.3346,0.3279,0.3322,0.3173,0.3143,0.3131,0.2928,0.2725,0.2623,0.2422,0.222,0.1717,0.1717,0.1616,0.1414,0.1111,0.0707,0.0303,-0.0,-0.0,-0.0,-0.101,-0.1516,-0.1617,-0.1617,-0.1617,-0.1617,-0.1617,-0.1617,-0.1617,-0.1617,-0.1617,-0.1617,-0.1617,-0.1617,-0.1617,-0.1617,-0.1617,-0.1617,-0.1617,-0.1617,-0.1617,-0.1617,-0.1617,-0.1617,-0.1617,-0.1617,-0.1617,-0.1617,-0.1617,-0.1617,-0.1613,-0.1591,-0.1556,-0.1528,-0.1491,-0.1451,-0.144,-0.1436,-0.1436,-0.1436,-0.1436,-0.1436,-0.1436,-0.1436,-0.1436,-0.1436,-0.1436,-0.1436,-0.1436,-0.1436,0.7872,0.7872,0.7872,0.7872,0.7872,0.7872,0.7872,0.7872,0.7872,0.7872,0.7872,0.7872,0.7872,0.7872,0.7872,0.763,0.7266,0.69,0.6532,0.5919,0.5919,0.5919,0.5919,0.5919,0.5794,0.5794,0.5546,0.5298,0.5053,0.4435,0.4182,0.4284,0.3986,0.3805,0.3745,0.3692,0.3628,0.3593,0.3587,0.3587,0.3587,0.3583,0.3563,0.351,0.3484,0.3424,0.3346,0.3312,0.3283,0.3238,0.3131,0.313,0.2928,0.2624,0.2423,0.2322,0.2221,0.212,0.1717,0.1516,0.1415,0.1111,0.0606,0.0101,-0.0,-0.0909,-0.1414,-0.1617,-0.1617,-0.1617,-0.1617,-0.1617,-0.1617,-0.1617,-0.1617,-0.1617,-0.1617,-0.1617,-0.1617,-0.1617,-0.1617,-0.1617,-0.1617,-0.1617,-0.1617,-0.1617,-0.1617,-0.1617,-0.1617,-0.1617,-0.1617,-0.1617,-0.1617,-0.1617,-0.1617,-0.1613,-0.1598,-0.1557,-0.1525,-0.1498,-0.1464,-0.1443,-0.1436,-0.1436,-0.1436,-0.1436,-0.1436,-0.1436,-0.1436,-0.1436,-0.1436,-0.1436,-0.1436,-0.1436,-0.1436,0.7872,0.7872,0.7872,0.7872,0.7872,0.7872,0.7872,0.7872,0.7872,0.7872,0.7872,0.7872,0.7872,0.7872,0.7872,0.7508,0.7023,0.6655,0.6407,0.5916,0.5919,0.5919,0.5919,0.5919,0.5919,0.5794,0.5671,0.5546,0.5421,0.5176,0.4808,0.4545,0.4127,0.3944,0.4002,0.382,0.365,0.3602,0.3589,0.3587,0.3587,0.3587,0.3565,0.3548,0.3618,0.3559,0.3384,0.3331,0.3292,0.3244,0.323,0.323,0.313,0.3029,0.2725,0.2624,0.2623,0.2422,0.2019,0.1919,0.1718,0.1516,0.101,0.0505,0.0101,-0.0505,-0.101,-0.1415,-0.1617,-0.1617,-0.1617,-0.1617,-0.1617,-0.1617,-0.1617,-0.1617,-0.1617,-0.1617,-0.1617,-0.1617,-0.1617,-0.1617,-0.1617,-0.1617,-0.1617,-0.1617,-0.1617,-0.1617,-0.1617,-0.1617,-0.1617,-0.1617,-0.1617,-0.1617,-0.1617,-0.1614,-0.1603,-0.1563,-0.1527,-0.15,-0.1473,-0.1451,-0.1439,-0.1436,-0.1436,-0.1436,-0.1436,-0.1436,-0.1436,-0.1436,-0.1436,-0.1436,-0.1436,-0.1436,-0.1436,0.7872,0.7872,0.7872,0.7872,0.7872,0.7872,0.7872,0.7872,0.7872,0.7872,0.7872,0.7872,0.7872,0.7872,0.775,0.7508,0.69,0.653,0.6283,0.5916,0.5919,0.5919,0.5919,0.5919,0.5919,0.5919,0.5919,0.5794,0.5669,0.5669,0.5425,0.5165,0.4498,0.4321,0.438,0.4084,0.3895,0.3847,0.3813,0.3811,0.3701,0.3587,0.3587,0.3586,0.3649,0.3594,0.3409,0.3371,0.3307,0.3255,0.323,0.323,0.323,0.323,0.313,0.2927,0.2927,0.2725,0.2523,0.2322,0.2121,0.1919,0.1718,0.1111,0.0606,0.0101,-0.0404,-0.1111,-0.1516,-0.1617,-0.1617,-0.1617,-0.1617,-0.1617,-0.1617,-0.1617,-0.1617,-0.1617,-0.1617,-0.1617,-0.1617,-0.1617,-0.1617,-0.1617,-0.1617,-0.1617,-0.1617,-0.1617,-0.1617,-0.1617,-0.1617,-0.1617,-0.1617,-0.1617,-0.1617,-0.1617,-0.1601,-0.1572,-0.1538,-0.1509,-0.1481,-0.1455,-0.1446,-0.1436,-0.1436,-0.1436,-0.1436,-0.1436,-0.1436,-0.1436,-0.1436,-0.1436,-0.1436,-0.1436,-0.1436,0.7872,0.7872,0.7872,0.7872,0.7872,0.7872,0.7872,0.7872,0.7872,0.7872,0.7872,0.7872,0.7872,0.7872,0.7505,0.7263,0.6898,0.653,0.616,0.5916,0.5919,0.5919,0.5919,0.5919,0.5919,0.5919,0.5919,0.5919,0.5794,0.5794,0.5671,0.5414,0.5404,0.5365,0.479,0.4477,0.4541,0.4467,0.44,0.4258,0.3924,0.3699,0.3699,0.3696,0.3681,0.3628,0.3536,0.3391,0.3343,0.3244,0.323,0.323,0.323,0.323,0.323,0.313,0.313,0.3029,0.2826,0.2624,0.2523,0.2221,0.1918,0.1616,0.1111,-0.0,-0.0,-0.0101,-0.0909,-0.1516,-0.1516,-0.1617,-0.1617,-0.1617,-0.1617,-0.1617,-0.1617,-0.1617,-0.1617,-0.1617,-0.1617,-0.1617,-0.1617,-0.1617,-0.1617,-0.1617,-0.1617,-0.1617,-0.1617,-0.1617,-0.1617,-0.1617,-0.1617,-0.1617,-0.1617,-0.1617,-0.1607,-0.1581,-0.1547,-0.1518,-0.1493,-0.1467,-0.1443,-0.1436,-0.1436,-0.1436,-0.1436,-0.1436,-0.1436,-0.1436,-0.1436,-0.1436,-0.1436,-0.1436,-0.1436,0.7872,0.7872,0.7872,0.7872,0.7872,0.7872,0.7872,0.7872,0.7872,0.7872,0.7872,0.7872,0.7872,0.775,0.7385,0.7021,0.6778,0.6407,0.6039,0.5916,0.5919,0.5919,0.5919,0.5919,0.5919,0.5919,0.5919,0.5919,0.5919,0.5919,0.5794,0.5671,0.579,0.5622,0.5059,0.4862,0.4668,0.4591,0.4523,0.4482,0.4257,0.4033,0.4032,0.4145,0.4257,0.4069,0.3764,0.3726,0.3455,0.3256,0.323,0.323,0.323,0.323,0.323,0.323,0.323,0.313,0.3029,0.2927,0.2725,0.2624,0.222,0.1918,0.1515,-0.0,-0.0,-0.0,-0.0,-0.0909,-0.1415,-0.1617,-0.1617,-0.1617,-0.1617,-0.1617,-0.1617,-0.1617,-0.1617,-0.1617,-0.1617,-0.1617,-0.1617,-0.1617,-0.1617,-0.1617,-0.1617,-0.1617,-0.1617,-0.1617,-0.1617,-0.1617,-0.1617,-0.1617,-0.1617,-0.1617,-0.1617,-0.1592,-0.1551,-0.1525,-0.1505,-0.1481,-0.1454,-0.1438,-0.1436,-0.1436,-0.1436,-0.1436,-0.1436,-0.1436,-0.1436,-0.1436,-0.1436,-0.1436,-0.1436,0.7872,0.7872,0.7872,0.7872,0.7872,0.7872,0.7872,0.7872,0.7872,0.7872,0.7872,0.7872,0.7869,0.7627,0.7143,0.69,0.6778,0.6162,0.5916,0.5919,0.5919,0.5919,0.5919,0.5919,0.5919,0.5919,0.5919,0.5919,0.5919,0.5919,0.5919,0.5919,0.5919,0.5742,0.542,0.5097,0.5011,0.49,0.4732,0.4594,0.4594,0.4369,0.4369,0.448,0.4578,0.4522,0.4072,0.394,0.377,0.3559,0.3432,0.3432,0.343,0.3533,0.3432,0.3331,0.3332,0.3332,0.313,0.3029,0.2927,0.2826,0.2624,0.2221,0.1616,0.0808,-0.0,-0.0,-0.0,-0.0,-0.101,-0.1313,-0.1617,-0.1617,-0.1617,-0.1617,-0.1617,-0.1617,-0.1617,-0.1617,-0.1617,-0.1617,-0.1617,-0.1617,-0.1617,-0.1617,-0.1617,-0.1617,-0.1617,-0.1617,-0.1617,-0.1617,-0.1617,-0.1617,-0.1617,-0.1617,-0.1617,-0.1605,-0.1564,-0.1533,-0.1515,-0.1487,-0.1457,-0.1445,-0.1437,-0.1436,-0.1436,-0.1436,-0.1436,-0.1436,-0.1436,-0.1436,-0.1436,-0.1436,-0.1436,0.7872,0.7872,0.7872,0.7872,0.7872,0.7872,0.7872,0.7872,0.7872,0.7872,0.7872,0.7872,0.775,0.7385,0.7143,0.6778,0.6405,0.6037,0.5916,0.5919,0.5919,0.5919,0.5919,0.5919,0.5919,0.5919,0.5919,0.5919,0.5919,0.5919,0.5919,0.5919,0.5919,0.5859,0.5654,0.5436,0.5319,0.5215,0.5048,0.4931,0.4819,0.4706,0.4592,0.4592,0.4582,0.4414,0.4273,0.4261,0.4086,0.3843,0.3833,0.3833,0.3833,0.3833,0.3734,0.3633,0.3534,0.3534,0.3331,0.323,0.313,0.313,0.2827,0.2423,0.1818,0.1617,0.101,0.0303,-0.0,-0.0,-0.0,-0.0909,-0.1414,-0.1617,-0.1617,-0.1617,-0.1617,-0.1617,-0.1617,-0.1617,-0.1617,-0.1617,-0.1617,-0.1617,-0.1617,-0.1617,-0.1617,-0.1617,-0.1617,-0.1617,-0.1617,-0.1617,-0.1617,-0.1617,-0.1617,-0.1617,-0.1617,-0.1607,-0.1579,-0.155,-0.1527,-0.1495,-0.1461,-0.1444,-0.1436,-0.1436,-0.1436,-0.1436,-0.1436,-0.1436,-0.1436,-0.1436,-0.1436,-0.1436,-0.1436,0.7872,0.7872,0.7872,0.7872,0.7872,0.7872,0.7872,0.7872,0.7872,0.7872,0.7872,0.7872,0.775,0.7385,0.7023,0.6778,0.6405,0.6039,0.5916,0.5919,0.5919,0.5919,0.5919,0.5919,0.5919,0.5919,0.5919,0.5919,0.5919,0.5919,0.5919,0.5919,0.5912,0.5859,0.5772,0.5633,0.5498,0.5422,0.527,0.5156,0.5156,0.5156,0.5044,0.5044,0.5044,0.4843,0.4605,0.4581,0.4375,0.4179,0.4039,0.4034,0.4034,0.4034,0.3934,0.3833,0.3835,0.3734,0.3633,0.343,0.323,0.313,0.2927,0.2624,0.212,0.1818,0.1515,0.0909,0.0404,-0.0,-0.0,-0.0707,-0.1111,-0.1415,-0.1617,-0.1617,-0.1617,-0.1617,-0.1617,-0.1617,-0.1617,-0.1617,-0.1617,-0.1617,-0.1617,-0.1617,-0.1617,-0.1617,-0.1617,-0.1617,-0.1617,-0.1617,-0.1617,-0.1617,-0.1617,-0.1617,-0.1617,-0.1605,-0.1593,-0.1567,-0.1539,-0.1501,-0.147,-0.1451,-0.1436,-0.1436,-0.1436,-0.1436,-0.1436,-0.1436,-0.1436,-0.1436,-0.1436,-0.1436,-0.1436,0.7872,0.7872,0.7872,0.7872,0.7872,0.7872,0.7872,0.7872,0.7872,0.7872,0.7872,0.7872,0.775,0.7385,0.7021,0.6778,0.6405,0.6037,0.5916,0.5919,0.5919,0.5919,0.5919,0.5919,0.5919,0.5919,0.5919,0.5919,0.5919,0.5919,0.5919,0.591,0.5884,0.5818,0.5714,0.5567,0.5441,0.5398,0.5382,0.5382,0.5382,0.5382,0.5382,0.5382,0.5382,0.5176,0.4945,0.4778,0.4594,0.4389,0.4232,0.4232,0.4234,0.4234,0.4234,0.4135,0.4135,0.4135,0.3934,0.3633,0.3331,0.323,0.3029,0.2826,0.2523,0.2121,0.1818,0.1516,0.0808,0.0303,0.0202,-0.0404,-0.101,-0.1313,-0.1516,-0.1617,-0.1617,-0.1617,-0.1617,-0.1617,-0.1617,-0.1617,-0.1617,-0.1617,-0.1516,-0.1516,-0.1617,-0.1617,-0.1617,-0.1617,-0.1617,-0.1617,-0.1617,-0.1617,-0.1617,-0.1617,-0.1617,-0.1615,-0.16,-0.158,-0.155,-0.1514,-0.1484,-0.1465,-0.1451,-0.144,-0.1436,-0.1436,-0.1436,-0.1436,-0.1436,-0.1436,-0.1436,-0.1436,-0.1436,0.7872,0.7872,0.7872,0.7872,0.7872,0.7872,0.7872,0.7872,0.7872,0.7872,0.7872,0.7872,0.775,0.7385,0.7021,0.6775,0.6405,0.6037,0.5919,0.5919,0.5919,0.5919,0.5919,0.5919,0.5919,0.5919,0.5919,0.5919,0.5919,0.5919,0.5919,0.5884,0.5829,0.5735,0.5639,0.5473,0.5388,0.5382,0.5382,0.5382,0.5382,0.5382,0.5382,0.5382,0.5382,0.5294,0.507,0.5006,0.4918,0.4694,0.4642,0.4634,0.4634,0.4634,0.4535,0.4437,0.4437,0.4236,0.4034,0.3734,0.3533,0.3332,0.323,0.3029,0.2826,0.2523,0.212,0.1717,0.1415,0.0909,0.0505,-0.0101,-0.0707,-0.101,-0.1212,-0.1516,-0.1516,-0.1617,-0.1617,-0.1617,-0.1617,-0.1617,-0.1617,-0.1617,-0.1516,-0.1516,-0.1617,-0.1617,-0.1516,-0.1415,-0.1414,-0.1414,-0.1313,-0.1516,-0.1516,-0.1617,-0.1616,-0.1616,-0.1608,-0.1588,-0.1569,-0.1542,-0.1513,-0.1484,-0.1463,-0.145,-0.1442,-0.1436,-0.1436,-0.1436,-0.1436,-0.1436,-0.1436,-0.1436,-0.1436,0.7872,0.7872,0.7872,0.7872,0.7872,0.7872,0.7872,0.7872,0.7872,0.7872,0.7872,0.7872,0.775,0.7385,0.7021,0.6775,0.6405,0.6039,0.5919,0.5919,0.5919,0.5919,0.5919,0.5919,0.5919,0.5919,0.5919,0.5919,0.5919,0.5919,0.5919,0.5888,0.5755,0.5645,0.5551,0.5439,0.5384,0.5382,0.5382,0.5382,0.5382,0.5382,0.5382,0.5382,0.5382,0.5316,0.5194,0.5145,0.5041,0.4922,0.4877,0.4834,0.4832,0.4832,0.4734,0.4636,0.4636,0.4537,0.4338,0.4137,0.3935,0.3635,0.3433,0.323,0.2826,0.2725,0.2322,0.1919,0.1718,0.1212,0.0707,0.0202,-0.0303,-0.0404,-0.0707,-0.1212,-0.1414,-0.1516,-0.1617,-0.1617,-0.1617,-0.1617,-0.1617,-0.1415,-0.1414,-0.1414,-0.1415,-0.1313,-0.1212,-0.1111,-0.101,-0.101,-0.101,-0.1313,-0.1415,-0.1516,-0.1617,-0.1616,-0.1611,-0.16,-0.158,-0.1562,-0.1533,-0.15,-0.1479,-0.146,-0.1451,-0.1443,-0.1438,-0.1436,-0.1436,-0.1436,-0.1436,-0.1436,-0.1436,0.7872,0.7872,0.7872,0.7872,0.7872,0.7872,0.7872,0.7872,0.7872,0.7872,0.7872,0.7872,0.775,0.7508,0.7263,0.6898,0.6528,0.6283,0.5916,0.5916,0.5919,0.5919,0.5919,0.5919,0.5919,0.5919,0.5919,0.5919,0.5919,0.5919,0.5874,0.5786,0.5676,0.5559,0.5471,0.5408,0.5382,0.5382,0.5382,0.5382,0.5382,0.5382,0.5382,0.5382,0.5371,0.5335,0.5245,0.5157,0.5067,0.4979,0.49,0.4839,0.4834,0.4832,0.4832,0.4832,0.4734,0.4736,0.4537,0.4537,0.4236,0.3937,0.3836,0.3533,0.313,0.3029,0.2624,0.2222,0.1819,0.1516,0.101,0.0505,0.0101,-0.0101,-0.0,-0.0,-0.0909,-0.101,-0.1212,-0.1313,-0.1313,-0.1414,-0.1516,-0.1313,-0.1212,-0.1212,-0.1212,-0.1111,-0.101,-0.0808,-0.0,-0.0,-0.0,-0.0808,-0.1111,-0.1415,-0.1516,-0.1617,-0.1612,-0.1606,-0.1596,-0.1578,-0.1547,-0.1521,-0.1505,-0.1487,-0.1463,-0.1452,-0.1452,-0.1444,-0.1436,-0.1436,-0.1436,-0.1438,-0.144,0.7858,0.7861,0.7858,0.785,0.7853,0.7847,0.7858,0.7869,0.7872,0.7872,0.7872,0.7872,0.7872,0.7872,0.7508,0.7263,0.6898,0.6528,0.6283,0.6037,0.5916,0.5916,0.5916,0.5919,0.5919,0.5919,0.5914,0.5908,0.591,0.5863,0.5782,0.5671,0.5578,0.5488,0.5424,0.5392,0.5382,0.5382,0.5382,0.5382,0.5382,0.5382,0.5382,0.5382,0.5375,0.5341,0.5265,0.5181,0.5088,0.4994,0.49,0.4857,0.4836,0.4834,0.4832,0.4832,0.4832,0.4734,0.4736,0.4734,0.4636,0.4336,0.4135,0.3935,0.3635,0.3332,0.2928,0.2523,0.202,0.1818,0.1516,0.0808,0.0202,-0.0,-0.0,-0.0,-0.0,-0.0404,-0.0707,-0.0808,-0.0808,-0.0909,-0.1111,-0.1111,-0.0,-0.0808,-0.0808,-0.0909,-0.0707,-0.0404,-0.0,-0.0,-0.0,-0.0,-0.0707,-0.1313,-0.1516,-0.1617,-0.1617,-0.1611,-0.1603,-0.1594,-0.1571,-0.155,-0.1536,-0.1516,-0.1491,-0.1478,-0.1472,-0.1464,-0.1461,-0.1451,-0.1457,-0.145,-0.1453,0.7619,0.7619,0.7622,0.7619,0.7633,0.7714,0.7796,0.7864,0.7872,0.7872,0.7872,0.7872,0.7872,0.7872,0.7505,0.7385,0.7141,0.6773,0.6528,0.6283,0.6037,0.5914,0.5912,0.5908,0.5914,0.5908,0.59,0.5867,0.581,0.5769,0.5678,0.5555,0.5516,0.5451,0.5408,0.5382,0.5382,0.5382,0.5382,0.5382,0.5382,0.5382,0.5382,0.5382,0.5382,0.5353,0.5318,0.5241,0.5153,0.5065,0.4977,0.4914,0.4834,0.4832,0.4832,0.4832,0.4832,0.4834,0.4832,0.4832,0.4734,0.4636,0.4533,0.4135,0.3836,0.3534,0.323,0.2725,0.2322,0.212,0.1717,0.1212,0.0606,-0.0,-0.0,-0.0,-0.0,-0.0,-0.0,-0.0,-0.0,-0.0,-0.0,-0.0,-0.0,-0.0,-0.0,-0.0,-0.0,-0.0,-0.0,-0.0,-0.0,-0.0,-0.0808,-0.1313,-0.1415,-0.1617,-0.1617,-0.1617,-0.1612,-0.1603,-0.1592,-0.1577,-0.1559,-0.1539,-0.1517,-0.1508,-0.1504,-0.1506,-0.1503,-0.1488,-0.1384,-0.1381,-0.1293,0.7519,0.7519,0.7519,0.7519,0.7532,0.7597,0.7671,0.7741,0.7828,0.7872,0.7872,0.7872,0.7872,0.7872,0.775,0.7508,0.7385,0.7016,0.6773,0.653,0.627,0.6248,0.6241,0.6224,0.6192,0.6192,0.6047,0.6007,0.5833,0.5641,0.5551,0.5516,0.5486,0.5433,0.5396,0.5382,0.5382,0.5382,0.5382,0.5382,0.5382,0.5382,0.5382,0.5382,0.5382,0.5382,0.5371,0.5292,0.5204,0.5112,0.502,0.493,0.4853,0.4832,0.4832,0.4832,0.4832,0.4832,0.4832,0.4832,0.4832,0.4832,0.4734,0.4435,0.4137,0.3835,0.3432,0.3027,0.2724,0.2321,0.202,0.1617,0.101,-0.0,-0.0,-0.0,-0.0,-0.0,-0.0,-0.0,-0.0,-0.0,-0.0,-0.0,-0.0,-0.0,-0.0,-0.0,-0.0,-0.0,-0.0,-0.0,-0.0,-0.0808,-0.1111,-0.1212,-0.1415,-0.1617,-0.1617,-0.1617,-0.1617,-0.1613,-0.1604,-0.1592,-0.1579,-0.1562,-0.1547,-0.1544,-0.154,-0.154,-0.144,-0.1238,-0.1134,-0.113,-0.1138,0.7486,0.7481,0.7489,0.7481,0.7505,0.7502,0.7516,0.754,0.7739,0.7839,0.7828,0.7834,0.7815,0.7788,0.779,0.7677,0.7548,0.7304,0.7059,0.6872,0.6829,0.6668,0.6504,0.6605,0.6458,0.6386,0.6239,0.6151,0.6089,0.5897,0.5724,0.5492,0.5541,0.5497,0.5386,0.5382,0.5382,0.5382,0.5382,0.5382,0.5382,0.5382,0.5382,0.5382,0.5382,0.5382,0.5363,0.53,0.5212,0.5122,0.5037,0.4951,0.4867,0.4832,0.4832,0.4832,0.4832,0.4832,0.4832,0.4832,0.4832,0.4832,0.4734,0.4636,0.4437,0.4137,0.3732,0.3331,0.2927,0.2624,0.2222,0.1718,0.1212,0.0707,-0.0,-0.0,-0.0,-0.0,-0.0,-0.0,-0.0,-0.0,-0.0,-0.0,-0.0,-0.0,-0.0,-0.0,-0.0,-0.0,-0.0,-0.0,-0.0,-0.1111,-0.1212,-0.1313,-0.1516,-0.1617,-0.1617,-0.1617,-0.1617,-0.1617,-0.1617,-0.1606,-0.1595,-0.1592,-0.1582,-0.1577,-0.1569,-0.156,-0.1362,-0.0971,-0.0871,-0.0772,-0.0485,0.7809,0.7584,0.7356,0.7293,0.7257,0.7377,0.7316,0.7282,0.7453,0.7603,0.7603,0.7606,0.7616,0.7633,0.7635,0.7517,0.7512,0.7538,0.738,0.7159,0.7164,0.6919,0.6627,0.6617,0.6591,0.6474,0.6453,0.6406,0.6226,0.6145,0.5976,0.5745,0.5712,0.5603,0.5493,0.5493,0.5493,0.5493,0.5382,0.5382,0.5382,0.5382,0.5382,0.5382,0.5382,0.5382,0.5371,0.5361,0.529,0.5214,0.5124,0.4998,0.4849,0.4839,0.4832,0.4832,0.4834,0.4834,0.4832,0.4933,0.4933,0.4834,0.4834,0.4736,0.4636,0.4435,0.4135,0.3633,0.3232,0.2827,0.2424,0.202,0.1516,0.1111,-0.0,-0.0,-0.0,-0.0,-0.0,-0.0,-0.0,-0.0,-0.0,-0.0,-0.0,-0.0,-0.0,-0.0,-0.0,-0.0,-0.0,-0.0,-0.0,-0.1313,-0.1414,-0.1415,-0.1516,-0.1617,-0.1617,-0.1617,-0.1617,-0.1617,-0.1617,-0.1617,-0.1611,-0.1506,-0.1504,-0.1607,-0.1598,-0.1386,-0.0889,-0.0395,-0.0198,-0.0099,0.0299,0.7934,0.7715,0.7601,0.7413,0.7241,0.7483,0.7412,0.7233,0.7355,0.7358,0.7383,0.7459,0.7516,0.7516,0.7519,0.7505,0.7508,0.7641,0.7426,0.7415,0.7264,0.7137,0.6998,0.6854,0.6919,0.6799,0.667,0.6507,0.6468,0.632,0.6165,0.6047,0.6049,0.5938,0.5717,0.5714,0.5603,0.5603,0.5493,0.5382,0.5382,0.5384,0.5384,0.5382,0.5382,0.5382,0.5382,0.5377,0.5324,0.5226,0.5112,0.5022,0.4904,0.4859,0.4839,0.4935,0.5037,0.5037,0.5135,0.5133,0.5133,0.5133,0.5037,0.5037,0.4937,0.4736,0.4435,0.4034,0.3534,0.3131,0.2827,0.2424,0.1919,0.1414,0.1111,-0.0,-0.0,-0.0,-0.0,-0.0,-0.0,-0.0,-0.0,-0.0,-0.0,-0.0,-0.0,-0.0,-0.0,-0.0,-0.0,-0.0,-0.0,-0.1414,-0.1516,-0.1516,-0.1516,-0.1617,-0.1617,-0.1617,-0.1617,-0.1617,-0.1617,-0.1516,-0.1516,-0.1414,-0.1414,-0.1313,-0.101,-0.0702,-0.0201,0.0302,0.0404,0.0606,0.1009,0.8156,0.8045,0.8045,0.7709,0.7368,0.7604,0.7616,0.7388,0.7271,0.7274,0.7418,0.7495,0.758,0.7472,0.7472,0.7472,0.7453,0.7407,0.7434,0.7442,0.733,0.7265,0.722,0.7193,0.7148,0.6998,0.6865,0.6751,0.6512,0.6495,0.6495,0.6386,0.6386,0.6386,0.6272,0.6047,0.5935,0.5824,0.5714,0.5605,0.5493,0.5384,0.5384,0.5382,0.5382,0.5382,0.5382,0.5369,0.5331,0.5362,0.5348,0.5246,0.5167,0.5103,0.5161,0.5249,0.5238,0.5338,0.5436,0.5434,0.5534,0.5536,0.5338,0.524,0.5138,0.5037,0.4736,0.4336,0.3937,0.3534,0.323,0.2826,0.2322,0.1818,0.1515,0.1212,-0.0,-0.0,-0.0,-0.0,-0.0,-0.0,-0.0,-0.0,-0.0,-0.0,-0.0,-0.0,-0.0,-0.0,-0.0,-0.0,-0.0,-0.0909,-0.1415,-0.1516,-0.1516,-0.1617,-0.1617,-0.1617,-0.1617,-0.1617,-0.1516,-0.1415,-0.1313,-0.1313,-0.101,-0.0808,-0.0505,-0.0,0.0404,0.0909,0.1111,0.1313,0.1617,0.8819,0.8377,0.8156,0.7934,0.782,0.782,0.782,0.7823,0.7709,0.7709,0.7838,0.7853,0.7673,0.7228,0.7222,0.7241,0.7282,0.7263,0.7233,0.722,0.7274,0.7233,0.7211,0.7225,0.7182,0.7163,0.7043,0.7046,0.6824,0.6937,0.6826,0.6604,0.6604,0.6495,0.6386,0.6272,0.6161,0.6161,0.6161,0.6051,0.594,0.5717,0.5382,0.5382,0.5382,0.5382,0.5382,0.5382,0.5483,0.5656,0.5784,0.5753,0.5652,0.5574,0.5519,0.5468,0.5555,0.5636,0.5636,0.5734,0.5737,0.5734,0.5536,0.5438,0.5338,0.524,0.4939,0.4736,0.4236,0.3734,0.343,0.3027,0.2523,0.202,0.1718,0.1313,-0.0,-0.0,-0.0,-0.0,-0.0,-0.0,-0.0,-0.0,-0.0,-0.0,-0.0,-0.0,-0.0,-0.0,-0.0,-0.0,-0.0,-0.0707,-0.1414,-0.1415,-0.1516,-0.1516,-0.1516,-0.1516,-0.1516,-0.1617,-0.1516,-0.1414,-0.1313,-0.1212,-0.0808,-0.0101,0.0404,0.0909,0.1212,0.1516,0.1718,0.1818,0.202]},{"header":{"parameterUnit":"m.s-1","parameterCategory":1,"la1":31.0,"la2":29.5877,"lo1":-88.7671,"lo2":-86.6584,"dy":0.0162,"dx":0.0185,"nx":115,"ny":88,"refTime":"2023-08-13T12:00:00:Z","depth":0,"parameterNumber":3,"parameterNumberName":"V-component_of_WINDS"},"data":[0.0,0.0,0.0,0.0,0.0,0.0,0.0,0.0,0.0,0.0,0.0,0.0,0.0,0.0,0.0,0.0,0.0,0.0,0.0,0.0,0.0,0.0,0.0,0.0,0.0,0.0,0.0,0.0,0.0,0.0,0.0,0.0,0.0,0.0,0.0,0.0,0.0,0.0,0.0,0.0,0.0,0.0,0.0,0.0,0.0,0.0,0.0,0.0,0.0,0.0,0.0,0.0,0.0,0.0,0.0,0.0,0.0,0.0,0.0,0.0,0.0,0.0,0.0,0.0,0.0,0.0,0.0,0.0,0.0,0.0,0.0,0.0,0.0,0.0,0.0,0.0,0.0,0.0,0.0,0.0,0.0,0.0,0.0,0.0,0.0,0.0,0.0,0.0,0.0,0.0,0.0,0.0,0.0,0.0,0.0,0.0,0.0,0.0,0.0,0.0,0.0,0.0,0.0,0.0,0.0,0.0,0.0,0.0,0.0,0.0,0.0,0.0,0.0,0.0,0.0,0.0,0.0,0.0,0.0,0.0,0.0,0.0,0.0,0.0,0.0,0.0,0.0,0.0,0.0,0.0,0.0,0.0,0.0,0.0,0.0,0.0,0.0,0.0,0.0,0.0,0.0,0.0,0.0,0.0,0.0,0.0,0.0,0.0,0.0,0.0,0.0,0.0,0.0,0.0,0.0,0.0,0.0,0.0,0.0,0.0,0.0,0.0,0.0,0.0,0.0,0.0,0.0,0.0,0.0,0.0,0.0,0.0,0.0,0.0,0.0,0.0,0.0,0.0,0.0,0.0,0.0,0.0,0.0,0.0,0.0,0.0,0.0,0.0,0.0,0.0,0.0,0.0,0.0,0.0,0.0,0.0,0.0,0.0,0.0,0.0,0.0,0.0,0.0,0.0,0.0,0.0,0.0,0.0,0.0,0.0,0.0,0.0,0.0,0.0,0.0,0.0,0.0,0.0,0.0,0.0,0.0,0.0,0.0,0.0,0.0,0.0,0.0,0.0,0.0,0.0,0.0,0.0,0.0,0.0,0.0,0.0,0.0,0.0,0.0,0.0,0.0,0.0,0.0,0.0,0.0,0.0,0.0,0.0,0.0,0.0,0.0,0.0,0.0,0.0,0.0,0.0,0.0,0.0,0.0,0.0,0.0,0.0,0.0,0.0,0.0,0.0,0.0,0.0,0.0,0.0,0.0,0.0,0.0,0.0,0.0,0.0,0.0,0.0,0.0,0.0,0.0,0.0,0.0,0.0,0.0,0.0,0.0,0.0,0.0,0.0,0.0,0.0,0.0,0.0,0.0,0.0,0.0,0.0,0.0,0.0,0.0,0.0,0.0,0.0,0.0,0.0,0.0,0.0,0.0,0.0,0.0,0.0,0.0,0.0,0.0,0.0,0.0,0.0,0.0,0.0,0.0,0.0,0.0,0.0,0.0,0.0,0.0,0.0,0.0,0.0,0.0,0.0,0.0,0.0,0.0,0.0,0.0,0.0,0.0,0.0,0.0,0.0,0.0,0.0,0.0,0.0,0.0,0.0,0.0,0.0,0.0,0.0,0.0,0.0,0.0,0.0,0.0,0.0,0.0,0.0,0.0,0.0,0.0,0.0,0.0,0.0,0.0,0.0,0.0,0.0,0.0,0.0,0.0,0.0,0.0,0.0,0.0,0.0,0.0,0.0,0.0,0.0,0.0,0.0,0.0,0.0,0.0,0.0,0.0,0.0,0.0,0.0,0.0,0.0,0.0,0.0,0.0,0.0,0.0,0.0,0.0,0.0,0.0,0.0,0.0,0.0,0.0,0.0,0.0,0.0,0.0,0.0,0.0,0.0,0.0,0.0,0.0,0.0,0.0,0.0,0.0,0.0,0.0,0.0,0.0,0.0,0.0,0.0,0.0,0.0,0.0,0.0,0.0,0.0,0.0,0.0,0.0,0.0,0.0,0.0,0.0,0.0,0.0,0.0,0.0,0.0,0.0,0.0,0.0,0.0,0.0,0.0,0.0,0.0,0.0,0.0,0.0,0.0,0.0,0.0,0.0,0.0,0.0,0.0,0.0,0.0,0.0,0.0,0.0,0.0,0.0,0.0,0.0,0.0,0.0,0.0,0.0,0.0,0.0,0.0,0.0,0.0,0.0,0.0,0.0,0.0,0.0,0.0,0.0,0.0,0.0,0.0,0.0,0.0,0.0,0.0,0.0,0.0,0.0,0.0,0.0,0.0,0.0,0.0,0.0,0.0,0.0,0.0,0.0,0.0,0.0,0.0,0.0,0.0,0.0,0.0,0.0,0.0,0.0,0.0,0.0,0.0,0.0,0.0,0.0,0.0,0.0,0.0,0.0,0.0,0.0,0.0,0.0,0.0,0.0,0.0,0.0,0.0,0.0,0.0,0.0,0.0,0.0,0.0,0.0,0.0,0.0,0.0,0.0,0.0,0.0,0.0,0.0,0.0,0.0,0.0,0.0,0.0,0.0,0.0,0.0,0.0,0.0,0.0,0.0,0.0,0.0,0.0,0.0,0.0,0.0,0.0,0.0,0.0,0.0,0.0,0.0,0.0,0.0,0.0,0.0,0.0,0.0,0.0,0.0,0.0,0.0,0.0,0.0,0.0,0.0,0.0,0.0,0.0,0.0,0.0,0.0,0.0,0.0,0.0,0.0,0.0,0.0,0.0,0.0,0.0,0.0,0.0,0.0,0.0,0.0,0.0,0.0,0.0,0.0,0.0,0.0,0.0,0.0,0.0,0.0,0.0,0.0,0.0,0.0,0.0,0.0,0.0,0.0,0.0,0.0,0.0,0.0,0.0,0.0,0.0,0.0,0.0,0.0,0.0,0.0,0.0,0.0,0.0,0.0,0.0,0.0,0.0,0.0,0.0,0.0,0.0,0.0,0.0,0.0,0.0,0.0,0.0,0.0,0.0,0.0,0.0,0.0,0.0,0.0,0.0,0.0,0.0,0.0,0.0,0.0,0.0,0.0,0.0,0.0,0.0,0.0,0.0,0.0,0.0,0.0,0.0,0.0,0.0,0.0,0.0,0.0,0.0,0.0,0.0,0.0,0.0,0.0,0.0,0.0,0.0,0.0,0.0,0.0,0.0,0.0,0.0,0.0,0.0,0.0,0.0,0.0,0.0,0.0,0.0,0.0,0.0,0.0,0.0,0.0,0.0,0.0,0.0,0.0,0.0,0.0,0.0,0.0,0.0,0.0,0.0,0.0,0.0,0.0,0.0,0.0,0.0,0.0,0.0,0.0,0.0,0.0,0.0,0.0,0.0,0.0,0.0,0.0,0.0,0.0,0.0,0.0,0.0,0.0,0.0,0.0,0.0,0.0,0.0,0.0,0.0,0.0,0.0,0.0,0.0,0.0,0.0,0.0,0.0,0.0,0.0,0.0,0.0,0.0,0.0,0.0,0.0,0.0,0.0,0.0,0.0,0.0,0.0,0.0,0.0,0.0,0.0,0.0,0.0,0.0,0.0,0.0,0.0,0.0,0.0,0.0,0.0,0.0,0.0,0.0,0.0,0.0,0.0,0.0,0.0,0.0,0.0,0.0,0.0,0.0,0.0,0.0,0.0,0.0,0.0,0.0,0.0,0.0,0.0,0.0,0.0,0.0,0.0,0.0,0.0,0.0,0.0,0.0,0.0,0.0,0.0,0.0,0.0,0.0,0.0,0.0,0.0,0.0,0.0,0.0,0.0,0.0,0.0,0.0,0.0,0.0,0.0,0.0,0.0,0.0,0.0,0.0,0.0,0.0,0.0,0.0,0.0,0.0,0.0,0.0,0.0,0.0,0.0,0.0,0.0,0.0,0.0,0.0,0.0,0.0,0.0,0.0,0.0,0.0,0.0,0.0,0.0,0.0,0.0,0.0,0.0,0.0,0.0,0.0,0.0,0.0,0.0,0.0,0.0,0.0,0.0,0.0,0.0,0.0,0.0,0.0,0.0,0.0,0.0,0.0,0.0,0.0,0.0,0.0,0.0,0.0,0.0,0.0,0.0,0.0,0.0,0.0,0.0,0.0,0.0,0.0,0.0,0.0,0.0,0.0,0.0,0.0,0.0,0.0,0.0,0.0,0.0,0.0,0.0,0.0,0.0,0.0,0.0,0.0,0.0,0.0,0.0,0.0,0.0,0.0,0.0,0.0,0.0,0.0,0.0,0.0,0.0,0.0,0.0,0.0,0.0,0.0,0.0,0.0,0.0,0.0,0.0,0.0,0.0,0.0,0.0,0.0,0.0,0.0,0.0,0.0,0.0,0.0,0.0,0.0,0.0,-3.0526,0.0,0.0,0.0,0.0,0.0,0.0,0.0,0.0,0.0,0.0,0.0,0.0,0.0,0.0,0.0,0.0,0.0,0.0,0.0,0.0,0.0,0.0,0.0,0.0,0.0,0.0,0.0,0.0,0.0,0.0,0.0,0.0,0.0,0.0,0.0,0.0,0.0,0.0,0.0,0.0,0.0,0.0,0.0,0.0,0.0,0.0,0.0,0.0,0.0,0.0,0.0,0.0,0.0,0.0,0.0,0.0,0.0,0.0,0.0,0.0,0.0,0.0,0.0,0.0,0.0,0.0,0.0,0.0,0.0,0.0,0.0,0.0,0.0,0.0,0.0,0.0,0.0,0.0,0.0,0.0,0.0,0.0,0.0,0.0,0.0,0.0,0.0,0.0,0.0,0.0,0.0,0.0,0.0,0.0,0.0,0.0,0.0,0.0,0.0,0.0,0.0,0.0,0.0,0.0,0.0,0.0,0.0,0.0,0.0,0.0,-3.0794,-3.0798,-3.0791,-3.0819,-3.0841,0.0,0.0,0.0,0.0,0.0,0.0,0.0,0.0,0.0,0.0,0.0,0.0,0.0,0.0,0.0,0.0,0.0,0.0,0.0,0.0,0.0,0.0,0.0,0.0,0.0,0.0,0.0,0.0,0.0,0.0,0.0,0.0,0.0,0.0,0.0,0.0,0.0,0.0,0.0,0.0,0.0,0.0,0.0,0.0,0.0,0.0,0.0,0.0,0.0,0.0,0.0,0.0,0.0,0.0,0.0,0.0,0.0,0.0,0.0,0.0,0.0,0.0,0.0,0.0,0.0,0.0,0.0,0.0,0.0,0.0,0.0,0.0,0.0,0.0,0.0,0.0,0.0,0.0,0.0,0.0,0.0,0.0,0.0,0.0,0.0,0.0,0.0,0.0,0.0,0.0,0.0,0.0,0.0,0.0,0.0,0.0,0.0,0.0,0.0,0.0,0.0,0.0,0.0,0.0,0.0,0.0,0.0,0.0,0.0,0.0,0.0,0.0,-3.1401,-3.1289,-3.1094,0.0,0.0,0.0,0.0,0.0,0.0,0.0,0.0,0.0,0.0,0.0,0.0,0.0,0.0,0.0,0.0,0.0,0.0,0.0,0.0,0.0,0.0,0.0,0.0,0.0,0.0,0.0,0.0,0.0,0.0,0.0,0.0,0.0,0.0,0.0,0.0,0.0,0.0,0.0,0.0,0.0,0.0,0.0,0.0,0.0,0.0,0.0,0.0,0.0,0.0,0.0,0.0,0.0,0.0,0.0,0.0,0.0,0.0,0.0,0.0,0.0,0.0,0.0,0.0,0.0,0.0,0.0,0.0,0.0,0.0,0.0,0.0,0.0,0.0,0.0,0.0,0.0,0.0,0.0,0.0,0.0,0.0,0.0,0.0,0.0,0.0,0.0,0.0,0.0,0.0,0.0,0.0,0.0,0.0,0.0,0.0,0.0,0.0,0.0,0.0,0.0,0.0,0.0,0.0,0.0,0.0,0.0,0.0,0.0,0.0,-3.3158,-3.3163,-3.3144,0.0,-3.2012,0.0,0.0,0.0,0.0,0.0,0.0,0.0,0.0,0.0,0.0,0.0,0.0,0.0,0.0,0.0,0.0,0.0,0.0,0.0,0.0,0.0,0.0,0.0,0.0,0.0,0.0,0.0,0.0,0.0,0.0,0.0,0.0,0.0,0.0,0.0,0.0,0.0,0.0,0.0,0.0,0.0,0.0,0.0,0.0,0.0,0.0,0.0,0.0,0.0,0.0,0.0,0.0,0.0,0.0,0.0,0.0,0.0,0.0,0.0,0.0,0.0,0.0,0.0,0.0,0.0,0.0,0.0,0.0,0.0,0.0,0.0,0.0,0.0,0.0,0.0,0.0,0.0,0.0,0.0,0.0,0.0,0.0,0.0,0.0,0.0,0.0,0.0,0.0,0.0,0.0,0.0,0.0,0.0,0.0,0.0,0.0,0.0,0.0,0.0,0.0,0.0,0.0,0.0,0.0,0.0,0.0,0.0,0.0,0.0,0.0,-3.2868,-3.3378,-3.2907,-3.2461,0.0,0.0,0.0,0.0,0.0,0.0,0.0,0.0,0.0,0.0,0.0,0.0,0.0,0.0,0.0,0.0,0.0,0.0,0.0,0.0,0.0,0.0,0.0,0.0,0.0,0.0,0.0,0.0,0.0,0.0,0.0,0.0,0.0,0.0,0.0,0.0,0.0,0.0,0.0,0.0,0.0,0.0,0.0,0.0,0.0,0.0,0.0,0.0,0.0,0.0,0.0,0.0,0.0,0.0,0.0,0.0,0.0,0.0,0.0,0.0,0.0,0.0,0.0,0.0,0.0,0.0,0.0,0.0,0.0,0.0,0.0,0.0,0.0,0.0,0.0,0.0,0.0,0.0,0.0,0.0,0.0,0.0,0.0,0.0,0.0,0.0,0.0,0.0,0.0,0.0,0.0,0.0,0.0,0.0,0.0,0.0,0.0,0.0,0.0,0.0,0.0,0.0,0.0,0.0,0.0,0.0,0.0,0.0,0.0,0.0,-3.2335,-3.2768,-3.3314,-3.2553,-3.2104,-3.2107,0.0,0.0,0.0,0.0,0.0,0.0,0.0,0.0,0.0,0.0,0.0,0.0,0.0,0.0,0.0,0.0,0.0,0.0,0.0,0.0,0.0,0.0,0.0,0.0,0.0,0.0,0.0,0.0,0.0,0.0,0.0,0.0,0.0,0.0,0.0,0.0,0.0,0.0,0.0,0.0,0.0,0.0,0.0,0.0,0.0,0.0,0.0,0.0,0.0,0.0,0.0,0.0,0.0,0.0,0.0,0.0,0.0,0.0,0.0,0.0,0.0,0.0,0.0,0.0,0.0,0.0,0.0,0.0,0.0,0.0,0.0,0.0,0.0,0.0,0.0,0.0,0.0,0.0,0.0,0.0,0.0,0.0,0.0,0.0,0.0,0.0,0.0,0.0,0.0,0.0,0.0,0.0,0.0,0.0,0.0,0.0,0.0,0.0,0.0,0.0,0.0,0.0,0.0,0.0,0.0,0.0,0.0,0.0,-3.2124,-3.2908,-3.3337,-3.3395,-3.2544,-3.2098,0.0,0.0,0.0,0.0,0.0,0.0,0.0,0.0,0.0,0.0,0.0,0.0,0.0,0.0,0.0,0.0,0.0,0.0,0.0,0.0,0.0,0.0,0.0,0.0,0.0,0.0,0.0,0.0,0.0,0.0,0.0,0.0,0.0,0.0,0.0,0.0,0.0,0.0,0.0,0.0,0.0,0.0,0.0,0.0,0.0,0.0,0.0,0.0,0.0,0.0,0.0,0.0,0.0,0.0,0.0,0.0,0.0,0.0,0.0,0.0,0.0,0.0,0.0,0.0,0.0,0.0,0.0,0.0,0.0,0.0,0.0,0.0,0.0,0.0,0.0,0.0,0.0,0.0,0.0,0.0,0.0,0.0,0.0,0.0,0.0,0.0,0.0,0.0,0.0,0.0,0.0,0.0,0.0,0.0,0.0,0.0,0.0,0.0,0.0,0.0,0.0,0.0,0.0,0.0,0.0,0.0,0.0,0.0,0.0,-3.2104,-3.2939,-3.3388,-3.3376,-3.2557,-3.2111,0.0,0.0,0.0,0.0,0.0,0.0,0.0,0.0,0.0,0.0,0.0,0.0,0.0,0.0,0.0,0.0,0.0,0.0,0.0,0.0,0.0,0.0,0.0,0.0,0.0,0.0,0.0,0.0,0.0,0.0,0.0,0.0,0.0,0.0,0.0,0.0,0.0,0.0,0.0,0.0,0.0,0.0,0.0,0.0,0.0,0.0,0.0,0.0,0.0,0.0,0.0,0.0,0.0,0.0,0.0,0.0,0.0,0.0,0.0,0.0,0.0,0.0,0.0,0.0,0.0,0.0,0.0,0.0,0.0,0.0,0.0,0.0,0.0,0.0,0.0,0.0,0.0,0.0,0.0,0.0,0.0,0.0,0.0,0.0,0.0,0.0,0.0,0.0,0.0,0.0,0.0,0.0,0.0,0.0,0.0,0.0,0.0,0.0,0.0,0.0,0.0,0.0,0.0,0.0,0.0,0.0,0.0,0.0,0.0,-3.1664,0.0,-3.2576,-3.2526,-3.1999,-3.1672,0.0,0.0,0.0,0.0,0.0,0.0,0.0,0.0,0.0,0.0,0.0,0.0,0.0,0.0,0.0,0.0,0.0,0.0,0.0,0.0,0.0,0.0,0.0,0.0,0.0,0.0,0.0,0.0,0.0,0.0,0.0,0.0,0.0,0.0,0.0,0.0,0.0,0.0,0.0,0.0,0.0,0.0,0.0,0.0,0.0,0.0,0.0,0.0,0.0,0.0,0.0,0.0,0.0,0.0,0.0,0.0,0.0,0.0,0.0,0.0,0.0,0.0,0.0,0.0,0.0,0.0,0.0,0.0,0.0,0.0,0.0,0.0,0.0,0.0,0.0,0.0,0.0,0.0,0.0,0.0,0.0,0.0,0.0,0.0,0.0,0.0,0.0,0.0,0.0,0.0,0.0,0.0,0.0,0.0,0.0,0.0,0.0,0.0,0.0,0.0,0.0,0.0,0.0,0.0,0.0,0.0,0.0,0.0,-3.0799,-3.0799,-3.0833,-3.0911,-3.0818,-3.0852,-3.0825,0.0,0.0,0.0,0.0,0.0,0.0,0.0,0.0,0.0,0.0,0.0,0.0,0.0,0.0,0.0,0.0,0.0,0.0,0.0,0.0,0.0,0.0,0.0,0.0,0.0,0.0,0.0,0.0,0.0,0.0,0.0,0.0,0.0,0.0,0.0,0.0,0.0,0.0,0.0,0.0,0.0,0.0,0.0,0.0,0.0,0.0,0.0,0.0,0.0,0.0,0.0,0.0,0.0,0.0,0.0,0.0,0.0,0.0,0.0,0.0,0.0,0.0,0.0,0.0,0.0,0.0,0.0,0.0,0.0,0.0,0.0,0.0,0.0,0.0,0.0,0.0,0.0,0.0,0.0,0.0,0.0,0.0,0.0,0.0,0.0,0.0,0.0,0.0,0.0,0.0,0.0,0.0,0.0,0.0,0.0,0.0,0.0,0.0,0.0,0.0,0.0,0.0,0.0,0.0,0.0,0.0,0.0,0.0,0.0,-3.0799,-3.0799,-3.0799,-3.0799,-3.0793,-3.0786,0.0,0.0,0.0,0.0,0.0,0.0,0.0,0.0,0.0,0.0,0.0,0.0,0.0,0.0,0.0,0.0,0.0,0.0,0.0,0.0,0.0,0.0,0.0,0.0,0.0,0.0,0.0,0.0,0.0,0.0,0.0,0.0,0.0,0.0,0.0,0.0,0.0,0.0,0.0,0.0,0.0,0.0,0.0,0.0,0.0,0.0,0.0,0.0,0.0,0.0,0.0,0.0,0.0,0.0,0.0,0.0,0.0,0.0,0.0,0.0,0.0,0.0,0.0,0.0,0.0,0.0,0.0,0.0,0.0,0.0,0.0,0.0,0.0,0.0,0.0,0.0,0.0,0.0,0.0,0.0,0.0,0.0,0.0,0.0,0.0,0.0,0.0,0.0,0.0,0.0,0.0,0.0,0.0,0.0,0.0,0.0,0.0,0.0,0.0,0.0,0.0,0.0,0.0,0.0,0.0,0.0,0.0,0.0,0.0,-3.1256,-3.0959,-3.0784,-3.0789,-3.0798,-3.0786,-3.0798,0.0,0.0,0.0,0.0,0.0,0.0,0.0,0.0,0.0,0.0,0.0,0.0,0.0,0.0,0.0,0.0,0.0,0.0,0.0,0.0,0.0,0.0,0.0,0.0,0.0,0.0,0.0,0.0,0.0,0.0,0.0,0.0,0.0,0.0,0.0,0.0,0.0,0.0,0.0,0.0,0.0,0.0,0.0,0.0,0.0,0.0,0.0,0.0,0.0,0.0,0.0,0.0,0.0,0.0,0.0,0.0,0.0,0.0,0.0,0.0,0.0,0.0,0.0,0.0,0.0,0.0,0.0,0.0,0.0,0.0,0.0,0.0,0.0,0.0,0.0,0.0,0.0,0.0,0.0,0.0,0.0,0.0,0.0,0.0,0.0,0.0,0.0,0.0,0.0,0.0,0.0,0.0,0.0,0.0,0.0,0.0,0.0,0.0,0.0,0.0,0.0,0.0,0.0,0.0,0.0,0.0,0.0,0.0,-3.2093,-3.1339,-3.0969,-3.0977,-3.0981,-3.0954,0.0,0.0,0.0,0.0,0.0,0.0,0.0,0.0,0.0,0.0,0.0,0.0,0.0,0.0,0.0,0.0,0.0,0.0,0.0,0.0,0.0,0.0,0.0,0.0,0.0,0.0,0.0,0.0,0.0,0.0,0.0,0.0,0.0,0.0,0.0,0.0,0.0,0.0,0.0,0.0,0.0,0.0,0.0,0.0,0.0,0.0,0.0,0.0,0.0,0.0,0.0,0.0,0.0,0.0,0.0,0.0,0.0,0.0,0.0,0.0,0.0,0.0,0.0,0.0,0.0,0.0,0.0,0.0,0.0,0.0,0.0,0.0,0.0,0.0,0.0,0.0,0.0,0.0,0.0,0.0,0.0,0.0,0.0,0.0,0.0,0.0,0.0,0.0,0.0,0.0,0.0,0.0,0.0,0.0,0.0,0.0,0.0,0.0,0.0,0.0,0.0,0.0,0.0,0.0,0.0,0.0,0.0,0.0,0.0,-3.2099,-3.2505,-3.2723,-3.274,-3.2709,-3.2726,0.0,0.0,0.0,0.0,0.0,0.0,0.0,0.0,0.0,0.0,0.0,0.0,0.0,0.0,0.0,0.0,0.0,0.0,0.0,0.0,0.0,0.0,0.0,0.0,0.0,0.0,0.0,0.0,0.0,0.0,0.0,0.0,0.0,0.0,0.0,0.0,0.0,0.0,0.0,0.0,0.0,0.0,0.0,0.0,0.0,0.0,0.0,0.0,0.0,0.0,0.0,0.0,0.0,0.0,0.0,0.0,0.0,0.0,0.0,0.0,0.0,0.0,0.0,0.0,0.0,0.0,0.0,0.0,0.0,0.0,0.0,0.0,0.0,0.0,0.0,0.0,0.0,0.0,0.0,0.0,0.0,0.0,0.0,0.0,0.0,0.0,0.0,0.0,0.0,0.0,0.0,0.0,0.0,0.0,0.0,0.0,0.0,0.0,0.0,0.0,0.0,0.0,0.0,0.0,0.0,0.0,0.0,0.0,-3.2822,-3.3184,-3.3678,-3.4113,-3.45,-3.3777,-3.3392,0.0,0.0,0.0,0.0,0.0,0.0,0.0,0.0,0.0,0.0,0.0,0.0,0.0,0.0,0.0,0.0,0.0,0.0,0.0,0.0,0.0,0.0,0.0,0.0,0.0,0.0,0.0,0.0,0.0,0.0,0.0,0.0,0.0,0.0,0.0,0.0,0.0,0.0,0.0,0.0,0.0,0.0,0.0,0.0,0.0,0.0,0.0,0.0,0.0,0.0,0.0,0.0,0.0,0.0,0.0,0.0,0.0,0.0,0.0,0.0,0.0,0.0,0.0,0.0,0.0,0.0,0.0,0.0,0.0,0.0,0.0,0.0,0.0,0.0,0.0,0.0,0.0,0.0,0.0,0.0,0.0,0.0,0.0,0.0,0.0,0.0,0.0,0.0,0.0,0.0,0.0,0.0,0.0,0.0,0.0,0.0,0.0,0.0,0.0,0.0,0.0,0.0,0.0,0.0,0.0,0.0,0.0,0.0,-3.3916,-3.4661,-3.4881,-3.5293,-3.5915,-3.4491,-3.3671,0.0,0.0,0.0,0.0,0.0,0.0,0.0,0.0,0.0,0.0,0.0,0.0,0.0,0.0,0.0,0.0,0.0,0.0,0.0,0.0,0.0,0.0,0.0,0.0,0.0,0.0,0.0,0.0,0.0,0.0,0.0,0.0,0.0,0.0,0.0,0.0,0.0,0.0,0.0,0.0,0.0,0.0,0.0,0.0,0.0,0.0,0.0,0.0,0.0,0.0,0.0,0.0,0.0,0.0,0.0,0.0,0.0,0.0,0.0,0.0,0.0,0.0,0.0,0.0,0.0,0.0,0.0,0.0,0.0,0.0,0.0,0.0,0.0,0.0,0.0,0.0,0.0,0.0,0.0,0.0,0.0,0.0,0.0,0.0,0.0,0.0,0.0,0.0,0.0,0.0,0.0,0.0,0.0,0.0,0.0,0.0,0.0,0.0,0.0,0.0,0.0,0.0,0.0,0.0,0.0,0.0,0.0,0.0,-3.4519,-3.4704,-3.6035,-3.6516,-3.6018,-3.5647,-3.5452,0.0,0.0,0.0,0.0,0.0,0.0,0.0,0.0,0.0,0.0,0.0,0.0,0.0,0.0,0.0,0.0,0.0,0.0,0.0,0.0,0.0,0.0,0.0,0.0,0.0,0.0,0.0,0.0,0.0,0.0,0.0,0.0,0.0,0.0,0.0,0.0,0.0,0.0,0.0,0.0,0.0,0.0,0.0,0.0,0.0,0.0,0.0,0.0,-3.4624,0.0,0.0,0.0,0.0,0.0,0.0,0.0,0.0,0.0,0.0,0.0,0.0,0.0,0.0,0.0,0.0,0.0,0.0,0.0,0.0,0.0,0.0,0.0,0.0,0.0,0.0,0.0,0.0,0.0,0.0,0.0,0.0,0.0,0.0,0.0,0.0,0.0,0.0,0.0,0.0,0.0,0.0,0.0,0.0,0.0,0.0,0.0,0.0,0.0,0.0,0.0,0.0,0.0,0.0,0.0,0.0,0.0,0.0,0.0,-3.5312,-3.5349,-3.6222,-3.6467,-3.6033,-3.601,-3.601,0.0,0.0,0.0,0.0,0.0,0.0,0.0,0.0,0.0,0.0,0.0,0.0,0.0,0.0,0.0,0.0,0.0,0.0,0.0,0.0,0.0,0.0,0.0,0.0,0.0,0.0,0.0,0.0,0.0,0.0,0.0,0.0,0.0,0.0,0.0,0.0,0.0,0.0,0.0,0.0,0.0,0.0,0.0,0.0,0.0,0.0,0.0,0.0,0.0,0.0,0.0,0.0,0.0,0.0,0.0,0.0,0.0,0.0,0.0,0.0,0.0,0.0,0.0,0.0,0.0,0.0,0.0,0.0,0.0,0.0,0.0,0.0,0.0,0.0,0.0,0.0,0.0,0.0,0.0,0.0,0.0,0.0,0.0,0.0,0.0,0.0,0.0,0.0,0.0,0.0,0.0,0.0,0.0,0.0,0.0,0.0,0.0,0.0,0.0,0.0,0.0,0.0,0.0,0.0,0.0,0.0,0.0,-3.5625,-3.6012,-3.6013,-3.6127,-3.6127,-3.601,-3.6127,-3.6127,-3.5971,0.0,0.0,0.0,0.0,0.0,0.0,0.0,0.0,0.0,0.0,0.0,0.0,0.0,0.0,0.0,0.0,0.0,0.0,0.0,0.0,0.0,0.0,0.0,0.0,0.0,0.0,0.0,0.0,0.0,0.0,0.0,0.0,0.0,0.0,0.0,0.0,0.0,0.0,-3.125,-3.2842,0.0,0.0,0.0,0.0,0.0,0.0,0.0,0.0,-3.4908,0.0,0.0,0.0,0.0,0.0,0.0,0.0,0.0,0.0,0.0,0.0,0.0,0.0,0.0,0.0,0.0,0.0,0.0,0.0,0.0,0.0,0.0,0.0,0.0,0.0,0.0,0.0,0.0,0.0,0.0,0.0,0.0,0.0,0.0,0.0,0.0,0.0,0.0,0.0,0.0,0.0,0.0,0.0,0.0,0.0,0.0,0.0,0.0,0.0,0.0,0.0,0.0,0.0,0.0,0.0,0.0,-3.5776,-3.5937,-3.6007,-3.6013,-3.6716,-3.6735,-3.6049,-3.6716,-3.6755,-3.5991,0.0,0.0,0.0,0.0,0.0,0.0,0.0,0.0,0.0,0.0,0.0,0.0,0.0,0.0,0.0,0.0,0.0,0.0,0.0,0.0,0.0,0.0,0.0,0.0,0.0,0.0,0.0,0.0,0.0,0.0,0.0,0.0,0.0,0.0,0.0,0.0,0.0,0.0,0.0,-3.3657,-3.4737,0.0,0.0,0.0,0.0,0.0,0.0,0.0,0.0,-3.4908,0.0,0.0,0.0,0.0,0.0,0.0,0.0,0.0,0.0,0.0,0.0,0.0,0.0,0.0,0.0,0.0,0.0,0.0,0.0,0.0,0.0,0.0,0.0,0.0,0.0,0.0,0.0,0.0,0.0,0.0,0.0,0.0,0.0,0.0,0.0,0.0,0.0,0.0,0.0,0.0,0.0,0.0,0.0,0.0,0.0,0.0,0.0,0.0,0.0,0.0,0.0,0.0,0.0,0.0,0.0,-3.5976,-3.601,-3.6018,-3.601,-3.642,-3.642,-3.601,-3.6401,-3.644,0.0,0.0,0.0,0.0,0.0,0.0,0.0,0.0,0.0,0.0,0.0,0.0,0.0,0.0,0.0,0.0,0.0,0.0,0.0,0.0,0.0,0.0,0.0,0.0,0.0,0.0,0.0,0.0,0.0,0.0,0.0,0.0,0.0,0.0,0.0,0.0,0.0,0.0,0.0,0.0,-3.4131,-3.4908,-3.4908,0.0,0.0,0.0,0.0,0.0,0.0,-3.4927,-3.4945,0.0,0.0,0.0,0.0,0.0,0.0,0.0,0.0,0.0,0.0,0.0,0.0,0.0,0.0,0.0,0.0,0.0,0.0,0.0,0.0,0.0,0.0,0.0,0.0,0.0,0.0,0.0,0.0,0.0,0.0,0.0,0.0,0.0,0.0,0.0,0.0,0.0,0.0,0.0,0.0,0.0,0.0,0.0,0.0,0.0,0.0,0.0,0.0,0.0,0.0,0.0,0.0,0.0,0.0,0.0,-3.6011,-3.6021,-3.601,-3.601,-3.601,-3.601,-3.601,-3.601,-3.601,0.0,0.0,0.0,0.0,0.0,0.0,0.0,0.0,0.0,0.0,0.0,0.0,0.0,0.0,0.0,0.0,0.0,0.0,0.0,0.0,0.0,0.0,0.0,0.0,0.0,0.0,0.0,0.0,0.0,0.0,0.0,0.0,0.0,0.0,0.0,0.0,0.0,0.0,0.0,0.0,0.0,-3.4927,-3.4927,-3.4927,0.0,0.0,0.0,0.0,-3.4945,-3.4983,0.0,0.0,0.0,0.0,0.0,0.0,0.0,0.0,0.0,0.0,0.0,0.0,0.0,0.0,0.0,0.0,0.0,0.0,0.0,0.0,0.0,0.0,0.0,0.0,0.0,0.0,0.0,0.0,0.0,0.0,0.0,0.0,0.0,0.0,0.0,0.0,0.0,0.0,0.0,0.0,0.0,0.0,0.0,0.0,0.0,0.0,0.0,0.0,0.0,0.0,0.0,0.0,0.0,0.0,0.0,0.0,-3.6016,-3.6013,-3.601,-3.601,-3.601,-3.601,-3.601,-3.601,-3.601,0.0,0.0,0.0,0.0,0.0,0.0,0.0,0.0,0.0,0.0,0.0,0.0,0.0,0.0,0.0,0.0,0.0,0.0,0.0,0.0,0.0,0.0,0.0,0.0,0.0,0.0,0.0,0.0,0.0,0.0,0.0,0.0,0.0,0.0,0.0,0.0,0.0,0.0,0.0,0.0,0.0,-3.5057,-3.5001,-3.5038,-3.5075,0.0,0.0,-3.5075,-3.5075,-3.5075,0.0,0.0,0.0,0.0,0.0,0.0,0.0,0.0,0.0,0.0,0.0,0.0,0.0,0.0,0.0,0.0,0.0,0.0,0.0,0.0,0.0,0.0,0.0,0.0,0.0,0.0,0.0,0.0,0.0,0.0,0.0,0.0,0.0,0.0,0.0,0.0,0.0,0.0,0.0,0.0,0.0,0.0,0.0,0.0,0.0,0.0,0.0,0.0,0.0,0.0,0.0,0.0,0.0,0.0,0.0,-3.6011,-3.6013,-3.601,-3.601,-3.601,-3.601,-3.601,-3.601,-3.601,-3.601,0.0,0.0,0.0,0.0,0.0,0.0,0.0,0.0,0.0,0.0,0.0,0.0,0.0,0.0,0.0,0.0,0.0,0.0,0.0,0.0,0.0,0.0,0.0,0.0,0.0,0.0,0.0,0.0,0.0,0.0,0.0,0.0,0.0,0.0,0.0,0.0,0.0,0.0,0.0,0.0,0.0,0.0,-3.5054,-3.5092,0.0,0.0,0.0,-3.5092,-3.5092,0.0,0.0,0.0,0.0,0.0,0.0,0.0,0.0,0.0,0.0,0.0,0.0,0.0,0.0,0.0,0.0,0.0,0.0,0.0,0.0,0.0,0.0,0.0,0.0,0.0,0.0,0.0,0.0,0.0,0.0,0.0,0.0,0.0,0.0,0.0,0.0,0.0,0.0,0.0,0.0,0.0,0.0,0.0,0.0,0.0,0.0,0.0,0.0,0.0,0.0,0.0,0.0,0.0,0.0,0.0,0.0,0.0,-3.6013,-3.601,-3.601,-3.601,-3.601,-3.601,-3.601,-3.601,0.0,0.0,0.0,0.0,0.0,0.0,0.0,0.0,0.0,0.0,0.0,0.0,0.0,0.0,0.0,0.0,0.0,0.0,0.0,0.0,0.0,0.0,0.0,0.0,0.0,0.0,0.0,-3.4685,0.0,0.0,0.0,0.0,0.0,0.0,0.0,0.0,0.0,0.0,0.0,0.0,0.0,0.0,-3.5127,-3.5124,-3.5126,-3.5204,0.0,0.0,-3.5451,-3.5451,-3.5505,-3.5465,0.0,0.0,0.0,0.0,0.0,0.0,0.0,0.0,0.0,0.0,0.0,0.0,0.0,0.0,0.0,0.0,0.0,0.0,0.0,0.0,0.0,0.0,0.0,0.0,0.0,0.0,0.0,0.0,0.0,0.0,0.0,0.0,0.0,0.0,0.0,0.0,0.0,0.0,0.0,0.0,0.0,0.0,0.0,0.0,0.0,0.0,0.0,0.0,0.0,0.0,0.0,0.0,0.0,0.0,-3.6013,-3.601,-3.601,-3.601,-3.601,-3.601,-3.601,-3.601,-3.601,-3.601,0.0,0.0,0.0,0.0,0.0,0.0,0.0,0.0,0.0,0.0,0.0,0.0,0.0,0.0,0.0,0.0,0.0,0.0,0.0,0.0,0.0,0.0,0.0,0.0,0.0,0.0,0.0,0.0,0.0,0.0,0.0,0.0,0.0,0.0,0.0,0.0,0.0,0.0,0.0,0.0,0.0,-3.5193,-3.5174,-3.5174,-3.5479,0.0,-3.6396,-3.6396,-3.6415,-3.6396,-3.6129,-3.5343,0.0,0.0,0.0,0.0,0.0,0.0,0.0,0.0,0.0,0.0,0.0,0.0,0.0,0.0,0.0,0.0,0.0,0.0,0.0,0.0,0.0,0.0,0.0,0.0,0.0,0.0,0.0,0.0,0.0,0.0,0.0,0.0,0.0,0.0,0.0,0.0,0.0,0.0,0.0,0.0,0.0,0.0,0.0,0.0,0.0,0.0,0.0,0.0,0.0,0.0,0.0,0.0,0.0,-3.601,-3.601,-3.601,-3.601,-3.601,-3.601,-3.601,-3.601,-3.601,-3.601,0.0,0.0,0.0,0.0,0.0,0.0,0.0,0.0,0.0,0.0,0.0,0.0,0.0,0.0,0.0,0.0,0.0,0.0,0.0,0.0,0.0,0.0,0.0,0.0,0.0,0.0,0.0,0.0,-3.5826,-3.5788,-3.5727,0.0,0.0,0.0,0.0,0.0,0.0,0.0,0.0,0.0,0.0,-3.6012,-3.6012,-3.6432,0.0,0.0,-3.7254,-3.7082,-3.6585,-3.6491,-3.6203,-3.5343,-3.519,0.0,0.0,0.0,0.0,0.0,0.0,0.0,0.0,0.0,0.0,0.0,0.0,0.0,0.0,0.0,0.0,0.0,0.0,0.0,0.0,0.0,0.0,0.0,0.0,0.0,0.0,0.0,0.0,0.0,0.0,0.0,0.0,0.0,0.0,0.0,0.0,0.0,0.0,0.0,0.0,0.0,0.0,0.0,0.0,0.0,0.0,0.0,0.0,0.0,0.0,0.0,0.0,-3.6401,-3.6401,-3.6127,-3.601,-3.601,-3.601,-3.601,-3.601,-3.601,-3.601,0.0,0.0,0.0,0.0,0.0,0.0,0.0,0.0,0.0,0.0,0.0,0.0,0.0,0.0,0.0,0.0,0.0,0.0,0.0,0.0,0.0,0.0,0.0,0.0,0.0,0.0,0.0,0.0,-3.5993,-3.576,-3.5718,0.0,0.0,0.0,0.0,0.0,0.0,0.0,0.0,0.0,0.0,-3.6587,-3.6835,-3.7349,-3.7769,-3.8056,-3.8094,-3.7903,-3.733,-3.7254,-3.6871,-3.5763,0.0,0.0,0.0,0.0,0.0,0.0,0.0,0.0,0.0,0.0,0.0,0.0,0.0,0.0,0.0,0.0,0.0,0.0,0.0,0.0,0.0,0.0,0.0,0.0,0.0,0.0,0.0,-3.8102,0.0,0.0,-3.8141,0.0,0.0,0.0,0.0,0.0,0.0,0.0,0.0,0.0,0.0,0.0,0.0,0.0,0.0,0.0,0.0,0.0,0.0,0.0,0.0,0.0,0.0,-3.7282,-3.7282,-3.6482,-3.603,-3.603,-3.601,-3.601,-3.601,-3.601,-3.601,-3.601,0.0,0.0,0.0,0.0,0.0,0.0,0.0,0.0,0.0,0.0,0.0,0.0,0.0,0.0,0.0,0.0,0.0,0.0,0.0,0.0,0.0,0.0,0.0,0.0,0.0,0.0,-3.7111,-3.6351,-3.5775,0.0,0.0,0.0,0.0,0.0,0.0,0.0,0.0,0.0,-3.6348,-3.6506,-3.6797,-3.7562,-3.7714,-3.8094,-3.8877,-3.8992,-3.8973,-3.8935,-3.8916,-3.84,0.0,0.0,0.0,0.0,0.0,0.0,0.0,0.0,0.0,0.0,0.0,0.0,0.0,0.0,0.0,0.0,0.0,0.0,0.0,0.0,0.0,0.0,0.0,0.0,0.0,0.0,0.0,-4.0101,-3.9088,0.0,0.0,0.0,0.0,0.0,0.0,0.0,0.0,0.0,0.0,0.0,-4.1071,-4.1086,0.0,0.0,0.0,0.0,0.0,0.0,0.0,0.0,0.0,0.0,0.0,0.0,-3.816,-3.8121,-3.7301,-3.6872,-3.6852,-3.6284,-3.601,-3.601,-3.601,-3.601,-3.601,0.0,0.0,0.0,0.0,0.0,0.0,0.0,0.0,0.0,0.0,0.0,0.0,0.0,0.0,0.0,0.0,0.0,0.0,0.0,0.0,0.0,0.0,0.0,0.0,0.0,-3.6962,0.0,0.0,0.0,0.0,0.0,0.0,0.0,0.0,0.0,0.0,-3.5706,-3.6165,-3.6463,-3.7462,-3.8266,-3.8534,-3.9527,-4.0329,0.0,0.0,0.0,0.0,0.0,0.0,0.0,0.0,0.0,0.0,0.0,0.0,0.0,0.0,-3.8075,-3.775,-3.7693,-3.7617,-3.7349,0.0,0.0,0.0,0.0,0.0,0.0,0.0,0.0,0.0,0.0,0.0,0.0,0.0,0.0,-4.1841,-4.0892,-4.0854,0.0,0.0,0.0,0.0,0.0,0.0,0.0,0.0,-4.0993,-4.1058,-4.1106,-4.1117,-4.1108,-4.115,-4.1142,-4.1136,0.0,0.0,0.0,0.0,0.0,0.0,0.0,0.0,-3.9039,-3.898,-3.818,-3.775,-3.7731,-3.7204,-3.6911,-3.6911,-3.6618,-3.6303,-3.601,-3.6284,-3.6462,0.0,0.0,0.0,0.0,0.0,0.0,0.0,0.0,0.0,0.0,0.0,0.0,0.0,0.0,0.0,0.0,0.0,0.0,0.0,0.0,0.0,0.0,0.0,-3.7715,0.0,0.0,0.0,0.0,0.0,0.0,0.0,0.0,0.0,-3.5687,-3.6146,-3.67,-3.7305,-3.8322,-3.9107,-3.9393,0.0,0.0,0.0,0.0,0.0,0.0,0.0,-3.9584,-3.8744,-3.8839,-3.9126,-3.9412,-3.949,-3.9662,-4.0215,0.0,0.0,-3.882,-3.8591,-3.8514,-3.8244,-3.8187,-3.811,-3.7821,-3.7797,-3.7833,0.0,0.0,0.0,0.0,-4.2028,0.0,0.0,0.0,-4.3374,-4.3401,0.0,-4.3376,0.0,0.0,0.0,0.0,-4.1024,-4.1041,0.0,0.0,-4.1212,-4.1198,-4.1205,-4.1228,-4.1228,-4.1267,-4.1318,-4.1318,-4.1306,-4.1247,0.0,0.0,0.0,0.0,0.0,0.0,-3.9897,-3.9819,-3.9058,-3.8629,-3.8629,-3.859,-3.859,-3.8551,-3.777,-3.695,-3.6186,-3.6911,-3.734,-3.736,-3.816,0.0,0.0,0.0,0.0,0.0,0.0,0.0,0.0,0.0,0.0,0.0,0.0,0.0,0.0,0.0,0.0,0.0,0.0,0.0,0.0,-4.024,0.0,0.0,0.0,0.0,0.0,0.0,0.0,0.0,0.0,-3.7477,-3.6719,-3.6623,-3.7158,-3.8759,0.0,0.0,0.0,0.0,-4.159,-4.1609,-4.2297,-4.2545,-4.1724,-4.1552,-4.1246,-4.0501,0.0,0.0,-4.2622,-4.2756,-4.2679,-4.2775,-4.266,-4.2278,-4.0673,-4.0368,-4.0157,-3.9446,-3.9329,-3.8982,-3.8306,-3.8405,-3.8312,-4.4446,0.0,0.0,0.0,0.0,-4.3589,-4.3995,-4.4266,-4.4905,-4.4821,-4.4247,-4.4311,0.0,0.0,0.0,0.0,0.0,0.0,-4.2864,-4.2927,-4.2944,-4.2963,-4.2946,-4.2943,-4.2967,-4.2987,-4.2987,-4.2987,-4.2987,-4.2967,-4.2324,-4.113,0.0,0.0,0.0,0.0,-4.0737,-4.0678,-3.9878,-3.9468,-3.9449,-3.8902,-3.8609,-3.8609,-3.8355,-3.8102,-3.7867,-3.8102,-3.8219,-3.8238,-3.9019,0.0,0.0,0.0,0.0,0.0,0.0,0.0,0.0,0.0,0.0,0.0,0.0,0.0,0.0,0.0,0.0,0.0,0.0,0.0,-4.0234,-3.9903,-3.9356,0.0,0.0,0.0,0.0,0.0,0.0,0.0,0.0,0.0,-3.8228,-3.8285,-3.8475,0.0,0.0,-4.0883,-4.1112,-4.2392,-4.3291,-4.3291,-4.352,0.0,-4.3348,-4.2794,-4.2354,-4.2125,-4.2278,-4.2526,-4.2756,-4.2792,-4.2791,-4.2793,-4.2775,-4.2642,-4.2221,-4.2087,-4.201,-4.1837,-4.1797,-4.1757,-4.1527,-4.1487,-4.133,-4.6728,-4.5258,-4.4601,-4.4504,-4.4852,-4.5344,-4.5802,-4.6176,-4.6707,-4.6453,-4.5662,-4.572,-4.5082,-4.3967,-4.3683,0.0,0.0,0.0,-4.3668,-4.3704,-4.3704,-4.3697,-4.371,-4.3708,-4.3711,-4.3711,-4.3711,-4.3711,-4.3711,-4.3708,-4.3177,-4.217,0.0,-4.2142,-4.2123,-4.2142,-4.2142,-4.2103,-4.1615,-4.1186,-4.0815,-4.0034,-3.9429,-3.9097,-3.9078,-3.8921,-3.8609,-3.8902,-3.9078,-3.9097,-3.9878,-4.0327,0.0,0.0,0.0,0.0,0.0,0.0,0.0,0.0,0.0,0.0,0.0,-4.111,-4.111,0.0,0.0,0.0,-4.111,-4.0896,-4.037,-4.0253,0.0,0.0,0.0,0.0,0.0,0.0,0.0,-3.8895,-3.8793,-3.8915,-3.9451,-3.9527,-3.9641,-3.9964,-4.0864,-4.1628,-4.197,0.0,-4.4017,-4.4017,-4.4284,-4.4399,-4.4055,-4.3615,-4.3291,-4.3291,-4.3596,-4.3768,-4.3787,-4.3784,-4.3784,-4.3827,-4.3828,-4.3848,-4.3848,-4.3886,-4.3636,-4.3078,-4.2944,-4.2944,-4.2981,-4.3015,-4.2879,-4.8604,-4.8469,-4.6941,-4.6651,-4.7192,-4.7196,-4.7694,-4.8468,-4.849,-4.8083,-4.7416,-4.7407,-4.6552,-4.5064,-4.4189,0.0,-4.3832,-4.3888,-4.3919,-4.3914,-4.3895,-4.3886,-4.3908,-4.3924,-4.3906,-4.3926,-4.3906,-4.3906,-4.3926,-4.393,-4.3905,-4.3898,-4.3908,-4.384,-4.3704,-4.3684,-4.3704,-4.3704,-4.3684,-4.3313,-4.2513,-4.1654,-4.0815,-4.0034,-3.9937,-3.9566,-3.8866,-3.9507,-3.9897,-3.9937,-4.0678,-4.1108,-4.1108,0.0,0.0,0.0,0.0,0.0,0.0,0.0,0.0,0.0,0.0,0.0,0.0,0.0,0.0,0.0,-4.111,0.0,-4.111,-4.1038,0.0,0.0,0.0,-4.0867,-4.08,-4.0675,-4.0545,-4.0422,0.0,0.0,-4.031,-4.031,-4.0635,-4.1475,-4.159,-4.1915,-4.2789,-4.3594,-4.4131,-4.4169,-4.4781,-4.501,-4.4322,-4.4131,-4.4112,-4.4131,-4.4781,-4.5182,-4.5203,-4.5222,-4.53,-4.5283,-4.5399,-4.538,-4.5476,-4.536,-4.5033,-4.3553,-4.3284,-4.3282,-4.3376,-4.3431,-4.3412,-5.0306,-5.0268,-4.9881,-4.9088,-4.8101,-4.8097,-4.8247,-4.8482,-4.849,-4.8425,-4.8312,-4.8292,-4.7757,-4.6839,-4.5969,-4.5616,-4.566,-4.5685,-4.5675,-4.5672,-4.5695,-4.569,-4.5683,-4.5683,-4.5683,-4.5683,-4.5683,-4.5682,-4.5687,-4.5679,-4.5675,-4.5682,-4.5679,-4.5012,-4.3743,-4.3704,-4.3704,-4.3704,-4.3704,-4.3606,-4.3372,-4.2536,-4.2006,-4.1771,-4.1147,-4.0717,-4.0522,-4.0678,-4.0795,-4.0795,-4.0991,-4.1108,-4.1108,-4.1108,0.0,0.0,0.0,0.0,0.0,0.0,0.0,0.0,0.0,-4.1103,-4.111,0.0,-4.111,0.0,-4.111,-4.111,-4.111,-4.1052,0.0,0.0,-4.0945,-4.0888,-4.08,-4.0675,-4.0559,-4.0489,-4.0411,-4.0362,-4.0381,-4.0326,-4.0863,-4.2259,-4.2489,-4.2774,-4.3592,-4.4454,-4.4991,-4.4991,-4.5144,-4.522,-4.501,-4.4991,-4.4972,-4.4991,-4.5201,-4.5375,-4.5378,-4.538,-4.5381,-4.5381,-4.5438,-4.5476,-4.5495,-4.555,-4.5453,-4.5066,-4.4989,-4.4989,-4.4989,-4.497,-4.4778,-5.2066,-5.2066,-5.2047,-5.1525,-5.0616,-4.9861,-4.9563,-4.9644,-4.9678,-4.9496,-4.9187,-4.8864,-4.8448,-4.8055,-4.7577,-4.7377,-4.7401,-4.7432,-4.7461,-4.7452,-4.7452,-4.7458,-4.7441,-4.707,-4.6894,-4.6875,-4.6484,-4.6306,-4.6303,-4.63,-4.63,-4.63,-4.63,-4.5812,-4.4914,-4.4855,-4.4836,-4.4855,-4.4484,-4.4289,-4.425,-4.343,-4.2786,-4.2415,-4.1927,-4.1498,-4.1127,-4.1108,-4.1108,-4.1108,-4.1108,-4.1108,-4.1108,-4.1108,-4.1108,0.0,0.0,0.0,0.0,0.0,0.0,0.0,0.0,0.0,0.0,0.0,-4.1117,-4.111,-4.111,-4.111,-4.111,-4.1059,-4.0979,-4.0976,-4.0963,-4.0917,-4.0846,-4.0745,-4.0668,-4.0598,-4.0508,-4.0427,-4.0411,-4.0705,-4.1396,-4.268,-4.3178,-4.3694,-4.4435,-4.501,-4.5277,-4.5277,-4.5277,-4.5298,-4.5338,-4.5339,-4.5341,-4.536,-4.5376,-4.5415,-4.5399,-4.54,-4.5399,-4.5438,-4.5457,-4.5513,-4.5531,-4.5568,-4.5586,-4.5586,-4.5586,-4.5586,-4.5586,-4.5586,-4.5432,-5.3498,-5.3498,-5.3498,-5.3498,-5.3382,-5.1873,-5.1304,-5.1402,-5.1302,-5.0839,-5.011,-4.9315,-4.897,-4.895,-4.8845,-4.8798,-4.8798,-4.8853,-4.8884,-4.8887,-4.8887,-4.8887,-4.8867,-4.8105,-4.7754,-4.7734,-4.7012,-4.6579,-4.6479,-4.6475,-4.6417,-4.63,-4.63,-4.63,-4.63,-4.63,-4.63,-4.628,-4.5558,-4.5168,-4.5168,-4.4328,-4.3447,-4.2611,-4.2474,-4.1986,-4.1147,-4.1108,-4.1108,-4.1108,-4.1108,-4.1108,-4.1108,-4.1205,-4.1264,0.0,-4.2084,0.0,0.0,0.0,0.0,0.0,0.0,0.0,0.0,-4.1788,-4.1226,-4.111,-4.111,-4.111,-4.111,-4.1039,-4.1006,-4.0984,-4.0988,-4.0974,-4.0917,-4.0846,-4.0776,-4.0713,-4.0694,-4.0658,-4.0668,-4.1349,-4.2178,-4.3023,-4.3694,-4.4384,-4.5148,-4.53,-4.5319,-4.5298,-4.5317,-4.5339,-4.5399,-4.5419,-4.54,-4.5419,-4.5399,-4.5436,-4.5419,-4.5436,-4.5453,-4.5494,-4.5513,-4.5531,-4.5586,-4.5586,-4.5586,-4.5622,-4.5603,-4.5603,-4.5603,-4.5586,-4.5586,-5.3498,-5.3498,-5.3498,-5.3498,-5.3478,-5.313,-5.3062,-5.3078,-5.2382,-5.1645,-5.0928,-5.0124,-4.9822,-4.9796,-4.9123,-4.881,-4.8798,-4.8821,-4.8838,-4.8887,-4.8887,-4.8887,-4.8887,-4.873,-4.8652,-4.8633,-4.8496,-4.8046,-4.7354,-4.7364,-4.7006,-4.6319,-4.63,-4.63,-4.63,0.0,0.0,0.0,-4.6124,-4.6046,-4.6027,-4.5207,-4.4328,-4.3469,-4.2767,0.0,-4.1166,-4.1108,-4.1108,-4.1108,-4.1108,0.0,0.0,0.0,0.0,0.0,0.0,0.0,0.0,0.0,0.0,0.0,-4.3798,-4.3263,-4.3402,-4.2646,-4.185,-4.1188,-4.111,-4.111,-4.111,-4.1085,-4.1059,-4.1006,-4.0999,-4.0976,-4.0907,-4.0907,-4.0834,-4.0732,-4.1299,-4.1702,-4.1677,-4.2329,-4.3126,-4.384,-4.4152,-4.4518,-4.5285,-4.5381,-4.5381,-4.5381,-4.5361,-4.54,-4.54,-4.5419,-4.5419,-4.54,-4.5458,-4.5477,-4.5476,-4.5531,-4.5547,-4.5568,-4.5605,-4.5586,-4.5586,-4.5586,-4.5603,-4.5657,-4.5693,-4.5676,-4.5603,-4.5586,-4.5586,-5.4735,-5.4716,-5.4716,-5.4716,0.0,-5.4735,-5.4768,-5.4735,-5.3495,-5.2527,-5.1832,-5.1451,-5.1055,-5.0672,-5.0257,-5.0084,-5.0078,-5.0102,-5.0116,-5.0129,-5.0136,-5.0137,-5.0137,-4.9726,-4.9551,-4.9512,-4.9101,-4.8671,-4.8254,-4.8262,-4.7783,-4.6944,-4.6963,-4.6729,-4.6319,-4.63,-4.63,-4.63,-4.63,-4.63,-4.628,-4.587,-4.5226,-4.4367,-4.3489,0.0,0.0,0.0,0.0,0.0,0.0,0.0,0.0,-4.2162,0.0,-4.304,-4.386,-4.4348,-4.4367,-4.4738,-4.5168,-4.5597,-4.5246,-4.4614,-4.3773,-4.3295,-4.2674,-4.1792,-4.1695,-4.152,-4.1149,-4.111,-4.126,-4.1578,-4.1648,-4.1789,-4.2157,-4.2218,-4.2159,-4.2117,-4.2407,-4.2615,-4.2607,-4.3284,-4.3894,-4.4363,-4.4718,-4.507,-4.5453,-4.5476,-4.54,-4.54,-4.5419,-4.5457,-4.5438,-4.5495,-4.5475,-4.5495,-4.5532,-4.555,-4.555,-4.5586,-4.5586,-4.5603,-4.5622,-4.564,-4.5657,-4.5637,-4.5651,-4.5687,-4.5687,-4.5687,-4.5651,-4.5635,-4.5635,-5.6012,-5.6012,-5.6012,-5.6012,-5.6012,-5.6012,-5.6029,-5.6001,-5.4483,0.0,0.0,-5.2777,-5.2336,-5.1546,-5.1583,-5.1531,-5.1391,-5.1386,-5.139,-5.1394,-5.14,-5.1386,-5.1367,-5.0723,-5.043,-5.0371,-4.9687,-4.9257,-4.9114,-4.9121,-4.8662,-4.7881,-4.7686,-4.7159,-4.6358,-4.63,-4.63,-4.63,-4.63,-4.63,-4.63,-4.63,-4.587,-4.5031,-4.4309,-4.3509,-4.2669,-4.181,-4.1322,-4.1322,-4.1322,-4.1654,-4.2357,-4.2689,-4.3177,-4.3879,-4.4738,-4.5226,-4.5246,-4.589,-4.63,-4.63,-4.63,-4.5629,-4.4046,-4.3929,-4.3529,-4.2598,-4.2533,-4.226,-4.1598,-4.1559,-4.1805,-4.2473,-4.2532,-4.2817,-4.3455,-4.3538,-4.3413,-4.3491,-4.3497,-4.3555,-4.3576,-4.4219,-4.4718,-4.4808,-4.5244,-4.569,-4.5671,-4.5549,-4.5457,-4.5438,-4.5495,-4.5513,-4.5513,-4.5568,-4.5586,-4.5586,-4.5586,-4.5586,-4.5586,-4.5622,-4.5622,-4.5603,-4.5657,-4.569,-4.569,-4.5684,-4.568,-4.5715,-4.5715,-4.5715,-4.5731,-4.5712,-4.5696,-5.6012,-5.6012,-5.6012,-5.6012,-5.6012,-5.6012,-5.6031,-5.6029,-5.5128,-5.4298,-5.3619,-5.363,-5.3176,-5.2416,-5.2422,-5.2017,-5.1343,-5.1372,-5.1386,-5.1394,-5.1398,-5.1396,-5.1387,-5.1269,-5.123,-5.123,-5.1113,-5.0663,-5.0012,-4.9918,-4.9481,-4.8642,-4.7939,-4.7178,-4.6378,-4.63,-4.63,-4.63,-4.63,-4.63,-4.63,-4.63,-4.589,-4.5051,-4.4894,-4.4406,-4.3548,-4.2689,-4.222,-4.222,-4.222,-4.2279,-4.2435,-4.3801,-4.4699,-4.4836,-4.5636,-4.6124,-4.6105,-4.6241,-4.63,-4.63,-4.63,-4.5867,-4.4918,-4.482,-4.4421,-4.3538,-4.3415,-4.3389,-4.3254,-4.3195,-4.3195,-4.3403,-4.3422,-4.3493,-4.3673,-4.3685,-4.3681,-4.3646,-4.4151,-4.4575,-4.4568,-4.5125,-4.5548,-4.5592,-4.563,-4.57,-4.5684,-4.5637,-4.5586,-4.5568,-4.5586,-4.5586,-4.5586,-4.5586,-4.5547,-4.5586,-4.5603,-4.5603,-4.5603,-4.564,-4.5693,-4.5673,-4.5687,-4.57,-4.57,-4.568,-4.5731,-4.5781,-4.5781,-4.5795,-4.5805,-4.5786,-4.5752,-5.6437,-5.6031,-5.6012,-5.6012,-5.6012,-5.6012,-5.6031,-5.6051,-5.5707,-5.5123,-5.4433,-5.4443,-5.4,-5.3292,-5.3253,-5.2792,-5.1998,-5.2025,-5.1815,-5.1406,-5.139,-5.1385,-5.1396,-5.1386,-5.1387,-5.1387,-5.1387,-5.119,-5.0832,-5.0796,-5.036,-4.9481,-4.8252,-4.7393,-4.7002,-4.6534,-4.63,-4.63,-4.63,-4.63,-4.63,-4.63,-4.6105,-4.5695,-4.5265,-4.4816,-4.4426,-4.3567,-4.3099,-4.3118,-4.3118,-4.3313,-4.3801,-4.4563,-4.5207,-4.5675,-4.6085,-4.63,-4.63,-4.63,-4.63,-4.63,-4.63,-4.6144,-4.575,-4.5722,-4.5304,-4.4406,-4.4309,-4.4109,-4.3713,-4.3655,-4.3805,-4.426,-4.4299,-4.4507,-4.4922,-4.5005,-4.499,-4.5004,-4.5278,-4.5473,-4.542,-4.5708,-4.5886,-4.5848,-4.58,-4.5742,-4.5715,-4.5703,-4.5654,-4.5618,-4.5274,-4.5197,-4.5468,-4.5163,-4.5141,-4.5543,-4.5657,-4.5657,-4.5654,-4.5687,-4.5687,-4.5703,-4.5715,-4.5746,-4.5761,-4.5791,-4.5819,-4.5827,-4.5841,-4.5854,-4.5854,-4.5867,-4.5827,-5.7095,-5.6302,-5.6302,-5.6186,-5.6012,-5.6012,-5.6051,-5.607,-5.6101,-5.5761,-5.5239,-5.5242,-5.4832,-5.4105,-5.4071,-5.3633,-5.2959,-5.2875,-5.2448,-5.1718,-5.1679,-5.159,-5.1418,-5.14,-5.1386,-5.1387,-5.1387,-5.1386,-5.1394,-5.1402,-5.0965,-5.0048,-4.8798,-4.7978,-4.7588,-4.6944,-4.6495,-4.6319,-4.63,-4.63,-4.63,-4.63,-4.63,-4.6261,-4.5656,-4.5304,-4.5246,-4.4445,-4.3977,-4.3997,-4.3997,-4.4309,-4.4953,-4.5187,-4.5597,-4.6222,-4.63,-4.63,-4.63,-4.63,-4.63,-4.63,-4.63,-4.63,-4.63,-4.6292,-4.6011,-4.5358,-4.5216,-4.4963,-4.447,-4.4319,-4.4529,-4.5123,-4.5195,-4.5423,-4.6053,-4.6208,-4.6201,-4.6185,-4.6149,-4.6065,-4.6047,-4.6007,-4.5956,-4.5917,-4.5848,-4.58,-4.5757,-4.5761,-4.5712,-4.5372,-4.4839,-4.4556,-4.4985,-4.4504,-4.4463,-4.5266,-4.5362,-4.5436,-4.5549,-4.5715,-4.5731,-4.5731,-4.5795,-4.5805,-4.5827,-4.5854,-4.5899,-4.5893,-4.5893,-4.5886,-4.5886,-4.5905,-4.5893,-5.7965,-5.725,-5.7192,-5.6728,-5.607,-5.6012,-5.6012,-5.6012,-5.6082,-5.6078,-5.5959,-5.6054,-5.5618,-5.4961,-5.4894,-5.4458,-5.3711,-5.3758,-5.3315,-5.2543,-5.2547,-5.2156,-5.1492,-5.1418,-5.1396,-5.1387,-5.1387,-5.1384,-5.1385,-5.1394,-5.0965,-5.0184,-4.993,-4.9091,-4.7783,-4.753,-4.71,-4.6319,-4.63,-4.63,-4.63,-4.63,-4.63,-4.63,-4.6222,-4.6183,-4.6105,-4.5343,-4.4894,-4.4894,-4.4875,-4.4914,-4.507,-4.5753,-4.6202,-4.63,-4.63,-4.63,-4.63,-4.63,-4.63,-4.63,-4.63,-4.63,-4.63,-4.63,-4.6296,-4.6132,-4.6147,-4.6006,-4.5977,-4.5899,-4.586,-4.5913,-4.5991,-4.6123,-4.6164,-4.6203,-4.6209,-4.6212,-4.6193,-4.6177,-4.6113,-4.6037,-4.5986,-4.5929,-4.5886,-4.5893,-4.5848,-4.5854,-4.5576,-4.494,-4.4491,-4.4118,-4.3736,-4.3408,-4.3659,-4.4334,-4.4527,-4.4812,-4.5306,-4.565,-4.5795,-4.5786,-4.5847,-4.5874,-4.588,-4.5905,-4.5905,-4.5716,-4.5735,-4.5801,-4.5879,-4.5762,-4.5704,-5.8855,-5.8081,-5.8062,-5.7559,-5.6764,-5.6225,-5.6012,-5.6012,-5.6029,-5.6065,-5.6098,-5.613,-5.5976,-5.5715,-5.5765,-5.5322,-5.4536,-5.4577,-5.4167,-5.3366,-5.2877,-5.2453,-5.2143,-5.1625,-5.1385,-5.1396,-5.1386,-5.1386,-5.14,-5.1385,-5.1219,-5.0848,-5.036,-4.9755,-4.9032,-4.8096,-4.7412,-4.7081,-4.6554,-4.63,-4.63,-4.63,-4.63,-4.63,-4.63,-4.63,-4.6261,-4.5948,-4.5773,-4.5773,-4.5773,-4.5773,-4.5753,-4.6105,-4.63,-4.63,-4.63,-4.63,-4.63,-4.63,-4.63,-4.63,-4.63,-4.63,-4.63,-4.63,-4.63,-4.6296,-4.6296,-4.6292,-4.6269,-4.6269,-4.6264,-4.626,-4.626,-4.6255,-4.6201,-4.6201,-4.6209,-4.6209,-4.6203,-4.6189,-4.6158,-4.6093,-4.6047,-4.5975,-4.5964,-4.5953,-4.5917,-4.5893,-4.5551,-4.4821,-4.4215,-4.3684,-4.3221,-4.2714,-4.2883,-4.3434,-4.3719,-4.4076,-4.48,-4.5098,-4.5273,-4.5712,-4.5744,-4.5808,-4.5949,-4.5894,-4.5867,-4.547,-4.4753,-4.453,-4.453,-4.453,-4.453,-5.9725,-5.8952,-5.8449,-5.7888,-5.7228,-5.636,-5.6012,-5.6012,-5.6012,-5.6029,-5.6082,-5.6082,-5.613,-5.617,-5.6239,-5.5928,-5.5396,-5.5392,-5.4986,-5.4225,-5.3572,-5.3201,-5.2947,-5.2162,-5.1761,-5.171,-5.1517,-5.1386,-5.1387,-5.14,-5.1389,-5.1285,-5.0757,-5.0324,-4.9989,-4.8818,-4.8057,-4.7569,-4.6944,-4.6554,-4.6339,-4.63,-4.63,-4.63,-4.63,-4.63,-4.63,-4.63,-4.63,-4.63,-4.63,-4.63,-4.63,-4.63,-4.63,-4.63,-4.63,-4.63,-4.63,-4.63,-4.63,-4.63,-4.63,-4.63,-4.63,-4.63,-4.63,-4.63,-4.63,-4.63,-4.63,-4.63,-4.6296,-4.6292,-4.6288,-4.6284,-4.6236,-4.6231,-4.6226,-4.6215,-4.6203,-4.6209,-4.6193,-4.6149,-4.6084,-4.6027,-4.6017,-4.6037,-4.5975,-4.5933,-4.5681,-4.4843,-4.399,-4.3323,-4.293,-4.2163,-4.2085,-4.2582,-4.297,-4.3254,-4.4053,-4.4272,-4.4385,-4.4715,-4.5115,-4.5215,-4.4995,-4.5113,-4.5201,-4.4598,-4.3994,-4.3594,-4.3819,-4.3653,-4.3653,-6.0596,-5.9648,-5.8062,-5.7404,-5.7248,-5.6379,-5.6012,-5.6012,-5.6012,-5.6012,-5.6012,-5.6062,-5.6098,-5.6133,-5.617,-5.6226,-5.6214,-5.6188,-5.5777,-5.5073,-5.4918,-5.4543,-5.3832,-5.3044,-5.263,-5.2468,-5.1838,-5.1459,-5.1406,-5.1386,-5.1386,-5.1379,-5.1281,-5.0903,-5.0266,-4.995,-4.9169,-4.7904,-4.7572,-4.7143,-4.644,-4.6319,-4.6303,-4.6303,-4.63,-4.63,-4.63,-4.63,-4.63,-4.63,-4.63,-4.63,-4.63,-4.63,-4.63,-4.63,-4.63,-4.63,-4.63,-4.63,-4.63,-4.63,-4.63,-4.63,-4.63,-4.63,-4.63,-4.63,-4.63,-4.63,-4.63,-4.63,-4.63,-4.63,-4.63,-4.6296,-4.6284,-4.6284,-4.6279,-4.6226,-4.6215,-4.6216,-4.6201,-4.6205,-4.6158,-4.6122,-4.6093,-4.6065,-4.6075,-4.6085,-4.5736,-4.5006,-4.4111,-4.3147,-4.233,-4.1587,-4.1451,-4.1831,-4.2199,-4.2443,-4.3005,-4.3482,-4.3574,-4.3693,-4.3927,-4.3986,-4.3791,-4.375,-4.3789,-4.3564,-4.3447,-4.3253,-4.2969,-4.3408,-4.333,-6.0944,-6.0518,-5.8836,-5.812,-5.7983,-5.6611,-5.6012,-5.6012,-5.6012,-5.6012,-5.5993,-5.6029,-5.6046,-5.6098,-5.613,-5.6175,-5.6232,-5.6278,-5.6142,-5.5819,-5.5337,-5.4946,-5.4621,-5.3852,-5.3161,-5.2683,-5.2378,-5.1938,-5.1423,-5.1386,-5.1386,-5.1386,-5.1386,-5.1209,-5.0874,-5.0361,-4.9771,-4.9165,-4.8211,-4.7447,-4.7098,-4.6588,-4.6295,-4.6295,-4.6306,-4.63,-4.63,-4.63,-4.63,-4.63,-4.63,-4.63,-4.63,-4.63,-4.63,-4.63,-4.63,-4.63,-4.63,-4.63,-4.63,-4.63,-4.63,-4.63,-4.63,-4.63,-4.63,-4.63,-4.63,-4.63,-4.63,-4.63,-4.63,-4.63,-4.63,-4.63,-4.6296,-4.6296,-4.6292,-4.626,-4.6226,-4.6209,-4.6209,-4.6203,-4.6189,-4.6177,-4.6169,-4.6158,-4.6111,-4.6113,-4.5968,-4.5609,-4.4899,-4.4015,-4.3189,-4.1722,-4.0981,-4.1128,-4.1391,-4.1819,-4.2334,-4.2626,-4.2762,-4.3209,-4.3276,-4.3266,-4.3233,-4.2938,-4.286,-4.2739,-4.2622,-4.2388,-4.1987,-4.2349,-4.2272,-6.0944,-6.0499,-5.9203,-5.843,-5.8023,-5.6631,-5.6012,-5.6012,-5.6012,-5.6012,-5.6012,-5.6012,-5.6029,-5.6082,-5.6082,-5.613,-5.6204,-5.6246,-5.6278,-5.6263,-5.5733,-5.5502,-5.5375,-5.4679,-5.4014,-5.3465,-5.2913,-5.2378,-5.184,-5.1537,-5.1403,-5.1384,-5.1384,-5.1385,-5.1288,-5.082,-5.0409,-4.994,-4.8944,-4.8182,-4.7636,-4.703,-4.656,-4.634,-4.6297,-4.629,-4.6303,-4.63,-4.63,-4.63,-4.63,-4.63,-4.63,-4.63,-4.63,-4.63,-4.63,-4.63,-4.63,-4.63,-4.63,-4.63,-4.63,-4.63,-4.63,-4.63,-4.63,-4.63,-4.63,-4.63,-4.63,-4.63,-4.63,-4.63,-4.63,-4.63,-4.63,-4.63,-4.6296,-4.6284,-4.6279,-4.6226,-4.6195,-4.6215,-4.6196,-4.6201,-4.6201,-4.6181,-4.6154,-4.6146,-4.613,-4.6072,-4.5324,-4.4634,-4.3847,-4.2558,-4.1247,-4.1179,-4.1082,-4.1383,-4.1596,-4.1835,-4.2105,-4.2611,-4.2813,-4.2782,-4.2595,-4.2259,-4.2078,-4.1955,-4.1785,-4.161,-4.1376,-4.124,-4.1389,-6.0634,-5.9861,-5.8932,-5.8081,-5.7329,-5.6418,-5.6012,-5.6012,-5.6012,-5.6012,-5.6012,-5.6012,-5.6012,-5.6012,-5.6065,-5.6133,-5.6214,-5.6213,-5.6246,-5.6283,-5.6236,-5.623,-5.6232,-5.55,-5.505,-5.4865,-5.3465,-5.2722,-5.2565,-5.1867,-5.1499,-5.1418,-5.1398,-5.1389,-5.1398,-5.1283,-5.093,-5.0305,-4.9973,-4.9172,-4.7825,-4.7553,-4.7108,-4.6403,-4.6289,-4.6307,-4.6287,-4.6303,-4.6303,-4.6303,-4.6303,-4.63,-4.63,-4.63,-4.63,-4.63,-4.63,-4.63,-4.63,-4.63,-4.63,-4.63,-4.63,-4.63,-4.63,-4.63,-4.63,-4.63,-4.63,-4.63,-4.63,-4.63,-4.63,-4.63,-4.63,-4.63,-4.63,-4.63,-4.6296,-4.6288,-4.6284,-4.626,-4.6231,-4.6206,-4.622,-4.6209,-4.6203,-4.6196,-4.6183,-4.6183,-4.6208,-4.6076,-4.5628,-4.5083,-4.4308,-4.3447,-4.228,-4.1346,-4.1124,-4.1143,-4.1202,-4.1373,-4.1427,-4.1797,-4.1831,-4.1818,-4.187,-4.159,-4.1499,-4.1354,-4.1125,-4.1106,-4.11,-4.11,-4.11,-6.0132,-5.9725,-5.8314,-5.7579,-5.7174,-5.6379,-5.6012,-5.6012,-5.6012,-5.6012,-5.6012,-5.6012,-5.6012,-5.6012,-5.6029,-5.6098,-5.6199,-5.6209,-5.6251,-5.6304,-5.6309,-5.6345,-5.6319,-5.6115,-5.5695,-5.5112,-5.4086,-5.322,-5.2698,-5.2362,-5.196,-5.1511,-5.1394,-5.1398,-5.1402,-5.1382,-5.1226,-5.0972,-5.0406,-4.9547,-4.8516,-4.791,-4.7193,-4.6417,-4.6297,-4.63,-4.6305,-4.6306,-4.6297,-4.6297,-4.6297,-4.6293,-4.6303,-4.63,-4.63,-4.63,-4.63,-4.63,-4.63,-4.63,-4.63,-4.63,-4.63,-4.63,-4.63,-4.63,-4.63,-4.63,-4.63,-4.63,-4.63,-4.63,-4.63,-4.63,-4.63,-4.63,-4.63,-4.63,-4.63,-4.6296,-4.6296,-4.6292,-4.6264,-4.626,-4.6236,-4.6211,-4.6201,-4.6201,-4.6201,-4.6215,-4.6209,-4.6138,-4.5781,-4.5501,-4.4864,-4.4214,-4.3298,-4.2142,-4.1571,-4.1116,-4.1069,-4.1045,-4.1052,-4.1065,-4.1052,-4.1064,-4.11,-4.1111,-4.1111,-4.1115,-4.1115,-4.1115,-4.1115,-4.1115,-4.11,-5.9513,-5.8816,-5.7772,-5.7114,-5.6786,-5.6205,-5.6012,-5.6012,-5.6012,-5.6012,-5.6012,-5.6012,-5.6012,-5.6012,-5.6012,-5.6065,-5.6149,-5.618,-5.6209,-5.6278,-5.6304,-5.6321,-5.6375,-5.6398,-5.6202,-5.5611,-5.4807,-5.4118,-5.3559,-5.2913,-5.2338,-5.1889,-5.1557,-5.1401,-5.1401,-5.1401,-5.1401,-5.1303,-5.0855,-5.0172,-4.9352,-4.8493,-4.7619,-4.6846,-4.6456,-4.63,-4.6303,-4.6305,-4.6289,-4.6287,-4.6306,-4.6303,-4.6293,-4.629,-4.6287,-4.6303,-4.63,-4.63,-4.63,-4.63,-4.63,-4.63,-4.63,-4.63,-4.63,-4.63,-4.63,-4.63,-4.63,-4.63,-4.63,-4.63,-4.63,-4.63,-4.63,-4.63,-4.63,-4.63,-4.63,-4.63,-4.63,-4.6296,-4.6292,-4.6292,-4.6269,-4.624,-4.6236,-4.6211,-4.6216,-4.6211,-4.6201,-4.6195,-4.6098,-4.5819,-4.5501,-4.491,-4.4267,-4.3188,-4.2169,-4.1572,-4.1195,-4.1117,-4.1089,-4.1089,-4.1075,-4.1086,-4.1115,-4.11,-4.1105,-4.1105,-4.1105,-4.1109,-4.1113,-4.1113,-4.1113,-5.8778,-5.7366,-5.725,-5.6747,-5.6109,-5.6012,-5.6012,-5.6012,-5.6012,-5.6012,-5.6012,-5.6012,-5.6012,-5.6012,-5.6012,-5.6048,-5.6098,-5.6184,-5.6214,-5.6218,-5.6259,-5.6317,-5.6314,-5.6368,-5.6368,-5.6246,-5.5611,-5.5197,-5.484,-5.365,-5.2681,-5.2467,-5.1862,-5.1433,-5.1419,-5.1394,-5.14,-5.138,-5.1341,-5.0893,-5.0034,-4.9327,-4.8382,-4.7487,-4.6804,-4.6413,-4.6277,-4.6306,-4.6297,-4.6289,-4.6289,-4.6289,-4.6305,-4.6303,-4.63,-4.629,-4.6303,-4.6303,-4.6303,-4.63,-4.63,-4.63,-4.63,-4.63,-4.63,-4.63,-4.63,-4.63,-4.63,-4.63,-4.63,-4.63,-4.63,-4.63,-4.63,-4.63,-4.63,-4.63,-4.63,-4.63,-4.63,-4.63,-4.63,-4.63,-4.6296,-4.6288,-4.6308,-4.6264,-4.624,-4.6216,-4.6211,-4.6211,-4.6231,-4.6103,-4.5786,-4.5571,-4.4928,-4.405,-4.2933,-4.207,-4.1356,-4.1159,-4.1111,-4.1115,-4.1115,-4.11,-4.1109,-4.1113,-4.1117,-4.1101,-4.1104,-4.1108,-4.1108,-4.1104,-4.1101,-5.7733,-5.725,-5.6611,-5.6205,-5.6012,-5.6012,-5.6012,-5.6012,-5.6012,-5.6012,-5.6012,-5.6012,-5.6012,-5.6012,-5.6012,-5.6029,-5.6098,-5.6184,-5.6214,-5.6218,-5.6278,-5.6317,-5.6333,-5.6368,-5.6417,-5.6377,-5.6171,-5.5829,-5.5213,-5.4648,-5.3798,-5.2604,-5.2382,-5.1941,-5.1486,-5.1394,-5.1394,-5.1394,-5.1394,-5.0985,-5.0243,-4.9892,-4.9001,-4.7601,-4.7289,-4.684,-4.6318,-4.6273,-4.629,-4.6303,-4.6305,-4.6288,-4.6289,-4.6289,-4.6288,-4.6306,-4.6301,-4.6293,-4.6303,-4.6303,-4.63,-4.63,-4.63,-4.63,-4.63,-4.63,-4.63,-4.63,-4.63,-4.63,-4.63,-4.63,-4.63,-4.63,-4.63,-4.63,-4.63,-4.63,-4.63,-4.63,-4.63,-4.63,-4.63,-4.63,-4.63,-4.6296,-4.6296,-4.6296,-4.6269,-4.6249,-4.6249,-4.6264,-4.6279,-4.6255,-4.6153,-4.5991,-4.5543,-4.4763,-4.3714,-4.2583,-4.1783,-4.1124,-4.1109,-4.1113,-4.1109,-4.1113,-4.1101,-4.1104,-4.1108,-4.1108,-4.1108,-4.1108,-4.1108,-4.1108,-4.1108,-5.7095,-5.6728,-5.6205,-5.6012,-5.6012,-5.6012,-5.6012,-5.6012,-5.6012,-5.6012,-5.6012,-5.6012,-5.6012,-5.6012,-5.6012,-5.6029,-5.6082,-5.6149,-5.6214,-5.6223,-5.6265,-5.6317,-5.6302,-5.6347,-5.6388,-5.6388,-5.6446,-5.6202,-5.5743,-5.5392,-5.4426,-5.3323,-5.277,-5.2173,-5.1388,-5.1356,-5.1356,-5.1375,-5.1356,-5.1064,-5.0635,-5.0245,-4.9621,-4.849,-4.7969,-4.7078,-4.6343,-4.6221,-4.6277,-4.629,-4.6295,-4.6297,-4.6303,-4.6307,-4.6288,-4.6289,-4.6288,-4.6305,-4.63,-4.6295,-4.6287,-4.6303,-4.63,-4.63,-4.63,-4.63,-4.63,-4.63,-4.63,-4.63,-4.63,-4.63,-4.63,-4.63,-4.63,-4.63,-4.63,-4.63,-4.63,-4.63,-4.63,-4.63,-4.63,-4.63,-4.63,-4.63,-4.63,-4.63,-4.63,-4.63,-4.63,-4.6292,-4.6292,-4.6269,-4.6264,-4.6147,-4.5616,-4.4875,-4.3903,-4.285,-4.1897,-4.1101,-4.1101,-4.1101,-4.1101,-4.1101,-4.1104,-4.1108,-4.1108,-4.1108,-4.1108,-4.1108,-4.1108,-4.1108,-4.1108,-5.6708,-5.6012,-5.6012,-5.6012,-5.6012,-5.6012,-5.6012,-5.6012,-5.6012,-5.6012,-5.6012,-5.6012,-5.6012,-5.6012,-5.6012,-5.6012,-5.5993,-5.6149,-5.6199,-5.6223,-5.6265,-5.6304,-5.6309,-5.6314,-5.6336,-5.6368,-5.6388,-5.6407,-5.6202,-5.5656,-5.4944,-5.4048,-5.3218,-5.2341,-5.1698,-5.1398,-5.13,-5.1308,-5.1308,-5.1269,-5.1074,-5.0607,-5.01,-4.9574,-4.8185,-4.7106,-4.6429,-4.6206,-4.6216,-4.6296,-4.6296,-4.63,-4.6303,-4.6295,-4.6303,-4.6288,-4.6289,-4.6289,-4.6289,-4.6306,-4.63,-4.6293,-4.6287,-4.6303,-4.63,-4.63,-4.63,-4.63,-4.63,-4.63,-4.63,-4.63,-4.63,-4.63,-4.63,-4.63,-4.63,-4.63,-4.63,-4.63,-4.63,-4.63,-4.63,-4.63,-4.63,-4.63,-4.63,-4.63,-4.63,-4.63,-4.63,-4.63,-4.63,-4.63,-4.63,-4.628,-4.5574,-4.4813,-4.3778,-4.2744,-4.1709,-4.1108,-4.1108,-4.1108,-4.1104,-4.1104,-4.1108,-4.1108,-4.1108,-4.1108,-4.1108,-4.1108,-4.1108,-4.1108,-4.1108,-5.6167,-5.6012,-5.6012,-5.6012,-5.6012,-5.6012,-5.6012,-5.6012,-5.6012,-5.6012,-5.6012,-5.6012,-5.6012,-5.6012,-5.6012,-5.6012,-5.6012,-5.6149,-5.6209,-5.6284,-5.6298,-5.6311,-5.6317,-5.6309,-5.6314,-5.6317,-5.6378,-5.6417,-5.632,-5.6182,-5.5762,-5.4866,-5.3911,-5.3179,-5.2333,-5.1573,-5.13,-5.13,-5.13,-5.13,-5.13,-5.1086,-5.0638,-4.9948,-4.8424,-4.7164,-4.6404,-4.6203,-4.6215,-4.6226,-4.6279,-4.6288,-4.63,-4.6284,-4.629,-4.6295,-4.6301,-4.6307,-4.6289,-4.6289,-4.6289,-4.6307,-4.6301,-4.6295,-4.6303,-4.63,-4.63,-4.63,-4.63,-4.63,-4.63,-4.63,-4.63,-4.63,-4.63,-4.63,-4.63,-4.63,-4.63,-4.63,-4.63,-4.63,-4.63,-4.63,-4.63,-4.63,-4.63,-4.63,-4.63,-4.63,-4.63,-4.63,-4.63,-4.63,-4.63,-4.6163,-4.55,-4.4758,-4.3743,-4.2614,-4.1596,-4.1108,-4.1108,-4.1108,-4.1108,-4.1108,-4.1108,-4.1108,-4.1108,-4.1108,-4.1108,-4.1108,-4.1108,-4.1108,-4.1108,-5.6012,-5.6012,-5.6012,-5.6012,-5.6012,-5.6012,-5.6012,-5.6012,-5.6012,-5.6012,-5.6012,-5.6012,-5.6012,-5.6012,-5.6012,-5.6012,-5.6029,-5.6133,-5.6243,-5.6298,-5.6311,-5.6311,-5.6311,-5.6317,-5.6309,-5.6302,-5.6336,-5.6358,-5.6388,-5.6357,-5.5976,-5.5197,-5.4359,-5.3405,-5.2606,-5.1768,-5.1339,-5.13,-5.13,-5.13,-5.13,-5.1281,-5.0891,-5.0014,-4.8775,-4.7703,-4.6924,-4.6385,-4.6248,-4.6196,-4.6234,-4.6255,-4.6264,-4.6249,-4.6253,-4.628,-4.6287,-4.6295,-4.6301,-4.6306,-4.6288,-4.6289,-4.6288,-4.6306,-4.63,-4.6293,-4.63,-4.63,-4.63,-4.63,-4.63,-4.63,-4.63,-4.63,-4.63,-4.63,-4.63,-4.63,-4.63,-4.63,-4.63,-4.63,-4.63,-4.63,-4.63,-4.63,-4.63,-4.63,-4.63,-4.63,-4.63,-4.63,-4.63,-4.63,-4.63,-4.6007,-4.5421,-4.466,-4.3782,-4.2611,-4.1479,-4.1225,-4.1108,-4.1108,-4.1108,-4.1108,-4.1108,-4.1108,-4.1108,-4.1108,-4.1108,-4.1108,-4.1108,-4.1108,-4.1108,-5.6012,-5.6012,-5.6012,-5.6012,-5.6012,-5.6012,-5.6012,-5.6012,-5.6012,-5.6012,-5.6012,-5.6012,-5.6012,-5.6012,-5.6012,-5.5993,-5.6046,-5.6114,-5.6243,-5.6311,-5.6311,-5.6311,-5.6311,-5.6304,-5.6304,-5.6309,-5.6314,-5.6336,-5.6378,-5.6368,-5.6113,-5.5344,-5.4554,-5.3794,-5.2859,-5.1982,-5.1476,-5.1359,-5.13,-5.13,-5.13,-5.1281,-5.0833,-5.0014,-4.9398,-4.8405,-4.7501,-4.6846,-4.6397,-4.6222,-4.6216,-4.6209,-4.6195,-4.6206,-4.6216,-4.6277,-4.6277,-4.628,-4.6287,-4.6295,-4.6303,-4.6288,-4.6289,-4.6289,-4.6289,-4.6297,-4.6303,-4.63,-4.63,-4.63,-4.63,-4.63,-4.63,-4.63,-4.63,-4.63,-4.63,-4.63,-4.63,-4.63,-4.63,-4.63,-4.63,-4.63,-4.63,-4.63,-4.63,-4.63,-4.63,-4.63,-4.63,-4.63,-4.63,-4.63,-4.63,-4.6183,-4.5558,-4.4563,-4.3743,-4.2708,-4.1557,-4.1225,-4.1108,-4.1108,-4.1108,-4.1108,-4.1108,-4.1108,-4.1108,-4.1108,-4.1108,-4.1108,-4.1108,-4.1108,-4.1108,-5.6012,-5.6012,-5.6012,-5.6012,-5.6012,-5.6012,-5.6012,-5.6012,-5.6012,-5.6012,-5.6012,-5.6012,-5.6012,-5.6012,-5.6012,-5.6065,-5.6133,-5.6199,-5.6243,-5.6311,-5.6311,-5.6311,-5.6311,-5.6311,-5.6304,-5.6304,-5.6309,-5.6314,-5.6336,-5.6349,-5.627,-5.5989,-5.5266,-5.4418,-5.356,-5.2801,-5.1885,-5.1378,-5.13,-5.13,-5.13,-5.1242,-5.095,-5.019,-4.982,-4.8962,-4.7852,-4.7365,-4.6956,-4.6313,-4.6222,-4.6203,-4.6216,-4.6215,-4.6226,-4.6231,-4.6236,-4.624,-4.6277,-4.6303,-4.6306,-4.6295,-4.6305,-4.6289,-4.6289,-4.63,-4.6287,-4.63,-4.63,-4.63,-4.63,-4.63,-4.63,-4.63,-4.63,-4.63,-4.63,-4.63,-4.63,-4.63,-4.63,-4.63,-4.63,-4.63,-4.63,-4.63,-4.63,-4.63,-4.63,-4.63,-4.63,-4.63,-4.63,-4.63,-4.63,-4.6183,-4.5773,-4.4582,-4.3684,-4.2903,-4.1927,-4.1322,-4.1108,-4.1108,-4.1108,-4.1108,-4.1108,-4.1108,-4.1108,-4.1108,-4.1108,-4.1108,-4.1108,-4.1108,-4.1108,-5.6012,-5.6012,-5.6012,-5.6012,-5.6012,-5.6012,-5.6012,-5.6012,-5.6012,-5.6012,-5.6012,-5.6012,-5.6012,-5.6012,-5.6012,-5.6082,-5.6184,-5.6228,-5.6238,-5.6291,-5.6311,-5.6311,-5.6311,-5.6311,-5.6311,-5.6304,-5.6317,-5.6309,-5.6302,-5.6325,-5.6377,-5.6184,-5.553,-5.4682,-5.3855,-5.2968,-5.2197,-5.1515,-5.132,-5.13,-5.13,-5.13,-5.0989,-5.0735,-5.0163,-4.9344,-4.8397,-4.7637,-4.7072,-4.6391,-4.6196,-4.6196,-4.6203,-4.6209,-4.6209,-4.6215,-4.6195,-4.6206,-4.6245,-4.6269,-4.6296,-4.6303,-4.6297,-4.6306,-4.6289,-4.6306,-4.6297,-4.6306,-4.63,-4.63,-4.63,-4.63,-4.63,-4.63,-4.63,-4.63,-4.63,-4.63,-4.63,-4.63,-4.63,-4.63,-4.63,-4.63,-4.63,-4.63,-4.63,-4.63,-4.63,-4.63,-4.63,-4.63,-4.63,-4.63,-4.63,-4.6222,-4.5909,-4.4758,-4.3723,-4.2942,-4.2181,-4.1537,-4.1205,-4.1108,-4.1108,-4.1108,-4.1108,-4.1108,-4.1108,-4.1108,-4.1108,-4.1108,-4.1108,-4.1108,-4.1108,-5.6012,-5.6012,-5.6012,-5.6012,-5.6012,-5.6012,-5.6012,-5.6012,-5.6012,-5.6012,-5.6012,-5.6012,-5.6012,-5.6012,-5.6029,-5.6082,-5.6199,-5.6223,-5.6232,-5.6291,-5.6311,-5.6311,-5.6311,-5.6311,-5.6311,-5.6311,-5.6311,-5.6304,-5.6297,-5.6297,-5.6341,-5.6208,-5.5599,-5.4908,-5.4139,-5.3379,-5.2414,-5.1771,-5.1304,-5.1284,-5.1312,-5.13,-5.13,-5.1281,-5.0591,-4.9831,-4.8748,-4.8202,-4.7287,-4.6546,-4.6196,-4.6196,-4.6196,-4.6196,-4.6203,-4.6196,-4.6196,-4.6209,-4.622,-4.6231,-4.626,-4.6269,-4.6296,-4.6295,-4.6305,-4.6289,-4.6287,-4.6295,-4.6303,-4.63,-4.63,-4.63,-4.63,-4.63,-4.63,-4.63,-4.63,-4.63,-4.63,-4.63,-4.63,-4.63,-4.63,-4.63,-4.63,-4.63,-4.63,-4.63,-4.63,-4.63,-4.63,-4.63,-4.63,-4.63,-4.63,-4.63,-4.5851,-4.5012,-4.4055,-4.3216,-4.2415,-4.1654,-4.14,-4.1108,-4.1108,-4.1108,-4.1108,-4.1108,-4.1108,-4.1108,-4.1108,-4.1108,-4.1108,-4.1108,-4.1108,-5.6012,-5.6012,-5.6012,-5.6012,-5.6012,-5.6012,-5.6012,-5.6012,-5.6012,-5.6012,-5.6012,-5.6012,-5.6012,-5.6012,-5.6062,-5.6114,-5.618,-5.6223,-5.6246,-5.6291,-5.6311,-5.6311,-5.6311,-5.6311,-5.6311,-5.6311,-5.6311,-5.6311,-5.6304,-5.6304,-5.6317,-5.6224,-5.6127,-5.5719,-5.4752,-5.3877,-5.3244,-5.2368,-5.159,-5.1249,-5.1295,-5.1292,-5.1292,-5.1253,-5.1039,-5.0299,-4.9033,-4.8495,-4.7813,-4.6391,-4.6196,-4.6196,-4.6196,-4.6196,-4.6196,-4.6203,-4.6203,-4.6209,-4.6203,-4.6215,-4.622,-4.6236,-4.6249,-4.628,-4.6295,-4.6289,-4.6289,-4.6289,-4.63,-4.6303,-4.6303,-4.63,-4.63,-4.63,-4.63,-4.63,-4.63,-4.63,-4.63,-4.63,-4.63,-4.63,-4.63,-4.63,-4.63,-4.63,-4.63,-4.63,-4.63,-4.63,-4.63,-4.63,-4.63,-4.63,-4.63,-4.63,-4.6007,-4.5265,-4.4309,-4.3469,-4.2767,-4.2006,-4.1322,-4.1108,-4.1108,-4.1108,-4.1108,-4.1108,-4.1108,-4.1108,-4.1108,-4.1108,-4.1108,-4.1108,-4.1108,-5.6012,-5.6012,-5.6012,-5.6012,-5.6012,-5.6012,-5.6012,-5.6012,-5.6012,-5.6012,-5.6012,-5.6012,-5.6012,-5.6029,-5.6098,-5.6164,-5.6214,-5.6238,-5.6278,-5.6291,-5.6311,-5.6311,-5.6311,-5.6311,-5.6311,-5.6311,-5.6311,-5.6311,-5.6311,-5.6311,-5.6304,-5.6317,-5.6265,-5.5831,-5.5061,-5.4216,-5.3351,-5.2475,-5.1697,-5.123,-5.123,-5.1248,-5.1228,-5.1239,-5.123,-5.0304,-4.9192,-4.8705,-4.7903,-4.6566,-4.6196,-4.6196,-4.6196,-4.6196,-4.6196,-4.6196,-4.6196,-4.6203,-4.6209,-4.6196,-4.6209,-4.6215,-4.6216,-4.6249,-4.6284,-4.6289,-4.6289,-4.6289,-4.6289,-4.63,-4.6306,-4.63,-4.63,-4.63,-4.63,-4.63,-4.63,-4.63,-4.63,-4.63,-4.63,-4.63,-4.63,-4.63,-4.63,-4.63,-4.63,-4.63,-4.63,-4.63,-4.63,-4.63,-4.63,-4.63,-4.63,-4.63,-4.63,-4.5597,-4.4426,-4.3665,-4.3099,-4.2415,-4.1635,-4.1166,-4.1108,-4.1108,-4.1108,-4.1108,-4.1108,-4.1108,-4.1108,-4.1108,-4.1108,-4.1108,-4.1108,-5.6012,-5.6012,-5.6012,-5.6012,-5.6012,-5.6012,-5.6012,-5.6012,-5.6012,-5.6012,-5.6012,-5.6012,-5.5993,-5.6046,-5.6149,-5.6199,-5.6214,-5.6265,-5.6291,-5.6311,-5.6311,-5.6311,-5.6311,-5.6311,-5.6311,-5.6311,-5.6311,-5.6311,-5.6311,-5.6311,-5.6311,-5.6311,-5.6311,-5.5799,-5.5027,-5.4175,-5.3261,-5.2075,-5.1502,-5.122,-5.122,-5.122,-5.122,-5.1211,-5.1045,-5.0422,-4.9011,-4.8708,-4.7899,-4.6524,-4.6181,-4.6181,-4.6162,-4.6174,-4.6181,-4.6189,-4.6208,-4.6208,-4.6203,-4.6209,-4.6196,-4.6203,-4.6215,-4.6236,-4.628,-4.6301,-4.6289,-4.6289,-4.6289,-4.6289,-4.6297,-4.629,-4.63,-4.63,-4.63,-4.63,-4.63,-4.63,-4.63,-4.63,-4.63,-4.63,-4.63,-4.63,-4.63,-4.63,-4.63,-4.63,-4.63,-4.63,-4.63,-4.63,-4.63,-4.63,-4.63,-4.63,-4.63,-4.5948,-4.4777,-4.3899,-4.3391,-4.2591,-4.1713,-4.1381,-4.1147,-4.1108,-4.1108,-4.1108,-4.1108,-4.1108,-4.1108,-4.1108,-4.1108,-4.1108,-4.1108,-5.6012,-5.6012,-5.6012,-5.6012,-5.6012,-5.6012,-5.6012,-5.6012,-5.6012,-5.6012,-5.6012,-5.6012,-5.6029,-5.6098,-5.6149,-5.6214,-5.6218,-5.6259,-5.6291,-5.6311,-5.6311,-5.6311,-5.6311,-5.6311,-5.6311,-5.6311,-5.6311,-5.6311,-5.6311,-5.6311,-5.6311,-5.6311,-5.6311,-5.5747,-5.4944,-5.3985,-5.2819,-5.1789,-5.1256,-5.1208,-5.1219,-5.121,-5.1201,-5.1201,-5.1084,-5.0452,-4.8837,-4.8701,-4.7912,-4.6247,-4.613,-4.613,-4.613,-4.613,-4.6158,-4.6166,-4.6193,-4.6193,-4.6189,-4.6196,-4.6203,-4.6203,-4.6222,-4.6226,-4.6273,-4.63,-4.6297,-4.6288,-4.6289,-4.6289,-4.6289,-4.63,-4.6287,-4.63,-4.63,-4.63,-4.63,-4.63,-4.63,-4.63,-4.63,-4.63,-4.63,-4.63,-4.63,-4.63,-4.63,-4.63,-4.63,-4.63,-4.63,-4.63,-4.63,-4.63,-4.63,-4.63,-4.63,-4.6027,-4.5226,-4.4387,-4.3723,-4.2825,-4.1849,-4.1361,-4.1108,-4.1108,-4.1108,-4.1108,-4.1108,-4.1108,-4.1108,-4.1108,-4.1108,-4.1108,-4.1108,-5.6012,-5.6012,-5.6012,-5.6012,-5.6012,-5.6012,-5.6012,-5.6012,-5.6012,-5.6012,-5.6012,-5.6012,-5.6029,-5.6098,-5.6184,-5.6214,-5.6218,-5.6278,-5.6291,-5.6311,-5.6311,-5.6311,-5.6311,-5.6311,-5.6311,-5.6311,-5.6311,-5.6311,-5.6311,-5.6311,-5.6311,-5.6311,-5.6253,-5.5747,-5.4912,-5.3591,-5.2309,-5.1591,-5.1214,-5.1206,-5.1206,-5.1206,-5.1217,-5.1217,-5.1217,-5.0295,-4.8944,-4.8691,-4.7612,-4.659,-4.6171,-4.6113,-4.6113,-4.6113,-4.6122,-4.613,-4.6149,-4.6158,-4.6166,-4.6162,-4.6196,-4.6203,-4.6196,-4.6215,-4.624,-4.6273,-4.6284,-4.63,-4.6287,-4.6289,-4.6289,-4.6303,-4.6295,-4.6306,-4.63,-4.63,-4.63,-4.63,-4.63,-4.63,-4.63,-4.63,-4.63,-4.63,-4.63,-4.63,-4.63,-4.63,-4.63,-4.63,-4.63,-4.63,-4.63,-4.63,-4.63,-4.63,-4.63,-4.5968,-4.5617,-4.4875,-4.4075,-4.2982,-4.2084,-4.1557,-4.1127,-4.1108,-4.1108,-4.1108,-4.1108,-4.1108,-4.1108,-4.1108,-4.1108,-4.1108,-4.1108,-5.6012,-5.6012,-5.6012,-5.6012,-5.6012,-5.6012,-5.6012,-5.6012,-5.6012,-5.6012,-5.6012,-5.6012,-5.6029,-5.6098,-5.6164,-5.6214,-5.6218,-5.6259,-5.6291,-5.6311,-5.6311,-5.6311,-5.6311,-5.6311,-5.6311,-5.6311,-5.6311,-5.6311,-5.6311,-5.6311,-5.6311,-5.6233,-5.5981,-5.5359,-5.4368,-5.297,-5.1766,-5.1358,-5.1202,-5.1202,-5.1202,-5.1202,-5.1202,-5.1202,-5.1202,-5.0301,-4.9107,-4.8515,-4.7709,-4.6649,-4.6056,-4.6056,-4.6075,-4.6075,-4.6075,-4.6104,-4.6104,-4.6104,-4.6122,-4.6166,-4.6189,-4.6196,-4.6209,-4.6203,-4.622,-4.626,-4.6273,-4.6303,-4.6301,-4.6288,-4.6289,-4.6287,-4.6297,-4.629,-4.6303,-4.63,-4.63,-4.63,-4.63,-4.63,-4.63,-4.63,-4.63,-4.63,-4.6303,-4.6303,-4.63,-4.63,-4.63,-4.63,-4.63,-4.63,-4.63,-4.63,-4.63,-4.63,-4.63,-4.6241,-4.5812,-4.5246,-4.4387,-4.3352,-4.2494,-4.1947,-4.1557,-4.1244,-4.1108,-4.1108,-4.1108,-4.1108,-4.1108,-4.1108,-4.1108,-4.1108,-4.1108,-5.6012,-5.6012,-5.6012,-5.6012,-5.6012,-5.6012,-5.6012,-5.6012,-5.6012,-5.6012,-5.6012,-5.6012,-5.6029,-5.6098,-5.6164,-5.6194,-5.6218,-5.6259,-5.6311,-5.6311,-5.6311,-5.6311,-5.6311,-5.6311,-5.6311,-5.6311,-5.6311,-5.6311,-5.6311,-5.6311,-5.6311,-5.5981,-5.5456,-5.4563,-5.365,-5.2076,-5.126,-5.1202,-5.1202,-5.1202,-5.1202,-5.1202,-5.1202,-5.1202,-5.1202,-5.0367,-4.9271,-4.8649,-4.7794,-4.662,-4.6095,-4.6017,-4.6017,-4.6017,-4.6047,-4.6076,-4.6076,-4.6095,-4.6113,-4.6158,-4.6174,-4.6208,-4.6196,-4.6209,-4.6203,-4.622,-4.624,-4.6277,-4.6306,-4.63,-4.6306,-4.6289,-4.6303,-4.6297,-4.6293,-4.6303,-4.6303,-4.63,-4.63,-4.63,-4.63,-4.63,-4.63,-4.63,-4.6303,-4.6303,-4.63,-4.63,-4.6303,-4.6306,-4.6287,-4.6287,-4.629,-4.6303,-4.6303,-4.63,-4.628,-4.628,-4.6046,-4.548,-4.4933,-4.4153,-4.3313,-4.2494,-4.1908,-4.1518,-4.1283,-4.1108,-4.1108,-4.1108,-4.1108,-4.1108,-4.1108,-4.1108,-4.1108,-5.6012,-5.6012,-5.6012,-5.6012,-5.6012,-5.6012,-5.6012,-5.6012,-5.6012,-5.6012,-5.6012,-5.6012,-5.6029,-5.6098,-5.6164,-5.6194,-5.6218,-5.6278,-5.6311,-5.6311,-5.6311,-5.6311,-5.6311,-5.6311,-5.6311,-5.6311,-5.6311,-5.6311,-5.6311,-5.6311,-5.6311,-5.6019,-5.4757,-5.3708,-5.2814,-5.1746,-5.1222,-5.1202,-5.1202,-5.1202,-5.1202,-5.1202,-5.1202,-5.1202,-5.1202,-5.0581,-4.9415,-4.8949,-4.7958,-4.6832,-4.6404,-4.5997,-4.5977,-4.5977,-4.6007,-4.6037,-4.6037,-4.6066,-4.6105,-4.6123,-4.6141,-4.6185,-4.6201,-4.6196,-4.6203,-4.6209,-4.6231,-4.6269,-4.6296,-4.6293,-4.6303,-4.6289,-4.6288,-4.6307,-4.6303,-4.6293,-4.6287,-4.6303,-4.63,-4.63,-4.63,-4.63,-4.63,-4.6306,-4.6287,-4.6287,-4.6306,-4.629,-4.6293,-4.6295,-4.6297,-4.6297,-4.6297,-4.629,-4.6306,-4.6303,-4.63,-4.628,-4.6144,-4.5812,-4.5246,-4.4738,-4.3899,-4.2962,-4.2357,-4.181,-4.1557,-4.1322,-4.1166,-4.1108,-4.1108,-4.1108,-4.1108,-4.1108,-4.1108,-5.6012,-5.6012,-5.6012,-5.6012,-5.6012,-5.6012,-5.6012,-5.6012,-5.6012,-5.6012,-5.6012,-5.6012,-5.6029,-5.6082,-5.6114,-5.618,-5.6204,-5.6232,-5.6291,-5.6291,-5.6311,-5.6311,-5.6311,-5.6311,-5.6311,-5.6311,-5.6311,-5.6311,-5.6311,-5.6311,-5.5883,-5.5048,-5.3999,-5.2892,-5.2057,-5.1455,-5.1202,-5.1202,-5.1202,-5.1202,-5.1202,-5.1202,-5.1202,-5.1202,-5.1105,-5.0755,-4.9901,-4.9066,-4.8211,-4.7376,-4.6618,-4.6035,-4.5997,-4.5977,-4.5977,-4.5977,-4.6007,-4.6026,-4.6066,-4.6066,-4.6095,-4.616,-4.6169,-4.6174,-4.6203,-4.6209,-4.6215,-4.6255,-4.6292,-4.6303,-4.6297,-4.6306,-4.6289,-4.6289,-4.6289,-4.6289,-4.63,-4.6297,-4.6293,-4.629,-4.629,-4.6287,-4.6303,-4.629,-4.6293,-4.6293,-4.6293,-4.6295,-4.6297,-4.6301,-4.6289,-4.6289,-4.6289,-4.6301,-4.6295,-4.6306,-4.6303,-4.63,-4.6163,-4.5987,-4.5695,-4.5187,-4.4309,-4.3548,-4.3099,-4.2591,-4.1908,-4.1576,-4.1576,-4.1361,-4.1108,-4.1108,-4.1108,-4.1166,-4.1244,-5.5915,-5.5935,-5.5915,-5.5857,-5.5877,-5.5838,-5.5915,-5.5993,-5.6012,-5.6012,-5.6012,-5.6012,-5.6012,-5.6012,-5.6082,-5.6114,-5.618,-5.6204,-5.6232,-5.6259,-5.6291,-5.6291,-5.6291,-5.6311,-5.6311,-5.6311,-5.6272,-5.6214,-5.6233,-5.5786,-5.5009,-5.396,-5.3067,-5.2212,-5.161,-5.1299,-5.1202,-5.1202,-5.1202,-5.1202,-5.1202,-5.1202,-5.1202,-5.1202,-5.1144,-5.0814,-5.0095,-4.9299,-4.8405,-4.7512,-4.6618,-4.621,-4.6016,-4.5997,-4.5977,-4.5977,-4.5977,-4.6007,-4.6026,-4.6007,-4.6037,-4.6085,-4.6104,-4.6141,-4.6185,-4.6208,-4.6216,-4.622,-4.6264,-4.6273,-4.6303,-4.6301,-4.6289,-4.6289,-4.6289,-4.6289,-4.6289,-4.6287,-4.6303,-4.6301,-4.6301,-4.63,-4.6295,-4.6295,-4.6289,-4.6301,-4.6301,-4.63,-4.6303,-4.6287,-4.6289,-4.6289,-4.6289,-4.6289,-4.6303,-4.629,-4.6303,-4.63,-4.63,-4.6144,-4.589,-4.5636,-4.4992,-4.4387,-4.3977,-4.3411,-4.2708,-4.2318,-4.2162,-4.1927,-4.183,-4.1557,-4.1713,-4.1518,-4.1596,-5.4213,-5.4213,-5.4233,-5.4213,-5.431,-5.489,-5.547,-5.5954,-5.6012,-5.6012,-5.6012,-5.6012,-5.6012,-5.6012,-5.6062,-5.6098,-5.613,-5.6175,-5.6204,-5.6232,-5.6259,-5.6272,-5.6253,-5.6214,-5.6272,-5.6214,-5.6136,-5.5825,-5.5281,-5.4893,-5.4019,-5.2853,-5.2484,-5.1863,-5.1455,-5.1202,-5.1202,-5.1202,-5.1202,-5.1202,-5.1202,-5.1202,-5.1202,-5.1202,-5.1202,-5.093,-5.06,-4.9862,-4.9027,-4.8191,-4.7356,-4.6754,-4.5997,-4.5977,-4.5977,-4.5977,-4.5977,-4.5997,-4.5977,-4.5977,-4.6007,-4.6037,-4.6027,-4.6104,-4.6169,-4.6193,-4.6196,-4.6209,-4.6231,-4.624,-4.6277,-4.6293,-4.6305,-4.6289,-4.6289,-4.6289,-4.6289,-4.6289,-4.6289,-4.6289,-4.6289,-4.6289,-4.6289,-4.6289,-4.6289,-4.6289,-4.6289,-4.6289,-4.6289,-4.6289,-4.6289,-4.6289,-4.6289,-4.6289,-4.6301,-4.629,-4.6306,-4.63,-4.63,-4.63,-4.6163,-4.5909,-4.5597,-4.5168,-4.4641,-4.4075,-4.345,-4.3196,-4.3079,-4.3138,-4.304,-4.2611,-4.2262,-4.2184,-4.2324,-5.3498,-5.3498,-5.3498,-5.3498,-5.3594,-5.4058,-5.4581,-5.5084,-5.5702,-5.6012,-5.6012,-5.6012,-5.6012,-5.6012,-5.6029,-5.6082,-5.6098,-5.6126,-5.6175,-5.6223,-5.6116,-5.5921,-5.5863,-5.5708,-5.5417,-5.5417,-5.5217,-5.4848,-5.4356,-5.3669,-5.2814,-5.2484,-5.2193,-5.1688,-5.1338,-5.1202,-5.1202,-5.1202,-5.1202,-5.1202,-5.1202,-5.1202,-5.1202,-5.1202,-5.1202,-5.1202,-5.1105,-5.0348,-4.9512,-4.8638,-4.7764,-4.6909,-4.6171,-4.5977,-4.5977,-4.5977,-4.5977,-4.5977,-4.5977,-4.5977,-4.5977,-4.5977,-4.6007,-4.6056,-4.6123,-4.6149,-4.6181,-4.619,-4.6189,-4.6211,-4.6264,-4.63,-4.6297,-4.6289,-4.6289,-4.6289,-4.6289,-4.6289,-4.6289,-4.6289,-4.6289,-4.6289,-4.6289,-4.6289,-4.6289,-4.6289,-4.6289,-4.6289,-4.6289,-4.6289,-4.6289,-4.6289,-4.6289,-4.6301,-4.6295,-4.6293,-4.6306,-4.63,-4.63,-4.63,-4.63,-4.6202,-4.5929,-4.5597,-4.5226,-4.4738,-4.4309,-4.4211,-4.4114,-4.4094,-4.398,-4.3635,-4.3305,-4.3169,-4.3442,-5.3265,-5.3227,-5.3285,-5.3227,-5.3401,-5.3382,-5.3478,-5.3652,-5.5064,-5.578,-5.5702,-5.5741,-5.5606,-5.5412,-5.5432,-5.5507,-5.5465,-5.5478,-5.549,-5.5966,-5.5617,-5.5302,-5.4948,-5.4779,-5.456,-5.3959,-5.3721,-5.3987,-5.3443,-5.2777,-5.2265,-5.2251,-5.1637,-5.1229,-5.1241,-5.1202,-5.1202,-5.1202,-5.1202,-5.1202,-5.1202,-5.1202,-5.1202,-5.1202,-5.1202,-5.1202,-5.1027,-5.0425,-4.959,-4.8735,-4.792,-4.7104,-4.6307,-4.5977,-4.5977,-4.5977,-4.5977,-4.5977,-4.5977,-4.5977,-4.5977,-4.5977,-4.6007,-4.6037,-4.6076,-4.6123,-4.6138,-4.6189,-4.6196,-4.6215,-4.6255,-4.6296,-4.6293,-4.6303,-4.6289,-4.6289,-4.6289,-4.6289,-4.6289,-4.6289,-4.6289,-4.6289,-4.6289,-4.6289,-4.6289,-4.6289,-4.6289,-4.6289,-4.6289,-4.6289,-4.6289,-4.6289,-4.6289,-4.6295,-4.6293,-4.629,-4.6303,-4.63,-4.63,-4.63,-4.63,-4.63,-4.63,-4.5987,-4.5675,-4.5578,-4.5304,-4.5168,-4.4933,-4.466,-4.4569,-4.4521,-4.4366,-4.4231,-4.4489,-5.1481,-5.1515,-5.1528,-5.1892,-5.2469,-5.2492,-5.2895,-5.3511,-5.3881,-5.4097,-5.4097,-5.4116,-5.4194,-5.431,-5.4329,-5.4346,-5.4307,-5.4501,-5.4227,-5.4374,-5.4413,-5.4386,-5.397,-5.3892,-5.3679,-5.3693,-5.3519,-5.3131,-5.2601,-5.1923,-5.1451,-5.1418,-5.1127,-5.1159,-5.119,-5.119,-5.119,-5.119,-5.1202,-5.1202,-5.1202,-5.1202,-5.1202,-5.1202,-5.1202,-5.1202,-5.1105,-5.1008,-5.0328,-4.9609,-4.8755,-4.755,-4.6133,-4.6035,-4.5977,-4.5977,-4.5997,-4.5997,-4.5977,-4.5966,-4.5966,-4.5997,-4.5997,-4.6026,-4.6037,-4.6056,-4.6104,-4.6166,-4.6215,-4.6222,-4.6245,-4.6264,-4.6303,-4.6295,-4.6289,-4.6289,-4.6289,-4.6289,-4.6289,-4.6289,-4.6289,-4.6289,-4.6289,-4.6289,-4.6289,-4.6289,-4.6289,-4.6289,-4.6289,-4.6289,-4.6289,-4.6289,-4.6289,-4.629,-4.6287,-4.6306,-4.6303,-4.63,-4.63,-4.63,-4.63,-4.63,-4.63,-4.63,-4.6144,-4.5991,-4.5932,-4.6007,-4.5753,-4.535,-4.5284,-4.5311,-4.5488,-4.5429,-4.5683,-5.081,-5.0863,-5.0861,-5.1125,-5.1525,-5.1609,-5.1915,-5.2295,-5.2337,-5.2356,-5.2531,-5.3072,-5.3478,-5.3478,-5.3498,-5.3401,-5.342,-5.352,-5.3688,-5.3611,-5.3375,-5.3313,-5.3154,-5.2957,-5.2554,-5.253,-5.2429,-5.2056,-5.1746,-5.1469,-5.1133,-5.1089,-5.1108,-5.1121,-5.1166,-5.1146,-5.1159,-5.1159,-5.119,-5.1202,-5.1202,-5.1222,-5.1222,-5.1202,-5.1202,-5.1202,-5.1202,-5.1163,-5.0658,-4.9726,-4.8638,-4.7784,-4.6657,-4.623,-4.6035,-4.5986,-4.5994,-4.5994,-4.5964,-4.5944,-4.5944,-4.5944,-4.5994,-4.5994,-4.6005,-4.6026,-4.6056,-4.6113,-4.6193,-4.6222,-4.6222,-4.6245,-4.6269,-4.6287,-4.6295,-4.6289,-4.6289,-4.6289,-4.6289,-4.6289,-4.6289,-4.6289,-4.6289,-4.6289,-4.6289,-4.6289,-4.6289,-4.6289,-4.6289,-4.6289,-4.6289,-4.6289,-4.6289,-4.6287,-4.6303,-4.6303,-4.6303,-4.63,-4.63,-4.63,-4.63,-4.63,-4.63,-4.6303,-4.6303,-4.6267,-4.6267,-4.629,-4.6297,-4.5932,-4.6015,-4.6151,-4.6307,-4.6305,-4.6239,-5.0775,-5.0793,-5.0793,-5.0825,-5.0816,-5.088,-5.0957,-5.0951,-5.0929,-5.0948,-5.1164,-5.2495,-5.3094,-5.3169,-5.3169,-5.3169,-5.3033,-5.2705,-5.2898,-5.2956,-5.2991,-5.2527,-5.2198,-5.2005,-5.1676,-5.142,-5.1281,-5.1276,-5.1189,-5.1053,-5.1053,-5.1087,-5.1087,-5.1087,-5.1081,-5.1089,-5.1102,-5.1114,-5.1146,-5.1178,-5.119,-5.1222,-5.1222,-5.1202,-5.1202,-5.1202,-5.1202,-5.1086,-5.0717,-4.9967,-4.8829,-4.7897,-4.7179,-4.6596,-4.6197,-4.6069,-4.5972,-4.596,-4.5929,-4.591,-4.5898,-4.5917,-4.596,-4.5991,-4.5983,-4.5994,-4.6026,-4.6085,-4.616,-4.6193,-4.6196,-4.6203,-4.6231,-4.6273,-4.6284,-4.6293,-4.6289,-4.6289,-4.6289,-4.6289,-4.6289,-4.6289,-4.6289,-4.6289,-4.6289,-4.6289,-4.6289,-4.6289,-4.6289,-4.6289,-4.6289,-4.6289,-4.6289,-4.63,-4.6306,-4.6303,-4.6303,-4.63,-4.63,-4.63,-4.63,-4.63,-4.6303,-4.6306,-4.629,-4.629,-4.6297,-4.6301,-4.6306,-4.6289,-4.6307,-4.63,-4.6295,-4.629,-4.63,-5.0664,-5.0739,-5.0775,-5.081,-5.0808,-5.0808,-5.0808,-5.0827,-5.0825,-5.0825,-5.0924,-5.102,-5.1344,-5.1428,-5.1389,-5.1525,-5.1815,-5.1679,-5.1467,-5.137,-5.1757,-5.1467,-5.1312,-5.1409,-5.1099,-5.0964,-5.0921,-5.0941,-5.0971,-5.0975,-5.099,-5.102,-5.102,-5.1053,-5.1087,-5.1081,-5.1095,-5.1095,-5.1095,-5.1127,-5.114,-5.1166,-5.1202,-5.1202,-5.1202,-5.1202,-5.1202,-5.1202,-5.1093,-5.0622,-4.9802,-4.8606,-4.7753,-4.7093,-4.6628,-4.6201,-4.6072,-4.5905,-4.5905,-4.5873,-4.5893,-4.5873,-4.5917,-4.5949,-4.596,-4.5991,-4.6025,-4.6026,-4.6095,-4.6158,-4.6162,-4.619,-4.622,-4.6264,-4.6296,-4.629,-4.6289,-4.6289,-4.6289,-4.6289,-4.6289,-4.6289,-4.6289,-4.6289,-4.6289,-4.6289,-4.6289,-4.6289,-4.6289,-4.6289,-4.6289,-4.6289,-4.6289,-4.6303,-4.6287,-4.6306,-4.6303,-4.6303,-4.6303,-4.6303,-4.6303,-4.63,-4.6303,-4.6287,-4.629,-4.6293,-4.6301,-4.6289,-4.6307,-4.63,-4.6293,-4.6303,-4.6296,-4.6273,-4.6264]}]]